[[{"header":{"parameterUnit":"m.s-1","parameterCategory":1,"la1":30.6,"la2":29.2853,"lo1":-89.7004,"lo2":-87.6739,"dx":0.0162,"dy":0.0183,"nx":112,"ny":82,"refTime":"2023-02-08T18:00:00:Z","depth":0,"parameterNumber":2,"parameterNumberName":"U-component_of_WINDS"},"data":[0.0,0.0,0.0,0.0,0.0,0.0,0.0,0.0,0.0,0.0,0.0,0.0,0.0,0.0,0.0,0.0,0.0,0.0,0.0,0.0,0.0,0.0,0.0,0.0,0.0,0.0,0.0,0.0,0.0,0.0,0.0,0.0,0.0,0.0,0.0,0.0,0.0,0.0,0.0,0.0,0.0,0.0,0.0,0.0,0.0,0.0,0.0,0.0,0.0,0.0,0.0,0.0,0.0,0.0,0.0,0.0,0.0,0.0,0.0,0.0,0.0,0.0,0.0,0.0,0.0,0.0,0.0,0.0,0.0,0.0,0.0,0.0,0.0,0.0,0.0,0.0,0.0,0.0,0.0,0.0,0.0,0.0,0.0,0.0,0.0,0.0,0.0,0.0,0.0,0.0,-5.8086,-6.1057,-6.626,-7.0052,-7.1475,-7.136,-7.0744,-6.959,0.0,0.0,0.0,0.0,0.0,0.0,0.0,0.0,0.0,0.0,0.0,0.0,0.0,0.0,0.0,0.0,0.0,0.0,0.0,0.0,0.0,0.0,0.0,0.0,0.0,0.0,0.0,0.0,0.0,0.0,0.0,0.0,0.0,0.0,0.0,0.0,0.0,0.0,0.0,0.0,0.0,0.0,0.0,0.0,0.0,0.0,0.0,0.0,0.0,0.0,0.0,0.0,0.0,0.0,0.0,0.0,0.0,0.0,0.0,0.0,0.0,0.0,0.0,0.0,0.0,0.0,0.0,0.0,0.0,0.0,0.0,0.0,0.0,0.0,0.0,0.0,0.0,0.0,0.0,0.0,0.0,0.0,0.0,0.0,0.0,0.0,0.0,0.0,0.0,0.0,0.0,0.0,0.0,0.0,0.0,0.0,0.0,0.0,0.0,0.0,0.0,0.0,0.0,0.0,-6.1756,-6.2837,-6.6346,-6.8706,-6.8975,-6.7667,-6.7359,-6.8513,0.0,0.0,0.0,0.0,0.0,0.0,0.0,0.0,0.0,0.0,0.0,0.0,0.0,0.0,0.0,0.0,0.0,0.0,0.0,0.0,0.0,0.0,0.0,0.0,0.0,0.0,0.0,0.0,0.0,0.0,0.0,0.0,0.0,0.0,0.0,0.0,0.0,0.0,0.0,0.0,0.0,0.0,0.0,0.0,0.0,0.0,0.0,0.0,0.0,0.0,0.0,0.0,0.0,0.0,0.0,0.0,0.0,0.0,0.0,0.0,0.0,0.0,0.0,0.0,0.0,0.0,0.0,0.0,0.0,0.0,0.0,0.0,0.0,0.0,0.0,0.0,0.0,0.0,0.0,0.0,0.0,0.0,0.0,0.0,0.0,0.0,0.0,0.0,0.0,0.0,0.0,0.0,0.0,0.0,0.0,0.0,0.0,0.0,0.0,0.0,0.0,0.0,0.0,-6.1175,-6.1077,-6.3222,-6.5611,-6.7205,-6.7667,-6.6167,-6.5897,-6.759,-6.5974,0.0,0.0,0.0,0.0,0.0,0.0,0.0,0.0,0.0,0.0,0.0,0.0,0.0,0.0,0.0,0.0,0.0,0.0,0.0,0.0,0.0,0.0,0.0,0.0,0.0,0.0,0.0,0.0,0.0,0.0,0.0,0.0,0.0,0.0,0.0,0.0,0.0,0.0,0.0,0.0,0.0,0.0,0.0,0.0,0.0,0.0,0.0,0.0,0.0,0.0,0.0,0.0,0.0,0.0,0.0,0.0,0.0,0.0,0.0,0.0,0.0,0.0,0.0,0.0,0.0,0.0,0.0,0.0,0.0,0.0,0.0,0.0,0.0,0.0,0.0,0.0,0.0,0.0,0.0,0.0,0.0,0.0,0.0,0.0,0.0,0.0,0.0,0.0,0.0,0.0,0.0,0.0,0.0,0.0,0.0,0.0,0.0,0.0,0.0,0.0,0.0,0.0,-5.9832,-6.0166,-6.2955,-6.4849,-6.5974,-6.6205,-6.5013,-6.4859,-6.6128,-6.3628,0.0,0.0,0.0,0.0,0.0,0.0,0.0,0.0,0.0,0.0,0.0,0.0,0.0,0.0,0.0,0.0,0.0,0.0,0.0,0.0,0.0,0.0,0.0,0.0,0.0,0.0,0.0,0.0,0.0,0.0,0.0,0.0,0.0,0.0,0.0,0.0,0.0,0.0,0.0,0.0,0.0,0.0,0.0,0.0,0.0,0.0,0.0,0.0,0.0,0.0,0.0,0.0,0.0,0.0,0.0,0.0,0.0,0.0,0.0,0.0,0.0,0.0,0.0,0.0,0.0,0.0,0.0,0.0,0.0,0.0,0.0,0.0,0.0,0.0,0.0,0.0,0.0,0.0,0.0,0.0,0.0,0.0,0.0,0.0,0.0,0.0,0.0,0.0,0.0,0.0,0.0,0.0,0.0,0.0,0.0,0.0,0.0,0.0,0.0,0.0,0.0,0.0,-6.1888,-6.1196,-6.2121,-6.4422,-6.5282,-6.3705,-6.3474,-6.3435,-6.3551,-6.2627,0.0,0.0,0.0,0.0,0.0,0.0,0.0,0.0,0.0,0.0,0.0,0.0,0.0,0.0,0.0,0.0,0.0,0.0,0.0,0.0,0.0,0.0,0.0,0.0,0.0,0.0,0.0,0.0,0.0,0.0,0.0,0.0,0.0,0.0,0.0,0.0,0.0,0.0,0.0,0.0,0.0,0.0,0.0,0.0,0.0,0.0,0.0,0.0,0.0,0.0,0.0,0.0,0.0,0.0,0.0,0.0,0.0,0.0,0.0,0.0,0.0,0.0,0.0,0.0,0.0,0.0,0.0,0.0,0.0,0.0,0.0,0.0,0.0,0.0,0.0,0.0,0.0,0.0,0.0,0.0,0.0,0.0,0.0,0.0,0.0,0.0,0.0,0.0,0.0,0.0,0.0,0.0,0.0,0.0,0.0,0.0,0.0,0.0,0.0,0.0,0.0,0.0,-6.1525,-6.0631,-6.1351,-6.2667,-6.3243,-6.2589,-6.205,-6.2204,-6.3243,0.0,0.0,0.0,0.0,0.0,0.0,0.0,0.0,0.0,0.0,0.0,0.0,0.0,0.0,0.0,0.0,0.0,0.0,0.0,0.0,0.0,0.0,0.0,0.0,0.0,0.0,0.0,0.0,0.0,0.0,0.0,0.0,0.0,0.0,0.0,0.0,0.0,0.0,0.0,0.0,0.0,0.0,0.0,0.0,0.0,0.0,0.0,0.0,0.0,0.0,0.0,0.0,0.0,0.0,0.0,0.0,0.0,0.0,0.0,0.0,0.0,0.0,0.0,0.0,0.0,0.0,0.0,0.0,0.0,0.0,0.0,0.0,0.0,0.0,0.0,0.0,0.0,0.0,0.0,0.0,0.0,0.0,0.0,0.0,0.0,0.0,0.0,0.0,0.0,0.0,0.0,0.0,0.0,0.0,0.0,0.0,0.0,0.0,0.0,0.0,0.0,0.0,-6.2764,-6.1179,-6.0281,-6.0954,-6.1653,-6.1973,-6.1704,-6.0896,-6.0896,-6.2012,0.0,0.0,0.0,0.0,0.0,0.0,0.0,0.0,0.0,0.0,0.0,0.0,0.0,0.0,0.0,0.0,0.0,0.0,0.0,0.0,0.0,0.0,0.0,0.0,0.0,0.0,0.0,0.0,0.0,0.0,0.0,0.0,0.0,0.0,0.0,0.0,0.0,0.0,0.0,0.0,0.0,0.0,0.0,0.0,0.0,0.0,0.0,0.0,0.0,0.0,0.0,0.0,0.0,0.0,0.0,0.0,0.0,0.0,0.0,0.0,0.0,0.0,0.0,0.0,0.0,0.0,0.0,0.0,0.0,0.0,0.0,0.0,0.0,0.0,0.0,0.0,0.0,0.0,0.0,0.0,0.0,0.0,0.0,0.0,0.0,0.0,0.0,0.0,0.0,0.0,0.0,0.0,0.0,0.0,0.0,0.0,0.0,0.0,0.0,0.0,0.0,0.0,-6.2569,-6.1169,-6.0268,-6.0937,-6.1653,-6.1704,-6.0858,-5.9973,-5.9473,0.0,0.0,0.0,0.0,0.0,0.0,0.0,0.0,0.0,0.0,0.0,0.0,0.0,0.0,0.0,0.0,0.0,0.0,0.0,0.0,0.0,0.0,0.0,0.0,0.0,0.0,0.0,0.0,0.0,0.0,0.0,0.0,0.0,0.0,0.0,0.0,0.0,0.0,0.0,0.0,0.0,0.0,0.0,0.0,0.0,0.0,0.0,0.0,0.0,0.0,0.0,0.0,0.0,0.0,0.0,0.0,0.0,0.0,0.0,0.0,0.0,0.0,0.0,0.0,0.0,0.0,0.0,0.0,0.0,0.0,0.0,0.0,0.0,0.0,0.0,0.0,0.0,0.0,0.0,0.0,0.0,0.0,0.0,0.0,0.0,0.0,0.0,0.0,0.0,0.0,0.0,0.0,0.0,0.0,0.0,0.0,0.0,0.0,0.0,0.0,0.0,0.0,0.0,-6.1616,-6.0172,-5.9551,-6.0727,-6.1042,-6.0819,-5.9973,-5.9127,-5.8396,-5.778,0.0,0.0,0.0,0.0,0.0,0.0,0.0,0.0,0.0,0.0,0.0,0.0,0.0,0.0,0.0,0.0,0.0,0.0,0.0,0.0,0.0,0.0,0.0,0.0,0.0,0.0,0.0,0.0,0.0,0.0,0.0,0.0,0.0,0.0,0.0,0.0,0.0,0.0,0.0,0.0,0.0,0.0,0.0,0.0,0.0,0.0,0.0,0.0,0.0,0.0,0.0,0.0,0.0,0.0,0.0,0.0,0.0,0.0,0.0,0.0,0.0,0.0,0.0,0.0,0.0,0.0,0.0,0.0,0.0,0.0,0.0,0.0,0.0,0.0,0.0,0.0,0.0,0.0,0.0,0.0,0.0,0.0,0.0,0.0,0.0,0.0,0.0,0.0,0.0,0.0,0.0,0.0,0.0,0.0,0.0,0.0,0.0,0.0,0.0,0.0,0.0,0.0,-6.1236,-5.9794,-5.9255,-6.073,-6.0811,-6.0589,-6.005,-5.8973,-5.7934,-5.7049,0.0,0.0,0.0,0.0,0.0,0.0,0.0,0.0,0.0,0.0,0.0,0.0,0.0,0.0,0.0,0.0,0.0,0.0,0.0,0.0,0.0,0.0,0.0,0.0,0.0,0.0,0.0,0.0,0.0,0.0,0.0,0.0,0.0,0.0,0.0,0.0,0.0,0.0,0.0,0.0,0.0,0.0,0.0,0.0,0.0,0.0,0.0,0.0,0.0,0.0,0.0,0.0,0.0,0.0,0.0,0.0,0.0,0.0,0.0,0.0,0.0,0.0,0.0,0.0,0.0,0.0,0.0,0.0,0.0,0.0,0.0,0.0,0.0,0.0,0.0,0.0,0.0,0.0,0.0,0.0,0.0,0.0,0.0,0.0,0.0,0.0,0.0,0.0,0.0,0.0,0.0,0.0,0.0,0.0,0.0,0.0,0.0,0.0,0.0,0.0,0.0,0.0,-6.1153,-5.9786,-5.9269,-6.0842,-6.086,-6.0781,-6.0704,-5.9204,-5.7896,-5.6934,0.0,0.0,0.0,0.0,0.0,0.0,0.0,0.0,0.0,0.0,0.0,0.0,0.0,0.0,0.0,0.0,0.0,0.0,0.0,0.0,0.0,0.0,0.0,0.0,0.0,0.0,0.0,0.0,0.0,0.0,0.0,0.0,0.0,0.0,0.0,0.0,0.0,0.0,0.0,0.0,0.0,0.0,0.0,0.0,0.0,0.0,0.0,0.0,0.0,0.0,0.0,0.0,0.0,0.0,0.0,0.0,0.0,0.0,0.0,0.0,-6.9672,-6.8661,0.0,0.0,0.0,0.0,0.0,0.0,0.0,0.0,0.0,0.0,0.0,0.0,0.0,0.0,0.0,0.0,0.0,0.0,0.0,0.0,0.0,0.0,0.0,0.0,0.0,0.0,0.0,0.0,0.0,0.0,0.0,0.0,0.0,0.0,0.0,0.0,0.0,0.0,0.0,0.0,-6.0215,-5.9283,-5.9142,-6.0685,-6.0827,-6.0512,-5.9858,-5.8858,-5.7627,-5.6088,-5.4395,0.0,0.0,0.0,0.0,0.0,0.0,0.0,0.0,0.0,0.0,0.0,0.0,0.0,0.0,0.0,0.0,0.0,0.0,0.0,0.0,0.0,0.0,0.0,0.0,0.0,0.0,0.0,0.0,0.0,0.0,0.0,0.0,0.0,0.0,0.0,0.0,0.0,0.0,0.0,0.0,0.0,0.0,0.0,0.0,0.0,0.0,0.0,0.0,0.0,0.0,0.0,0.0,0.0,0.0,0.0,0.0,0.0,0.0,0.0,-7.0661,-6.9494,0.0,0.0,0.0,0.0,0.0,0.0,0.0,0.0,0.0,0.0,0.0,0.0,0.0,0.0,0.0,0.0,0.0,0.0,0.0,0.0,0.0,0.0,0.0,0.0,0.0,0.0,0.0,0.0,0.0,0.0,0.0,0.0,0.0,0.0,0.0,0.0,0.0,0.0,0.0,0.0,-5.984,-5.9087,-5.907,-6.0612,-6.0781,-6.0627,-6.0165,-5.9358,-5.8165,-5.6434,-5.4741,0.0,0.0,0.0,0.0,0.0,0.0,0.0,0.0,0.0,0.0,0.0,0.0,0.0,0.0,0.0,0.0,0.0,0.0,0.0,0.0,0.0,0.0,0.0,0.0,0.0,0.0,0.0,0.0,0.0,0.0,0.0,0.0,0.0,0.0,0.0,0.0,0.0,0.0,0.0,0.0,0.0,0.0,0.0,0.0,0.0,0.0,0.0,0.0,0.0,0.0,0.0,0.0,0.0,-7.5515,-7.5899,-7.7275,-7.6451,-7.5506,-7.4422,-7.2888,-7.1537,-7.048,-7.0045,0.0,0.0,0.0,0.0,0.0,0.0,0.0,0.0,0.0,0.0,0.0,0.0,0.0,0.0,0.0,0.0,0.0,0.0,0.0,0.0,0.0,0.0,0.0,0.0,-6.5,-6.4414,-6.5703,0.0,0.0,0.0,0.0,0.0,0.0,0.0,0.0,0.0,0.0,0.0,-5.9692,-5.9026,-5.907,-6.0612,-6.0781,-6.0781,-6.0781,-5.9858,-5.8704,-5.7319,-5.5357,-5.3626,0.0,0.0,0.0,0.0,0.0,0.0,0.0,0.0,0.0,0.0,0.0,0.0,0.0,0.0,0.0,0.0,0.0,0.0,0.0,0.0,0.0,0.0,0.0,0.0,0.0,0.0,0.0,0.0,0.0,0.0,0.0,0.0,-5.6731,-5.6224,0.0,0.0,0.0,0.0,0.0,0.0,0.0,0.0,0.0,0.0,0.0,0.0,0.0,-7.3459,-7.5503,-7.6254,-7.6784,-7.713,-7.7015,-7.7092,-7.7275,-7.5832,-7.5993,-7.7307,-7.6497,0.0,-7.0381,-6.9049,0.0,0.0,0.0,0.0,0.0,0.0,0.0,0.0,0.0,0.0,0.0,0.0,0.0,0.0,0.0,0.0,0.0,0.0,0.0,0.0,0.0,0.0,-6.5078,-6.289,-6.2773,-6.3047,0.0,-6.4258,-6.6172,-6.6914,-6.7148,-6.6914,0.0,0.0,0.0,0.0,0.0,0.0,-5.9525,-5.8896,-5.8979,-6.0627,-6.0781,-6.0781,-6.0781,-5.9358,-5.8357,-5.8127,-5.5126,-5.328,-5.3049,-5.2202,0.0,0.0,0.0,0.0,0.0,0.0,0.0,0.0,0.0,0.0,0.0,0.0,0.0,0.0,0.0,0.0,0.0,0.0,0.0,0.0,0.0,0.0,0.0,0.0,0.0,0.0,0.0,0.0,0.0,-5.7712,-5.7476,-5.5919,-5.7306,-5.8558,0.0,0.0,0.0,0.0,0.0,0.0,0.0,0.0,0.0,-7.5242,-7.5205,-7.6806,-8.0246,-8.0169,-8.0362,-8.0823,-8.0323,-8.0092,-8.0085,-7.9166,-7.9226,-8.0036,-7.9945,-7.8311,-7.5382,-7.1796,-6.9677,-6.8418,0.0,0.0,0.0,0.0,-6.7214,-6.7112,-6.7735,-6.7578,-6.7037,-6.6659,0.0,0.0,0.0,0.0,0.0,0.0,0.0,-6.6484,0.0,0.0,-6.3984,-6.332,-6.2695,-6.2305,-6.2422,-6.2969,-6.3632,-6.4441,-6.4981,-6.4857,-6.3416,-6.2485,0.0,0.0,0.0,-5.7594,-5.878,-5.8539,-5.8934,-6.0627,-6.0358,-6.0281,-6.0742,-5.9242,-5.8319,-5.8319,-5.5549,-5.3703,-5.3241,-5.2356,-5.1972,0.0,0.0,0.0,0.0,0.0,0.0,0.0,0.0,0.0,0.0,0.0,0.0,0.0,0.0,0.0,0.0,0.0,0.0,0.0,0.0,0.0,0.0,0.0,0.0,0.0,0.0,0.0,0.0,-5.7171,-5.7002,-5.4566,-5.6089,-5.7302,0.0,0.0,0.0,0.0,0.0,0.0,-6.7736,-7.0237,-7.3811,-7.8565,-7.8263,-7.9954,-8.393,-8.3316,-8.3466,-8.4272,-8.3374,-8.3054,-8.324,-8.2435,-8.203,-8.2046,-8.2237,-8.1445,-7.9687,-7.4922,-7.191,-6.9972,-6.7068,-6.6127,-6.6453,-6.7216,-6.7507,-6.7686,-6.8825,-6.907,-6.873,-6.7917,-6.8241,-6.8683,-6.7303,0.0,0.0,0.0,0.0,-6.582,-6.539,-6.4297,-6.3398,-6.3594,-6.2656,-6.1875,-6.2539,-6.2148,-6.1874,-6.2397,-6.3003,-6.2974,-6.1607,-6.1106,0.0,-5.8435,-5.7787,-5.7834,-5.8803,-5.8742,-5.9165,-6.0627,-6.0012,-5.9742,-6.0396,-5.8934,-5.7973,-5.7973,-5.5588,-5.3895,-5.3241,-5.2356,-5.2202,-5.2856,0.0,0.0,0.0,0.0,0.0,0.0,0.0,0.0,0.0,0.0,0.0,0.0,0.0,0.0,0.0,0.0,0.0,0.0,0.0,0.0,0.0,0.0,0.0,0.0,0.0,0.0,0.0,0.0,0.0,-5.0744,-5.3585,0.0,0.0,0.0,0.0,-6.2055,-6.5302,-6.8592,-7.1925,-7.431,-7.708,-8.031,-8.1094,-8.2619,-8.5006,-8.4968,-8.5349,-8.615,-8.52,-8.517,-8.5857,-8.385,-8.2909,-8.2902,-8.2472,-8.1797,-8.0664,-7.7148,-7.4687,-7.289,-7.1094,-6.9922,-6.9257,-6.9142,-6.9479,-6.9695,-6.7399,-6.7519,-6.8622,-6.8076,-6.8066,-6.8086,-6.7187,-6.6914,0.0,0.0,-6.6914,-6.6445,-6.4805,-6.4297,-6.3828,-6.2226,-6.1758,-6.1719,-6.1758,-6.1719,-6.1719,-6.1758,-6.1701,-6.1621,-6.1498,0.0,-6.0085,-6.0687,-5.9359,-5.8842,-6.0473,-5.9935,-5.9781,-6.0704,-6.0012,-5.9511,-5.955,-5.8011,-5.7049,-5.7049,-5.4664,-5.3241,-5.3203,-5.2356,-5.1933,-5.1972,-5.3664,0.0,0.0,0.0,0.0,0.0,0.0,0.0,0.0,0.0,0.0,0.0,0.0,0.0,0.0,0.0,0.0,0.0,0.0,0.0,0.0,0.0,0.0,0.0,0.0,0.0,0.0,0.0,0.0,-5.4431,-5.5308,0.0,-5.7834,-5.9287,-6.1238,-6.3876,-6.6766,-7.003,-7.3653,-7.618,-7.9616,-8.422,-8.5132,-8.6684,-8.9036,-8.9036,-8.8652,-8.7846,-8.6949,-8.5786,-8.4472,-8.3462,-8.2676,-8.2162,-8.2276,-8.2109,-8.164,-7.9297,-7.6992,-7.4648,-7.125,-6.9726,-6.9414,-6.9371,-6.945,-6.9674,-7.0385,-7.0639,-7.0541,-6.9898,-6.9022,-6.8125,-6.7812,-6.7344,-6.6914,-6.6914,-6.6914,-6.6758,-6.6133,-6.5156,-6.414,-6.3515,-6.2539,-6.1719,-6.1719,-6.1719,-6.1719,-6.1719,-6.1515,-6.1178,-6.0501,-5.9951,-5.9511,-5.9279,-5.8693,-5.8704,-5.9819,-5.9704,-5.9627,-5.9935,-5.9204,-5.8742,-5.8742,-5.7165,-5.6395,-5.6934,-5.5126,-5.378,-5.3241,-5.2895,-5.301,-5.3549,-5.5241,-5.5703,0.0,0.0,0.0,0.0,0.0,0.0,0.0,0.0,0.0,0.0,0.0,0.0,0.0,0.0,0.0,0.0,0.0,0.0,0.0,0.0,0.0,0.0,0.0,0.0,0.0,-5.5784,-5.6258,-5.6731,-5.7582,-5.8785,-6.0259,-6.1732,-6.3583,-6.5917,-6.9311,-7.2907,-7.6568,-7.8752,-8.1942,-8.6303,-8.6785,-8.8019,-9.0417,-9.011,-8.9573,-8.8767,-8.7833,-8.6363,-8.4433,-8.3734,-8.2948,-8.2124,-8.2237,-8.2148,-8.1758,-8.0312,-7.8555,-7.6445,-7.3008,-7.164,-7.1562,-7.1207,-7.1182,-7.1611,-7.3289,-7.3153,-7.2124,-7.1365,-7.0195,-6.8945,-6.8359,-6.7812,-6.7265,-6.6992,-6.6914,-6.6758,-6.6172,-6.5156,-6.414,-6.3555,-6.2539,-6.1719,-6.1719,-6.1719,-6.1719,-6.1719,-6.1491,-6.1097,-6.0444,-6.0113,-5.9665,-5.8819,-5.8973,-5.9242,-5.9473,-5.9742,-5.9819,-5.9511,-5.8781,-5.8165,-5.7896,-5.628,-5.5665,-5.6511,-5.4703,-5.3626,-5.3626,-5.2818,-5.2895,-5.4049,-5.6011,-5.6434,-5.5357,0.0,0.0,0.0,0.0,0.0,0.0,0.0,0.0,0.0,0.0,0.0,0.0,0.0,0.0,0.0,0.0,0.0,0.0,0.0,0.0,0.0,0.0,0.0,-5.4634,-5.7137,-5.849,-5.7137,-6.025,-6.148,-5.9212,-6.341,-6.6895,-6.8413,-7.3124,-7.7287,-8.0581,-8.2147,-8.3983,-8.6303,-8.581,-8.6597,-8.8858,-8.8057,-8.8019,-8.882,-8.7845,-8.6901,-8.5973,-8.4743,-8.3726,-8.2941,-8.2472,-8.1797,-8.0937,-8.0039,-7.918,-7.8281,-7.6523,-7.5859,-7.5742,-7.4613,-7.4818,-7.556,-7.556,-7.4627,-7.3242,-7.2344,-7.1445,-7.039,-6.875,-6.8203,-6.7969,-6.7148,-6.6914,-6.6523,-6.4805,-6.4336,-6.3867,-6.2187,-6.1758,-6.1719,-6.1719,-6.1719,-6.1719,-6.1719,-6.1498,-6.1289,-6.1289,-6.1039,-6.0512,-5.9665,-6.0242,0.0,-5.9665,-6.0281,-6.0435,-5.9511,-5.8704,-5.7896,-5.6973,-5.5434,-5.4857,-5.5665,-5.3395,-5.2779,-5.4434,-5.2125,-5.1587,-5.3241,-5.5742,-5.7011,-5.6973,0.0,0.0,0.0,0.0,0.0,0.0,0.0,0.0,0.0,0.0,0.0,0.0,0.0,0.0,0.0,0.0,0.0,0.0,0.0,0.0,0.0,-5.5875,-5.6021,-5.548,-5.7036,-5.8863,-6.0655,-6.2364,-6.4421,-6.709,-6.8898,-7.0895,-7.3378,-7.6096,-7.8474,-8.0504,-8.2513,-8.4196,-8.5505,-8.7005,-8.8117,-8.8727,-8.8534,-8.819,-8.7806,-8.6872,-8.5709,-8.4279,-8.3617,-8.287,-8.2007,-8.1573,-8.1211,-8.0898,-7.9414,-7.832,-7.7383,-7.5625,-7.4961,-7.4765,-7.32,-7.3589,-7.4876,-7.4876,-7.4998,-7.4922,-7.3437,-7.1914,-7.0508,-6.9453,-6.8242,-6.7226,-6.6953,-6.6914,-6.6797,-6.6328,-6.5234,-6.418,-6.3711,-6.2617,-6.1719,-6.1719,-6.1719,-6.1719,-6.1719,-6.1573,-6.14,-6.1301,-6.1039,-6.0704,-6.0473,-6.0666,-6.0704,-6.0473,-6.0666,-6.0012,-5.7896,-5.7473,-5.678,-5.5318,-5.4741,-5.4857,-5.5665,-5.5049,-5.4626,-5.4511,-5.3818,-5.3933,-5.4972,-5.6934,-5.7627,0.0,0.0,0.0,0.0,0.0,0.0,0.0,0.0,0.0,0.0,0.0,0.0,0.0,0.0,0.0,0.0,0.0,0.0,0.0,0.0,0.0,0.0,-5.6713,-5.7814,-5.8017,-5.9336,-6.0994,-6.3057,-6.553,-6.82,-7.0811,-7.2594,-7.4287,-7.5959,-7.8245,-7.9859,-8.049,-8.2314,-8.375,-8.4627,-8.5628,-8.6652,-8.7594,-8.6901,-8.6478,-8.6324,-8.5478,-8.4362,-8.3048,-8.2997,-8.2536,-8.1671,-8.1183,-8.0781,-8.0351,-7.9023,-7.8008,0.0,0.0,0.0,0.0,0.0,-7.3711,-7.4609,-7.4609,-7.4453,-7.4101,-7.3086,-7.1601,-7.0039,-6.9219,-6.8242,-6.7383,-6.6992,-6.6914,-6.6719,-6.6015,-6.5078,-6.4101,-6.3398,-6.2422,-6.1719,-6.1719,-6.1719,-6.1719,-6.1719,-6.1584,0.0,-6.1312,-6.107,-6.0745,-6.0304,-6.055,-6.0666,-6.0281,-6.055,-6.0089,-5.8242,-5.805,-5.7511,-5.6203,-5.5434,0.0,0.0,0.0,-5.4972,-5.4511,-5.4818,0.0,0.0,0.0,-5.8396,-5.8588,-5.8588,0.0,0.0,-5.8242,-5.805,0.0,0.0,0.0,0.0,0.0,0.0,0.0,0.0,0.0,0.0,0.0,0.0,0.0,0.0,0.0,0.0,-5.7758,-5.9945,-6.1467,-6.3103,-6.4403,-6.5047,-6.9014,-7.185,-7.2285,-7.4997,-7.6875,-7.7171,-7.9689,-8.1029,-8.0515,-8.179,0.0,0.0,0.0,-8.3753,-8.594,-8.4401,-8.4055,-8.4901,-8.3901,-8.2978,-8.2201,-8.2531,-8.2225,-8.1399,-8.091,-8.0273,-7.9492,-7.8594,-7.7656,-7.6601,-7.5156,-7.4492,-7.4336,-7.4374,-7.4414,-7.4453,-7.4413,0.0,0.0,-7.1875,-7.0703,-6.9219,-6.8437,-6.8125,-6.7851,-6.6992,-6.6758,-6.6367,-6.4726,-6.4219,-6.375,-6.2226,-6.1758,-6.1719,-6.1719,-6.1719,-6.1719,-6.1719,-6.1587,-6.1485,-6.1312,-6.1143,-6.0692,-5.9788,-6.0281,-6.0512,-5.9742,-6.0319,-6.0396,-5.9319,0.0,0.0,-5.7934,-5.6434,-5.5972,-5.6934,-5.5703,-5.4934,-5.4934,-5.5703,-5.6434,-5.7126,-5.8088,-5.9281,-6.0666,-6.0742,-6.0781,-6.0742,-5.8473,-5.8242,0.0,0.0,0.0,0.0,0.0,0.0,0.0,0.0,0.0,0.0,0.0,0.0,0.0,0.0,0.0,-5.8748,-6.057,-6.2245,-6.3768,-6.6474,-6.8369,-6.8542,-7.043,-7.2788,-7.5574,-7.6434,-7.7571,-7.9318,-8.0043,-8.0314,-8.0157,-8.1569,-8.2214,-8.1918,-8.2866,-8.3956,-8.5132,-8.4093,-8.4055,-8.4901,0.0,0.0,-8.1316,-8.1018,-8.0435,-7.9569,-7.9152,-7.8906,-7.8594,-7.7031,-7.5469,-7.4101,-7.4453,-7.375,-7.2578,-7.31,-7.3423,-7.3515,-7.3373,-7.272,-7.1875,-7.1172,-6.9805,-6.8437,-6.8242,-6.7695,0.0,-6.6094,-6.5859,-6.5625,-6.457,-6.3789,-6.3164,-6.2812,-6.2226,-6.1719,-6.1719,-6.1719,-6.1719,-6.1719,-6.1679,-6.158,-6.1334,-6.1143,-6.0925,-6.0596,-6.0704,-6.0742,-6.055,-6.0704,-5.9935,-5.7703,-5.7473,-5.6857,-5.5357,-5.4934,-5.5357,-5.6896,-5.7357,-5.7588,-5.7588,-5.8357,-5.855,-5.805,-5.955,-6.0127,-5.9742,-6.0473,-6.0781,-6.0781,-6.0281,-6.0242,0.0,0.0,0.0,0.0,0.0,0.0,0.0,0.0,0.0,0.0,0.0,-5.3667,-5.5555,0.0,-5.9399,-6.1491,-6.3396,-6.523,-6.685,-6.9049,-7.0486,-7.0105,-7.2219,-7.4547,-7.6631,-7.7496,-7.8579,-8.0008,-8.0389,-8.0463,-8.0125,-8.1133,-8.1628,-8.1422,-8.2016,-8.2747,-8.3593,-8.2785,-8.2554,-8.2978,-8.2131,-8.1246,-8.0469,-8.0397,-7.9929,-7.9102,-7.8684,-7.8242,-7.7695,-7.5976,-7.4492,-7.332,-7.3663,-7.304,-7.1991,-7.1802,-7.1854,-7.1913,-7.129,-7.0644,-7.0039,-6.9609,-6.8594,-6.7539,-6.7539,-6.7265,-6.6797,-6.6367,-6.625,-6.6055,-6.5195,-6.4648,-6.418,-6.375,-6.332,-6.3008,-6.3008,-6.2656,-6.2344,-6.2344,-6.1992,-6.159,-6.1334,-6.1214,-6.1048,-6.085,-6.0781,-6.0781,-6.0781,-6.0781,-6.0127,-5.8434,-5.8242,-5.7896,-5.7088,-5.7011,-5.7357,-5.8204,-5.828,-5.8473,-5.8896,-5.9281,-5.9319,-5.8896,-6.0165,-6.0589,-6.0165,-6.0589,-6.0781,-6.0781,-6.0781,-6.0781,0.0,0.0,0.0,0.0,0.0,0.0,0.0,-5.0692,-5.3639,-5.4261,-5.4988,-5.6014,-5.7814,-6.008,-6.2178,-6.3497,-6.5725,-6.7885,-6.9461,-7.1185,-7.2119,-7.1707,-7.4046,-7.6119,-7.7045,-7.8364,-7.9469,-8.0048,-8.0716,-8.0855,-8.0315,-8.0822,-8.1162,-8.1308,-8.1167,-8.1477,-8.2285,-8.1516,-8.117,-8.1323,-8.1016,-8.04,-7.9546,-7.9776,-7.9345,-7.8348,-7.7903,-7.7265,-7.6328,-7.4922,-7.3828,-7.2964,-7.2812,-7.2383,-7.1783,-7.0778,-7.0381,-7.0306,-6.9432,-6.8722,-6.8203,-6.8203,-6.7617,-6.6914,-6.6914,-6.6914,-6.6875,-6.6719,-6.664,-6.6445,-6.5586,-6.5351,-6.5156,-6.4453,-6.4297,-6.4297,-6.4297,-6.3633,-6.3008,-6.3008,-6.2305,-6.1631,-6.1373,-6.1301,-6.1211,-6.0834,-6.0781,-6.0781,-6.0781,-6.0781,-6.0473,-5.9588,-5.9358,-5.9204,-5.9011,-5.9319,-5.9511,-5.9511,-5.905,-5.9088,-5.9742,-5.9742,-5.9742,-5.9742,-6.0435,-6.0781,-6.0781,-6.0781,-6.0781,-6.0781,-6.0781,-6.0781,-4.9702,-4.5407,-4.0488,-4.0464,-4.4137,-4.7935,0.0,-5.123,-5.425,-5.6874,-5.7484,-5.7848,-5.8727,-6.1298,-6.3531,-6.4343,-6.717,-6.9496,-7.0382,-7.2684,-7.4575,-7.515,-7.5541,-7.6417,-7.7961,-7.8766,-7.9469,-8.0048,-8.0716,-8.1061,-8.0991,-8.1061,-8.11,-8.1145,-8.11,-8.1477,-8.2285,-8.1516,-8.1477,-8.2131,-8.0669,-7.9477,-7.8622,-7.8263,-7.7229,-7.5702,-7.5247,-7.4531,-7.3711,-7.3515,-7.2843,-7.1858,-7.1852,-7.172,-7.1446,-7.036,-6.9708,-6.9315,-6.9039,-6.86,-6.8203,-6.8203,-6.7617,-6.6914,-6.6914,-6.6914,-6.6758,-6.5976,-6.5742,-6.5547,-6.4687,-6.4453,-6.4414,-6.4336,-6.4297,-6.4297,-6.4297,-6.3633,-6.3008,-6.3008,-6.2305,-6.1637,-6.1504,-6.1373,-6.1211,-6.0834,-6.0781,-6.0781,-6.0781,-6.0781,-6.0473,-5.9588,-5.8858,-5.8127,-5.7357,-5.8627,-5.9511,-5.9511,-6.0127,-6.055,-6.0666,-6.0666,-6.0666,-6.0666,-6.0742,-6.0781,-6.0781,-6.0781,-6.0781,-6.0781,-6.0781,-6.0781,-4.7367,-4.4728,-4.1672,-4.1734,-4.3364,-4.7471,-5.7188,-6.0306,-6.1273,-6.138,-6.1844,-6.2183,-6.229,-6.4459,-6.6495,-6.7284,-6.9741,-7.1999,-7.3326,-7.4136,-7.4958,-7.5772,-7.5482,-7.6069,-7.8089,-7.8853,-7.9469,-8.0048,-8.0716,-8.1093,-8.1093,-8.1093,-8.1093,-8.1093,-8.1093,-8.1246,-8.1593,-8.1285,-8.1285,-8.1593,-8.09,-7.9823,-7.8507,-7.8534,-7.7506,-7.5579,-7.437,-7.3633,-7.3242,-7.2734,-7.2215,-7.1682,-7.1614,-7.1173,-7.0481,-6.9537,-6.9111,-6.8855,-6.7813,-6.7383,-6.721,-6.6795,-6.6797,-6.6797,-6.6289,-6.6484,-6.6836,-6.6445,-6.6367,-6.6289,-6.5898,-6.582,-6.582,-6.582,-6.582,-6.582,-6.582,-6.4726,-6.375,-6.375,-6.2656,-6.1677,-6.1515,-6.1383,-6.12,-6.0983,-6.0856,-6.0781,-6.0781,-6.0781,-6.0473,-5.9588,-5.9204,-5.8858,-5.8473,-5.955,-6.0242,-6.0242,-6.0589,-6.0781,-6.0781,-6.0781,-6.0781,-6.0781,-6.0781,-6.0781,-6.0781,-6.0781,-6.0781,-6.0781,-6.0781,-6.0781,-4.7264,-4.5384,-4.3287,-4.4205,-4.7129,-5.2749,-6.4213,-6.6601,-6.5942,-6.4243,-6.4512,-6.4914,-6.4424,-6.6107,-6.7885,-6.8886,-7.1336,-7.3699,-7.5257,-7.5178,-7.5092,-7.5485,-7.457,-7.4695,-7.6766,-7.8102,-7.9242,-8.0048,-8.0716,-8.1093,-8.1093,-8.1093,-8.1093,-8.1093,-8.1093,-8.1093,-8.1093,-8.1093,-8.1093,-8.1093,-8.0592,-7.9708,-7.8507,-7.8185,-7.7258,-7.5781,-7.4062,-7.3281,-7.3242,-7.2344,-7.1858,-7.1642,-7.1536,-7.0965,-7.0087,-6.9259,-6.8917,-6.8598,-6.716,-6.6808,-6.6856,-6.612,-6.6327,-6.6797,-6.6133,-6.6406,-6.6914,-6.6914,-6.6914,-6.6914,-6.6914,-6.6914,-6.6914,-6.6914,-6.6914,-6.6914,-6.6914,-6.5703,-6.4648,-6.4648,-6.3437,-6.2303,-6.1967,-6.1751,-6.1525,-6.1151,-6.0905,-6.0781,-6.0781,-6.0781,-6.0473,-5.9588,-5.9704,-5.9742,-5.9511,-6.0281,-6.0781,-6.0781,-6.0781,-6.0781,-6.0781,-6.0781,-6.0781,-6.0781,-6.0781,-6.0781,-6.0781,-6.0781,-6.0781,-6.0781,-6.0781,-6.0781,-4.9568,-4.727,-4.3873,-4.6541,-5.6699,-6.6239,-6.6676,-6.6004,-6.5094,-6.4108,-6.4233,-6.4377,-6.3666,-6.483,-6.6442,-6.7834,-7.0961,-7.37,-7.5113,-7.5627,-7.5589,-7.4858,-7.276,-7.1968,-7.3415,-7.6272,-7.8598,-8.001,-8.0716,-8.1093,-8.1093,-8.1093,-8.1093,-8.1093,-8.1093,-8.1093,-8.1093,-8.1093,-8.1093,-8.1093,-7.94,-7.8554,-7.843,-7.6361,-7.5581,-7.5781,-7.4062,-7.3281,-7.3242,-7.2344,-7.1792,-7.1523,-7.1485,-7.1262,-7.0771,-6.9963,-6.9239,-6.851,-6.7658,-6.7592,-6.7702,-6.685,-6.6699,-6.6914,-6.6875,-6.6875,-6.6914,-6.6914,-6.6914,-6.6914,-6.6914,-6.6914,-6.6914,-6.6914,-6.6914,-6.6914,-6.6914,-6.6172,-6.5547,-6.5547,-6.4844,-6.3945,-6.3086,-6.274,-6.2262,-6.1433,-6.102,-6.0781,-6.0781,-6.0781,-6.0473,-5.9588,-6.0242,-6.0435,-5.9588,-6.0281,-6.0781,-6.0781,-6.0781,-6.0781,-6.0781,-6.0781,-6.0781,-6.0781,-6.0781,-6.0781,-6.0781,-6.0781,-6.0781,-6.0781,-6.0781,-6.0781,-4.5969,-4.7274,-4.991,-5.5834,-6.2081,-6.6814,-6.6758,-6.5982,-6.5141,-6.4504,-6.2933,-6.152,-6.1263,-6.2231,-6.386,-6.6257,-7.0422,-7.3939,-7.5788,-7.6738,-7.6308,-7.3714,-7.3808,-7.3747,-7.2917,-7.4989,-7.724,-7.9171,-8.0409,-8.1093,-8.1093,-8.1093,-8.1093,-8.1093,-8.1093,-8.1093,-8.1093,-8.1093,-8.0823,-8.0208,-7.8656,-7.8263,-7.8825,-7.6521,-7.5651,-7.5859,-7.4687,-7.3828,-7.3281,-7.2969,-7.23,-7.1485,-7.1485,-7.1242,-7.086,-7.0591,-7.0362,-6.9847,-6.8024,-6.7153,-6.679,-6.5971,-6.627,-6.6797,-6.6211,-6.6445,-6.6914,-6.6914,-6.6914,-6.6914,-6.6914,-6.6914,-6.6914,-6.6914,-6.6914,-6.6914,-6.6914,-6.6211,-6.5586,-6.5586,-6.4883,-6.4219,-6.3906,-6.3169,-6.2224,-6.1118,-6.0877,-6.0781,-6.0781,-6.0781,-6.0704,-6.0396,-6.0627,-6.0666,-6.0396,-6.0627,-6.0781,-6.0781,-6.0781,-6.0781,-6.0781,-6.0781,-6.0781,-6.0781,-6.0781,-6.0781,-6.0781,-6.0781,-6.0781,-6.0819,-6.1396,-6.1358,-4.6305,-5.0575,-5.6599,-6.2498,-6.5902,-6.7753,-6.7536,-6.672,-6.5696,-6.4511,-6.2071,-5.9804,-5.897,-5.9522,-6.0954,-6.3579,-6.7597,-7.1584,-7.4889,-7.5247,-7.4787,-7.3718,-7.3684,-7.3563,-7.3146,-7.4524,-7.6501,-7.9012,-8.0394,-8.1093,-8.1093,-8.0855,-8.075,-8.075,-8.075,-8.075,-8.075,-8.0991,-8.0669,-7.9785,-7.8606,-7.8243,-7.8567,-7.6858,-7.618,-7.6289,-7.5117,-7.4297,-7.3711,-7.3086,-7.23,-7.1485,-7.1485,-7.1242,-7.0898,-7.0898,-7.0706,-7.0194,-6.8413,-6.754,-6.7178,-6.642,-6.6722,-6.7305,-6.7031,-6.7148,-6.7344,-6.7344,-6.7148,-6.6914,-6.6914,-6.6914,-6.6914,-6.6914,-6.6914,-6.6914,-6.6914,-6.6445,-6.6055,-6.6055,-6.5625,-6.5117,-6.4805,-6.3793,-6.2726,-6.1835,-6.1435,-6.1127,-6.0819,-6.0781,-6.0781,-6.0781,-6.0781,-6.0781,-6.0781,-6.0781,-6.0781,-6.0781,-6.0781,-6.0781,-6.0781,-6.0781,-6.0781,-6.0781,-6.0781,-6.0781,-6.0781,-6.0781,-6.0973,-6.1281,-6.182,-6.1781,-5.0849,-5.728,-6.3835,-6.6406,-6.8475,-6.9637,-6.8857,-6.7866,-6.6489,-6.3983,-6.1453,-5.9029,-5.6729,-5.6776,-5.796,-6.0306,-6.3347,-6.7324,-7.2919,-7.1918,-7.1803,-7.4854,-7.2776,-7.1863,-7.3903,-7.4927,-7.6633,-7.9561,-8.0554,-8.1054,-8.1093,-8.0463,-8.0125,-8.0125,-8.0125,-8.0125,-8.0125,-8.0711,-8.0631,-7.9854,-7.9095,-7.8418,-7.7842,-7.7229,-7.7,-7.7109,-7.539,-7.4648,-7.4453,-7.2734,-7.1831,-7.1523,-7.151,-7.1242,-7.0898,-7.0898,-7.0398,-6.9655,-6.877,-6.8643,-6.8786,-6.7956,-6.7975,-6.8398,-6.918,-6.8828,-6.8203,-6.8242,-6.7656,-6.6953,-6.6953,-6.6953,-6.6953,-6.6914,-6.6914,-6.6914,-6.6914,-6.6914,-6.6914,-6.6914,-6.6914,-6.6601,-6.5741,-6.4606,-6.3735,-6.3376,-6.2627,-6.1781,-6.0973,-6.0819,-6.0781,-6.0781,-6.0781,-6.0781,-6.0781,-6.0781,-6.0819,-6.0858,-6.0858,-6.0896,-6.0935,-6.0896,-6.0858,-6.0858,-6.0819,-6.0781,-6.0781,-6.0819,-6.1281,-6.2089,-6.2166,-6.2204,-5.6369,-6.5099,-7.3102,-7.1492,-7.1266,-7.0874,-6.8328,-6.6564,-6.4478,-6.0917,-5.7423,-5.4449,-5.2564,-5.4226,-5.7191,-6.1167,-6.6809,-7.2051,-7.5802,-7.7462,-7.77,-7.601,-7.6799,-7.692,-7.5595,-7.7393,-7.8961,-7.9746,-8.0015,-8.04,-8.1054,-8.0463,-8.0125,-8.0125,-8.0125,-8.0125,-8.0125,-8.0098,-8.0434,-8.0976,-7.902,-7.8387,-7.8945,-7.7669,-7.7055,-7.6912,-7.5973,-7.5111,-7.4296,-7.3203,-7.2236,-7.151,-7.1353,-7.1115,-7.0898,-7.0898,-7.0863,-7.0689,-6.9839,-6.9243,-6.8774,-6.8076,-6.841,-6.914,-6.9336,-6.8828,-6.832,-6.8945,-6.8515,-6.7851,-6.7851,-6.7851,-6.7695,-6.7031,-6.6914,-6.6914,-6.6914,-6.6914,-6.6914,-6.6914,-6.6914,-6.6557,-6.5402,-6.4966,-6.4435,-6.3453,-6.2627,-6.2012,-6.1781,-6.1204,-6.0781,-6.0781,-6.0781,-6.0781,-6.0781,-6.0781,-6.1089,-6.1704,-6.1781,-6.205,-6.2627,-6.2089,-6.1781,-6.1781,-6.1127,-6.0781,-6.0781,-6.1435,-6.1858,-6.2127,-6.3358,-6.3628,-6.3427,-7.0737,-7.6522,-7.3088,-7.2575,-7.1968,-6.7838,-6.5699,-6.3213,-5.8484,-5.4927,-5.2198,-5.0532,-5.2217,-5.5098,-5.8807,-6.426,-6.9672,-7.4409,-7.6284,-7.7323,-7.763,-7.8592,-7.8823,-7.7784,-7.8977,-7.9977,-8.0323,-8.0362,-8.0592,-8.1054,-8.024,-7.9847,-8.0087,-7.9847,-7.9969,-8.0535,-8.0427,-8.0723,-8.1368,-7.9346,-7.8728,-7.9331,-7.7781,-7.7,-7.6841,-7.5606,-7.4718,-7.407,-7.2862,-7.1952,-7.137,-7.1242,-7.1085,-7.0925,-7.1004,-7.1108,-7.1087,-7.0409,-7.0161,-7.0006,-6.9295,-6.9475,-7.0039,-7.043,-6.9961,-6.9375,-6.9844,-6.9375,-6.8711,-6.8711,-6.8476,-6.8086,-6.7578,-6.7187,-6.6914,-6.6914,-6.6914,-6.6914,-6.6914,-6.6832,-6.6644,-6.6279,-6.5814,-6.5407,-6.5009,-6.4016,-6.3141,-6.2794,-6.1604,-6.0781,-6.0781,-6.0781,-6.0781,-6.0781,-6.0781,-6.1166,-6.205,-6.2089,-6.2474,-6.3281,-6.2512,-6.2089,-6.2089,-6.1243,-6.0781,-6.0781,-6.1666,-6.2281,-6.2666,-6.3974,-6.4128,-7.0767,-7.4466,-7.6207,-7.3221,-7.319,-7.2563,-6.7461,-6.4876,-6.1998,-5.6308,-5.3371,-5.1353,-4.9701,-5.0885,-5.3081,-5.616,-6.0026,-6.5064,-7.1937,-7.2976,-7.4707,-7.9246,-7.9246,-7.9131,-7.99,-7.9977,-8.0285,-8.1054,-8.1093,-8.1093,-8.1093,-7.9967,-7.9556,-8.0048,-7.96,-7.9888,-8.1093,-8.1093,-8.1224,-8.1368,-7.9852,-7.9196,-7.9331,-7.766,-7.6833,-7.6583,-7.4781,-7.3922,-7.3659,-7.2103,-7.137,-7.1221,-7.118,-7.1062,-7.0966,-7.1137,-7.1223,-7.1219,-7.0805,-7.1111,-7.1591,-7.0771,-7.0689,-7.1015,-7.1758,-7.1406,-7.0703,-7.0859,-7.0234,-6.957,-6.957,-6.9062,-6.8476,-6.8242,-6.7617,-6.707,-6.707,-6.7148,-6.7226,-6.7226,-6.7047,-6.7087,-6.7502,-6.6872,-6.6397,-6.6871,-6.5694,-6.4521,-6.3689,-6.2081,-6.0965,-6.085,-6.0804,-6.0858,-6.0973,-6.0973,-6.1396,-6.2358,-6.2435,-6.2781,-6.3628,-6.2743,-6.2243,-6.2243,-6.1396,-6.0935,-6.0781,-6.1897,-6.2743,-6.332,-6.432,-6.432,-7.5764,-7.5549,-7.5043,-7.5877,-7.4434,-7.1615,-6.7197,-6.3527,-5.9428,-5.3775,-5.1756,-5.0508,-4.882,-5.0749,-5.4446,-6.0127,-6.3695,-6.8263,-7.5408,-7.6976,-7.7977,-7.9631,-8.0285,-8.0708,-8.0862,-8.0862,-8.0939,-8.1093,-8.1093,-8.1093,-8.1093,-8.0352,-7.9969,-8.0125,-8.0008,-8.0315,-8.1093,-8.1093,-8.1224,-8.1368,-7.9852,-7.9196,-7.9331,-7.766,-7.64,-7.5509,-7.4456,0.0,-7.2676,-7.1669,-7.1223,-7.1201,-7.1029,-7.1053,-7.1158,-7.1201,-7.1397,-7.1603,-7.1526,-7.169,-7.1795,-7.0936,-7.1171,-7.1797,-7.1953,-7.1406,-7.0859,-7.1562,-7.1133,-7.0469,-7.0469,-7.0351,-6.9922,-6.8515,-6.8086,-6.7969,-6.7969,-6.8515,-6.8944,-6.883,-6.8769,-6.8466,-6.7592,-6.729,-6.6938,-6.6217,-6.5346,-6.4521,-6.3689,-6.2664,-6.1774,-6.1059,-6.086,-6.1089,-6.182,-6.1858,-6.2512,-6.4051,-6.4166,-6.4551,-6.5397,-6.3935,-6.3089,-6.3089,-6.2281,-6.1512,-6.0819,-6.3051,-6.3858,-6.3358,-6.4936,-6.5205,-7.8183,-7.7719,-7.7112,-7.7026,-7.4726,-7.1158,-6.5942,-6.155,-5.6985,-5.1525,-4.9932,-4.915,-4.7902,-4.9712,-5.2701,-5.6651,-5.9893,-6.4661,-7.2548,-7.4542,-7.6515,-8.0054,-8.0862,-8.1093,-8.1093,-8.1093,-8.1093,-8.1093,-8.1093,-8.1093,-8.1093,-8.0822,-8.0463,-8.0125,-8.0463,-8.075,-8.1093,-8.1093,-8.1224,-8.1368,-8.0182,-7.9476,-7.9193,-7.7857,-7.6482,-7.5098,-7.4129,-7.3203,-7.2274,-7.14,-7.1038,-7.1038,-7.1038,-7.1131,-7.1223,-7.1388,-7.1555,-7.1696,-7.1811,-7.191,-7.1914,-7.1523,-7.164,-7.1992,-7.1992,-7.1719,-7.1445,-7.1875,-7.1719,-7.1367,-7.1367,-7.1055,-7.0508,-6.9687,-6.914,-6.8828,-6.8828,-6.914,-6.9372,-6.9243,-6.9107,-6.8954,-6.8762,-6.827,-6.7772,-6.7371,-6.6728,-6.5778,-6.4536,-6.4007,-6.3239,-6.1828,-6.1923,-6.2281,-6.2704,-6.2704,-6.3243,-6.4512,-6.4589,-6.4974,-6.5859,-6.4243,-6.332,-6.332,-6.2512,-6.1666,-6.0819,-6.3358,-6.4166,-6.3358,-6.5089,-6.5436,-7.9585,-7.9757,-7.9394,-7.7922,-7.4591,-7.0275,-6.4836,-5.9775,-5.4859,-4.9928,-4.8568,-4.8122,-4.7498,-4.8678,-5.0517,-5.2669,-5.5314,-5.997,-6.8311,-7.0882,-7.4014,-7.9631,-8.0785,-8.1093,-8.1093,-8.1093,-8.1093,-8.1093,-8.1093,-8.1093,-8.1093,-8.1093,-8.0855,-8.0315,-8.0822,-8.1093,-8.1093,-8.1093,-8.1167,-8.131,-8.0314,-7.9541,-7.8993,-7.7873,-7.6372,-7.4707,-7.387,-7.2899,-7.186,-7.121,-7.0966,-7.0979,-7.1201,-7.1299,-7.1348,-7.1819,-7.1897,-7.1802,-7.2146,-7.2148,-7.1992,-7.1992,-7.1992,-7.1992,-7.1992,-7.1992,-7.1992,-7.1992,-7.1992,-7.1992,-7.1992,-7.1484,-7.0937,-7.0742,-7.0195,-6.9687,-6.9687,-6.9844,-6.9918,-6.9724,-6.9585,-6.9546,-6.9825,-6.9239,-6.8613,-6.8393,-6.7961,-6.7046,-6.5336,-6.5258,-6.4726,-6.3029,-6.3097,-6.3397,-6.3551,-6.3589,-6.3935,-6.482,-6.4897,-6.5205,-6.5859,-6.4397,-6.3589,-6.3589,-6.2974,-6.2204,-6.1358,-6.3705,-6.4436,-6.3628,-6.5166,-6.5436,-8.0825,-8.0912,-7.974,-7.9342,-7.4201,-6.8373,-6.5073,-5.9309,-5.3497,-4.9705,-4.8568,-4.8269,-4.8196,-4.8344,-4.9677,-5.3304,-5.4425,-5.7704,-6.5826,-6.927,-7.2668,-7.713,-7.9669,-8.1093,-8.1093,-8.1093,-8.1093,-8.1093,-8.1093,-8.1093,-8.1093,-8.1093,-8.1061,-8.0991,-8.1061,-8.1093,-8.1093,-8.1093,-8.1124,-8.1116,-7.9636,-7.8889,-7.8757,-7.7147,-7.5481,-7.3893,-7.3639,-7.2552,0.0,-7.1147,-7.118,-7.1201,-7.1381,-7.156,-7.1745,-7.2587,-7.2514,-7.2109,-7.289,-7.2656,-7.1992,-7.1992,-7.1992,-7.1992,-7.1992,-7.1992,-7.1992,-7.1992,-7.1992,-7.1992,-7.1992,-7.1953,-7.168,-7.0898,-7.0625,-7.0586,-7.0586,-7.1211,-7.1669,-7.1327,-7.1265,-7.0937,-6.9899,-6.9749,-6.9265,-6.7736,-6.7735,-6.7196,-6.5349,-6.5803,-6.5853,-6.4676,-6.3792,-6.3628,-6.4397,-6.4474,-6.4859,-6.5743,-6.5782,-6.582,-6.5897,-6.4974,-6.4474,-6.4474,-6.4397,-6.3935,-6.3089,-6.4897,-6.532,-6.4512,-6.5474,-6.5436,-8.1201,-8.1012,-7.9705,-7.9277,-7.3275,-6.6795,-6.4345,-5.7793,-5.1624,-4.9371,-4.8568,-4.8159,-4.7682,-4.7609,-4.8051,-4.9603,-5.0408,-5.3164,-5.9931,-6.3176,-6.7359,-7.4207,-7.6784,-7.8823,-8.09,-8.1093,-8.09,-8.0362,-8.0323,-8.0092,-7.9554,-8.0516,-8.1093,-8.1093,-8.1093,-8.1093,-8.1093,-8.1093,-8.1093,-8.1093,-7.9933,-7.9131,-7.859,-7.7433,-7.5967,-7.4308,-7.3763,-7.2854,0.0,-7.1373,-7.128,-7.1381,-7.1572,-7.1963,-7.2555,-7.3026,-7.3356,-7.3555,-7.3359,-7.3086,-7.2695,-7.2187,-7.1992,-7.1992,-7.1992,-7.1992,-7.1992,-7.1992,-7.1992,-7.1992,-7.1992,-7.1992,-7.1914,-7.1562,-7.1484,-7.1484,-7.1484,-7.1758,-7.1903,-7.1587,-7.156,-7.1381,-7.0555,-7.0676,-7.0471,-6.9267,-6.9202,-6.8833,-6.7554,-6.7557,-6.7309,-6.6306,-6.5394,-6.5013,-6.5359,-6.5397,-6.5513,-6.5859,-6.5897,-6.5897,-6.5897,-6.5051,-6.4589,-6.4589,-6.4589,-6.4166,-6.332,-6.5051,-6.5705,-6.5397,-6.6244,-6.6436,-8.1323,-8.1037,-7.959,-7.871,-7.2255,-6.5639,-6.3539,-5.6694,-5.0446,-4.9148,-4.8568,-4.8122,-4.7572,-4.7462,-4.7388,-4.7168,-4.7839,-5.0237,-5.529,-5.8241,-6.249,-6.964,-7.1975,-7.4553,-7.8477,-7.9977,-8.0362,-7.9477,-7.9438,-7.9246,-7.89,-8.0054,-8.0708,-8.0708,-8.0977,-8.1093,-8.1093,-8.1093,-8.0977,-8.0708,-7.9823,-7.8977,-7.813,-7.7284,-7.6092,-7.4668,-7.3894,-7.3148,0.0,-7.1646,-7.1559,-7.1961,-7.2125,-7.27,-7.3525,-7.3905,-7.4297,-7.4492,-7.3906,-7.3515,-7.3164,-7.2265,-7.1992,-7.1992,-7.1992,-7.1836,-7.168,-7.1914,-7.1992,-7.1992,-7.1992,-7.1992,-7.1992,-7.1992,-7.2187,-7.2305,-7.207,-7.2422,-7.253,-7.1721,-7.1837,-7.1877,-7.1197,-7.1317,-7.1226,-7.0419,-7.0227,-6.9876,-6.8994,-6.8735,-6.8309,-6.7539,-6.6974,-6.6436,-6.5936,-6.5897,-6.5897,-6.5897,-6.5897,-6.5897,-6.5897,-6.532,-6.4974,-6.4974,-6.4974,-6.4666,-6.4089,-6.5551,-6.6244,-6.6282,-6.709,-6.7475,-8.1311,-8.1044,-7.9412,-7.7708,-7.1284,-6.4742,-6.2687,-5.6288,-5.0446,-4.9148,-4.8568,-4.8306,-4.8306,-4.8306,-4.8049,-4.7241,-4.8085,-4.9936,-5.3029,-5.5912,-5.914,-6.2949,-6.4936,-6.8013,-7.3091,-7.7361,-7.9438,-7.8592,-7.8515,-7.89,-7.9746,-7.9823,-7.9823,-7.9823,-8.0669,-8.1093,-8.1093,-8.1093,-8.0669,-7.9823,-7.8938,-7.8092,-7.7284,-7.6399,-7.5515,-7.4658,-7.3992,-7.3214,0.0,-7.1905,-7.2197,-7.299,-7.3199,-7.3828,-7.4687,-7.5547,-7.5312,-7.4609,-7.4609,-7.4023,-7.3164,-7.2265,-7.1992,-7.1992,-7.1992,-7.1406,-7.0898,-7.1758,-7.1992,-7.1992,-7.1992,-7.1992,-7.1992,-7.1992,-7.2656,-7.3047,-7.2187,-7.3359,-7.3981,-7.206,-7.2392,-7.2674,-7.1667,-7.1523,-7.1264,-7.0622,-7.0336,-6.9876,-6.8994,-6.8735,-6.8541,-6.8385,-6.8398,-6.7705,-6.6051,-6.5897,-6.5897,-6.5897,-6.5897,-6.5897,-6.5897,-6.5897,-6.5897,-6.5897,-6.5897,-6.5859,-6.5859,-6.6667,-6.709,-6.709,-6.7975,-6.8398,-7.5569,-7.8443,-7.7961,-7.7423,-7.2043,-6.5811,-6.1431,-5.5417,-5.0695,-5.0264,-5.0112,-4.9929,-4.9565,-4.9527,-4.9452,-4.9193,-4.9683,-5.0447,-5.1428,-5.654,-6.1447,-6.468,-7.1706,-7.6707,-7.7707,-7.9015,-7.9438,-7.8554,-7.8477,-7.8631,-7.89,-7.9477,-8.0092,-8.0669,-8.0977,-8.1093,-8.1093,-8.1093,-8.0669,-7.9785,-7.89,-7.8092,-7.7246,-7.5784,-7.5284,-7.5543,-7.4301,-7.3995,-7.4328,-7.3076,-7.2817,-7.3197,-7.328,-7.3828,-7.4648,-7.4922,-7.5195,-7.5312,-7.4101,-7.3515,-7.3164,-7.2265,-7.1992,-7.1992,-7.1992,-7.1797,-7.164,-7.1914,-7.1992,-7.1992,-7.1992,-7.2422,-7.289,-7.289,-7.3555,-7.4101,-7.3828,-7.4219,-7.4372,-7.3621,-7.3334,-7.3017,-7.2471,-7.208,-7.1702,-7.1232,-7.1122,-7.0922,-7.0541,-7.0281,-6.9926,-6.936,-6.9283,-6.8821,-6.7705,-6.7628,-6.7359,-6.6744,-6.6705,-6.6474,-6.5897,-6.5897,-6.5897,-6.5897,-6.5897,-6.5897,-6.5897,-6.6705,-6.7705,-6.8898,-6.9167,-6.9283,-6.5469,-6.824,-6.8194,-6.8173,-6.7494,-6.5766,-6.1735,-5.5454,-5.0512,-5.0512,-5.0141,-4.982,-4.9668,-4.966,-4.966,-4.966,-4.9856,-5.0353,-5.126,-5.6223,-6.1153,-6.4962,-7.2706,-7.7284,-7.6092,-7.7746,-7.8631,-7.8092,-7.8054,-7.8323,-7.8977,-7.9515,-8.0208,-8.1054,-8.1093,-8.1093,-8.1093,-8.0785,-8.0169,-7.9285,-7.8438,-7.7438,-7.6284,-7.5207,-7.484,-7.508,-7.3876,-7.3783,0.0,-7.3498,-7.339,-7.3828,-7.414,-7.4805,-7.5547,-7.5195,-7.543,-7.5664,-7.3906,-7.3281,-7.3164,-7.2265,-7.1992,-7.1992,-7.1992,-7.1992,-7.1914,-7.1601,-7.1992,-7.25,-7.25,-7.3125,-7.3789,-7.3789,-7.4453,-7.5,-7.4687,-7.5117,-7.5233,-7.4123,-7.3863,-7.3511,-7.265,-7.2149,-7.1854,-7.1706,-7.1511,-7.1387,-7.1335,-7.1062,-7.0706,-7.0206,-7.0167,-6.9937,-6.9398,-6.8783,-6.8167,-6.7628,-6.759,-6.7205,-6.6397,-6.6359,-6.6205,-6.5897,-6.6205,-6.6359,-6.6359,-6.7821,-6.9244,-7.0629,-7.0629,-7.0629,0.0,-5.3217,-5.3278,-5.3447,-5.9042,-6.4058,-6.2464,-5.596,0.0,-5.0076,-4.9229,-4.8606,-4.899,-4.9052,-4.909,-4.9057,-4.9057,-4.9881,-5.2269,-5.5676,-5.9726,-6.4603,-6.964,-7.1975,-7.0052,-7.4361,-7.7323,-7.7361,-7.74,-7.813,-7.9823,-7.99,-8.0246,-8.1054,-8.1054,-8.1016,-8.1016,-8.0131,-7.9285,-7.84,-7.7669,-7.6399,-7.4707,-7.4658,-7.4308,-7.3661,-7.3068,-7.2908,-7.3094,-7.3392,-7.3906,-7.4609,-7.5469,-7.625,-7.6836,-7.6015,-7.5703,-7.5469,-7.3789,-7.3203,-7.3086,-7.2265,-7.1992,-7.1992,-7.1992,-7.1992,-7.1836,-7.1094,-7.2031,-7.332,-7.3398,-7.4023,-7.4687,-7.4687,-7.5351,-7.5781,-7.4961,-7.6055,-7.6484,-7.4062,-7.418,-7.418,-7.2578,-7.2014,-7.1875,-7.2106,-7.1665,-7.1358,-7.1544,-7.1231,-7.0975,-7.0898,-7.0898,-7.0898,-7.0898,-6.9475,-6.8552,-6.8513,-6.8513,-6.809,-6.7244,-6.7167,-6.6821,-6.609,-6.6859,-6.7321,-6.7359,-6.9821,-7.1437,-7.2283,-7.2283,-7.2283,-5.3222,0.0,-5.3781,-5.6263,-5.6463,-5.5919,0.0,-5.3896,-5.2085,-5.0787,-5.0328,-5.0241,-5.0647,-5.073,-5.0647,-5.0327,-5.0296,-5.1035,-5.3199,-6.0777,-6.724,-7.0348,-7.5065,-7.6322,-7.2014,-7.5053,-7.7553,-7.8169,-7.8207,-7.8977,-8.0708,-8.0785,-8.09,-8.1093,-8.0439,-8.0131,-8.0131,-7.9246,-7.84,-7.7592,-7.74,-7.6399,-7.4668,-7.4166,-7.3844,-7.3721,-7.3847,-7.393,-7.4077,-7.4915,-7.4609,-7.3672,-7.457,-7.4609,-7.418,-7.3984,-7.3906,-7.375,-7.2695,-7.2305,-7.2265,-7.207,-7.1992,-7.1992,-7.1992,-7.1992,-7.2109,-7.2578,-7.2969,-7.3437,-7.4101,-7.4922,-7.5586,-7.5586,-7.625,-7.6836,-7.664,-7.6914,-7.7031,-7.6406,-7.5898,-7.5469,-7.5039,-7.3826,-7.3065,-7.3456,-7.286,-7.2284,-7.2066,-7.1968,-7.1629,-7.0975,-7.0898,-7.0898,-7.0898,-7.0552,-7.0052,-6.9436,-6.9398,-6.9013,-6.8129,-6.809,-6.8013,-6.7821,-6.8667,-6.9398,-7.0014,-7.1283,-7.2322,-7.3206,-7.3206,-7.3206,-5.5016,-5.5427,-5.5802,-5.758,-5.5551,-5.3207,-5.3198,-5.2044,-5.0897,-5.075,-5.0501,-5.0401,-5.0627,-5.1002,-5.1052,-5.0279,-5.1096,-5.3005,-5.622,-6.2255,-6.7753,-7.1655,-7.4612,-7.5707,-7.4091,-7.563,-7.7207,-7.84,-7.8477,-7.9246,-8.1016,-8.1093,-8.0939,-8.0516,-7.9669,-7.9208,-7.9208,-7.7977,-7.6938,-7.6092,-7.6092,-7.5207,-7.3553,-7.3659,-7.3568,-7.3311,-7.3563,-7.3744,-7.3967,-7.5311,-7.4883,-7.3437,-7.4687,-7.4648,-7.3867,-7.3437,-7.3281,-7.3164,-7.2305,-7.1992,-7.1992,-7.1992,-7.1992,-7.1992,-7.1992,-7.2265,-7.2695,-7.3164,-7.3867,-7.4609,-7.5078,-7.5859,-7.6484,-7.6484,-7.6875,-7.7187,-7.7187,-7.7187,-7.707,-7.668,-7.6211,-7.5781,-7.5351,-7.4531,-7.398,-7.4226,-7.3726,-7.3223,-7.3041,-7.288,-7.2476,-7.1591,-7.186,-7.1937,-7.1514,-7.186,-7.1745,-7.0898,-7.1206,-7.086,-6.959,-6.9552,-6.9552,-6.9552,-7.0398,-7.1437,-7.2629,-7.3129,-7.3591,-7.4053,-7.4053,-7.4053,-5.7279,-5.7978,-5.8023,-5.8024,-5.5588,-5.32,-5.3198,-5.0675,-4.8785,-5.038,-5.0151,-4.9787,-5.0193,-5.0722,-5.0812,-5.0014,-5.2253,-5.573,-6.0397,-6.3199,-6.6368,-7.0861,-7.2318,-7.3553,-7.5091,-7.5707,-7.663,-7.8207,-7.8323,-7.9054,-8.0823,-8.0785,-8.0439,-7.9823,-7.8707,-7.8054,-7.79,-7.6515,-7.5361,-7.4514,-7.4514,-7.3735,-7.2276,-7.317,-7.3195,-7.2666,-7.2924,0.0,-7.3242,-7.4961,-7.4687,-7.3242,-7.4883,-7.4961,-7.4101,-7.3359,-7.3086,-7.3008,-7.2265,-7.1992,-7.1992,-7.1992,-7.1992,-7.1992,-7.1992,-7.2695,-7.3515,-7.3515,-7.4648,-7.5937,-7.6055,-7.664,-7.7187,-7.7187,-7.7187,-7.7187,-7.7187,-7.7187,-7.6992,-7.625,-7.6094,-7.5859,-7.5117,-7.4883,-7.4843,-7.4959,-7.4507,-7.4194,-7.4164,-7.386,-7.336,-7.2476,-7.3053,-7.3206,-7.2476,-7.3322,-7.3514,-7.2629,-7.3168,-7.286,-7.136,-7.1283,-7.1283,-7.1283,-7.2129,-7.3283,-7.4707,-7.4822,-7.4976,-7.5091,-7.5091,-7.5168,-5.7892,-5.8006,-5.8004,-5.8002,-5.5588,-5.3213,-5.3198,-5.0674,-4.8765,-5.0385,-4.9556,-4.9273,-5.1579,-5.0964,-5.0444,-5.145,-5.5359,-5.9992,-6.4843,-6.9057,-7.1319,-7.0637,-7.4121,-7.5245,-7.2014,-7.4284,-7.6399,-7.74,-7.7476,-7.8207,-7.99,-7.9285,-7.9169,-7.9785,-7.7592,-7.6015,-7.5284,-7.5014,-7.4476,-7.3668,-7.3668,-7.3253,-7.2474,-7.2729,-7.251,-7.1909,0.0,-7.2851,-7.2344,-7.4062,-7.3789,-7.2305,-7.332,-7.3164,-7.2383,-7.2265,-7.2187,-7.2187,-7.2031,-7.1992,-7.1992,-7.1992,-7.1992,-7.1992,-7.1992,-7.3125,-7.4414,-7.4414,-7.5117,-7.6055,-7.6797,-7.7109,-7.7187,-7.7187,-7.7187,-7.7187,-7.7187,-7.7187,-7.7148,-7.7031,-7.6992,-7.6953,-7.6836,-7.6172,-7.5895,-7.6438,-7.5736,-7.5043,-7.4887,-7.4667,-7.4207,-7.3399,-7.3437,-7.3437,-7.3322,-7.4707,-7.5245,-7.4361,-7.3822,-7.3399,-7.3129,-7.3091,-7.3091,-7.3091,-7.3899,-7.4437,-7.4707,-7.5438,-7.6169,-7.6899,-7.6899,-7.7284,-5.7994,-5.6703,-5.6694,-6.1908,-5.8179,-5.3198,-5.3176,-5.2048,-5.0879,-5.0745,-4.9366,-4.9255,-5.278,-5.2984,-5.3812,-5.7604,-5.9486,-6.1702,-6.5149,-6.761,-6.9359,-7.0232,-7.2837,-7.4322,-7.3707,-7.5091,-7.6361,-7.7207,-7.7284,-7.7823,-7.9015,-7.8707,-7.8284,-7.7746,-7.6592,-7.5168,-7.336,-7.336,-7.2937,-7.2091,-7.2662,-7.2561,-7.1802,-7.2549,-7.2695,-7.2438,0.0,-7.3086,-7.2812,-7.4062,-7.3555,-7.2109,-7.2969,-7.2773,-7.1992,-7.1992,-7.1992,-7.1992,-7.1992,-7.1992,-7.1992,-7.1992,-7.1992,-7.2109,-7.2578,-7.3594,-7.4687,-7.5156,-7.5937,-7.668,-7.7109,-7.7187,-7.7187,-7.7187,-7.7187,-7.7187,-7.7187,-7.7187,-7.7187,-7.7187,-7.7187,-7.7187,-7.7187,-7.6875,-7.6718,-7.7019,-7.6469,-7.5969,-7.5871,-7.5591,-7.5091,-7.4245,-7.4976,-7.5168,-7.4245,-7.613,-7.6976,-7.6169,-7.4861,-7.4168,-7.4168,-7.4168,-7.4361,-7.4861,-7.5668,-7.6092,-7.6092,-7.6515,-7.6899,-7.7284,-7.7284,-7.7707,-5.7986,-5.5668,-5.4993,-6.2443,-5.9255,-5.4292,-5.4334,-5.4313,-5.3853,-5.2188,-4.9532,-4.8552,-5.1973,-5.3513,-5.6191,-6.1773,-6.2817,-6.3891,-6.6724,-6.7535,-6.8791,-7.1422,-7.2502,-7.3783,-7.5515,-7.5707,-7.5899,-7.6361,-7.6399,-7.6746,-7.7553,-7.7438,-7.6823,-7.5745,-7.5322,-7.4168,-7.2206,-7.1826,-7.1428,-7.0992,-7.1811,-7.1901,-7.1331,-7.2267,-7.2711,-7.2778,-7.2927,-7.3008,-7.3047,-7.3711,-7.3203,-7.207,-7.2734,-7.2578,-7.1992,-7.1992,-7.1992,-7.1992,-7.1992,-7.1992,-7.1992,-7.1992,-7.1992,-7.2148,-7.3047,-7.3906,-7.4765,-7.5664,-7.6523,-7.7187,-7.7187,-7.7187,-7.7187,-7.7187,-7.7187,-7.7265,-7.7461,-7.75,-7.7578,-7.7734,-7.7773,-7.7734,-7.7539,-7.75,-7.7422,-7.7184,-7.6839,-7.6645,-7.6832,-7.6529,-7.613,-7.563,-7.6784,-7.713,-7.5976,-7.7515,-7.8323,-7.79,-7.6438,-7.5592,-7.5592,-7.5592,-7.5899,-7.6553,-7.7246,-7.7592,-7.7592,-7.7592,-7.7669,-7.79,-7.79,-7.8323,-5.8002,-5.5651,-5.3334,-5.4085,-5.5975,-5.7654,-5.7657,-5.7666,-5.7229,-5.5655,-5.0253,-4.6132,-4.7305,-5.0272,-5.4275,-5.9505,-6.3979,-6.8406,-7.2956,-7.4104,-7.4787,-7.574,-7.5775,-7.5476,-7.4861,-7.4784,-7.4514,-7.3822,-7.3783,-7.413,-7.4938,-7.4284,-7.4168,-7.4784,-7.3283,-7.2399,-7.2206,-7.0753,-7.0444,-7.118,-7.1239,-7.142,-7.1667,-7.176,-7.1885,-7.207,-7.2109,-7.2109,-7.2109,-7.2148,-7.2109,-7.1992,-7.207,-7.207,-7.1992,-7.1992,-7.1992,-7.1992,-7.1992,-7.1992,-7.1992,-7.1992,-7.1992,-7.2148,-7.3047,-7.3906,-7.4765,-7.5664,-7.6523,-7.7187,-7.7187,-7.7187,-7.7187,-7.7187,-7.7187,-7.7422,-7.8242,-7.8398,-7.8633,-7.9375,-7.9531,-7.9297,-7.8555,-7.8398,-7.8083,-7.7062,-7.6738,-7.6816,-7.7444,-7.7344,-7.7476,-7.813,-7.8323,-7.8669,-7.9361,-7.8861,-7.8823,-7.9592,-7.8746,-7.8207,-7.8207,-7.8207,-7.8246,-7.8323,-7.8361,-7.84,-7.84,-7.84,-7.8823,-7.9631,-7.9631,-8.0092,-5.7994,-5.5633,-5.3215,-5.3198,-5.4122,-5.5009,-5.5036,-5.9701,-6.3871,-6.331,-6.0543,-5.5907,-4.839,-5.0226,-5.554,-6.3547,-6.8828,-7.2557,-7.4332,-7.5361,-7.5962,-7.6082,-7.6041,-7.5668,-7.4784,-7.4245,-7.3591,-7.2745,-7.2706,-7.2591,-7.236,-7.2552,-7.2591,-7.236,-7.1706,-7.1168,-7.0667,-6.9617,-6.9304,-6.9772,-7.0447,-7.1097,-7.1689,-7.1815,-7.1949,-7.1992,-7.1992,-7.1992,-7.1992,-7.1992,-7.1992,-7.1992,-7.1992,-7.1992,-7.1992,-7.1992,-7.1992,-7.1992,-7.1992,-7.1992,-7.1992,-7.1992,-7.1992,-7.2265,-7.3672,-7.4336,-7.4883,-7.6328,-7.6953,-7.7187,-7.7187,-7.7187,-7.7187,-7.7187,-7.7617,-7.8086,-7.8437,-7.8906,-7.9336,-7.9648,-7.9687,-7.9609,-7.9297,-7.9258,-7.9058,-7.8533,-7.8285,-7.8215,-7.8331,-7.8166,-7.8169,-7.8477,-7.8477,-7.9054,-8.0477,-7.9823,-7.9669,-8.0554,-7.9285,-7.8477,-7.8477,-7.8477,-7.8746,-7.9285,-7.9323,-7.9323,-7.9323,-7.9323,-7.9477,-7.9823,-7.9823,-8.0285,-5.8023,-5.6392,-5.5222,-5.7271,-5.5448,-5.2926,-5.1874,-6.0774,-6.9231,-6.924,-6.8296,-6.4191,-5.3345,-5.1528,-5.4464,-6.299,-6.9577,-7.3954,-7.5,-7.5527,-7.5704,-7.5601,-7.5361,-7.4745,-7.363,-7.3014,-7.2206,-7.1091,-7.1014,-7.0744,-7.0129,-7.0667,-7.0744,-7.0129,-7.0129,-6.9874,-6.9359,-6.8645,-6.8529,-6.8989,-6.9777,-7.0592,-7.1416,-7.1794,-7.1992,-7.1992,-7.1992,-7.1992,-7.1992,-7.1992,-7.1992,-7.1992,-7.1992,-7.1992,-7.1992,-7.1992,-7.1992,-7.1992,-7.1992,-7.1992,-7.1992,-7.1992,-7.1992,-7.2344,-7.4062,-7.4609,-7.4961,-7.6719,-7.7187,-7.7187,-7.7187,-7.7187,-7.7265,-7.7539,-7.8086,-7.8633,-7.918,-7.9726,-8.0195,-8.0469,-8.0508,-8.0429,-8.0156,-8.0117,-7.9915,-7.9383,-7.9196,-7.9092,-7.9119,-7.897,-7.9015,-7.9285,-7.9323,-7.9785,-8.1016,-8.0554,-8.0477,-8.1054,-7.9977,-7.9323,-7.9323,-7.9323,-7.9592,-8.0208,-8.0208,-8.0208,-8.0208,-8.0208,-8.0208,-8.0208,-8.0208,-8.0516,-5.7978,-5.8002,-5.9553,-6.597,-6.033,-5.2408,-4.921,-6.0941,-7.252,-7.2507,-7.1681,-6.883,-6.2063,-5.4019,-5.034,-5.6293,-6.4929,-7.2138,-7.5533,-7.5053,-7.4437,-7.4668,-7.3976,-7.2822,-7.1052,-7.0898,-7.0167,-6.8513,-6.8398,-6.8398,-6.8398,-6.8398,-6.8398,-6.8398,-6.8398,-6.8434,-6.8607,-6.7922,-6.8132,-6.9192,-6.9328,-6.9844,-7.0742,-7.1601,-7.1992,-7.1992,-7.1992,-7.1992,-7.1992,-7.1992,-7.1992,-7.1992,-7.1992,-7.1992,-7.1992,-7.1992,-7.1992,-7.1992,-7.1992,-7.1992,-7.1992,-7.1992,-7.1992,-7.2344,-7.4062,-7.4609,-7.4961,-7.6719,-7.7187,-7.7187,-7.7187,-7.7187,-7.7422,-7.8281,-7.8515,-7.8984,-8.0625,-8.1015,-8.1289,-8.2148,-8.2304,-8.2031,-8.1172,-8.1015,-8.057,-7.9325,-7.9112,-7.9291,-7.9759,-7.9823,-8.0131,-8.1016,-8.1093,-8.1093,-8.1093,-8.1093,-8.1093,-8.1093,-8.1093,-8.1093,-8.1093,-8.1093,-8.1093,-8.1093,-8.1093,-8.1093,-8.1093,-8.1093,-8.1093,-8.1093,-8.1093,-8.1093,-5.7684,-5.7997,-5.7904,-5.7556,-5.7042,-5.7534,-6.1142,-6.7432,-7.3157,-7.5425,-7.3225,-6.8816,-6.2075,-5.9526,-6.0319,-6.5906,-7.1114,-7.4841,-7.5851,-7.5726,-7.5082,-7.4004,-7.2552,-7.1475,-7.0964,-6.9821,-6.8667,-6.7552,-6.7475,-6.7244,-6.6667,-6.7167,-6.7475,-6.7475,-6.7618,-6.7733,-6.7774,-6.719,-6.7056,-6.7397,-6.8197,-6.9297,-7.0742,-7.1601,-7.1992,-7.1992,-7.1992,-7.1992,-7.1992,-7.1992,-7.1992,-7.1992,-7.1992,-7.1992,-7.1992,-7.1992,-7.1992,-7.1992,-7.1992,-7.1992,-7.1992,-7.1992,-7.1992,-7.2344,-7.4062,-7.4609,-7.4961,-7.6719,-7.7187,-7.7187,-7.7187,-7.7187,-7.7422,-7.8281,-7.8945,-7.9648,-8.0742,-8.1484,-8.1992,-8.2265,-8.2304,-8.2226,-8.1953,-8.1914,-8.1751,-8.1226,-8.1119,-8.1077,-8.0933,-8.081,-8.0823,-8.1054,-8.1093,-8.1093,-8.1093,-8.1093,-8.1093,-8.1093,-8.1093,-8.1093,-8.1093,-8.1093,-8.1093,-8.1093,-8.1093,-8.1093,-8.1093,-8.1093,-8.1093,-8.1093,-8.1093,-8.1093,-5.7757,-5.7061,-5.5915,-5.5301,-5.8519,-6.3209,-6.8431,-6.9141,-7.0213,-7.5656,-7.4729,-7.1697,-6.7598,-6.7505,-6.9135,-7.2378,-7.4657,-7.5523,-7.4197,-7.3966,-7.3878,-7.3532,-7.1349,-6.9655,-6.9001,-6.8001,-6.6898,-6.5667,-6.5897,-6.5897,-6.5397,-6.6167,-6.6486,-6.6183,-6.6281,-6.6433,-6.6553,-6.6243,-6.6282,-6.6735,-6.7732,-6.8711,-6.9726,-7.0625,-7.1015,-7.1015,-7.0976,-7.0976,-7.1015,-7.1015,-7.0976,-7.0976,-7.0976,-7.1172,-7.1484,-7.1484,-7.1719,-7.1992,-7.1992,-7.1992,-7.1992,-7.1992,-7.1992,-7.2344,-7.4062,-7.4609,-7.4961,-7.6719,-7.7187,-7.7187,-7.7187,-7.7187,-7.7461,-7.8584,-7.9294,-7.9999,-8.1162,-8.1872,-8.2304,-8.2304,-8.2304,-8.2304,-8.2304,-8.2304,-8.2219,-8.1909,-8.1725,-8.1543,-8.1298,-8.1167,-8.1093,-8.1093,-8.1093,-8.1093,-8.1093,-8.1093,-8.1093,-8.1093,-8.1093,-8.1093,-8.1093,-8.1093,-8.1093,-8.1093,-8.1093,-8.1093,-8.1093,-8.1093,-8.1093,-8.1093,-8.1439,-8.1593,-5.7262,-5.5432,-5.4419,-5.7619,-6.3319,-6.8919,-7.1817,-6.7679,-6.5679,-7.4258,-7.6,-7.5994,-7.6016,-7.5994,-7.5918,-7.5595,-7.581,-7.483,-7.1381,-7.064,-7.1041,-7.2596,-7.0028,-6.7462,-6.5628,-6.5538,-6.4922,-6.3358,-6.4012,-6.4474,-6.4474,-6.523,-6.5373,-6.4716,-6.4733,-6.4867,-6.5205,-6.5217,-6.5759,-6.6797,-6.75,-6.789,-6.8008,-6.9023,-6.9492,-6.9492,-6.9414,-6.9414,-6.9492,-6.9492,-6.9453,-6.9414,-6.9414,-6.9883,-7.0586,-7.0586,-7.1133,-7.1875,-7.1875,-7.1914,-7.1992,-7.1992,-7.1992,-7.2344,-7.4062,-7.4609,-7.4961,-7.6719,-7.7187,-7.7187,-7.7187,-7.7187,-7.7575,-7.904,-7.9551,-8.0115,-8.1669,-8.2171,-8.2304,-8.2304,-8.2304,-8.2304,-8.2304,-8.2304,-8.2171,-8.1805,-8.1383,-8.1116,-8.1116,-8.1124,-8.1093,-8.1093,-8.1093,-8.1093,-8.1093,-8.1093,-8.1093,-8.1093,-8.1093,-8.1093,-8.1093,-8.1093,-8.1093,-8.1093,-8.1093,-8.1093,-8.1093,-8.117,-8.1208,-8.1246,-8.2054,-8.2401,-5.1774,-5.3588,-5.7729,-6.0943,-6.6659,-7.1637,-7.2355,-6.9434,-6.8397,-7.471,-7.6025,-7.5994,-7.5985,-7.6005,-7.512,-7.2409,-7.4245,-7.4819,-7.1398,-6.8641,-6.7128,-6.75,-6.6885,-6.5268,-6.2194,-6.2719,-6.3065,-6.2719,-6.3218,-6.3589,-6.3589,-6.3913,-6.4019,-6.3844,-6.4117,-6.4302,-6.4346,-6.4477,-6.4959,-6.5859,-6.539,-6.5508,-6.6211,-6.8437,-6.9453,-6.9492,-6.9414,-6.9414,-6.9414,-6.9414,-6.9453,-6.9453,-6.9414,-6.9492,-6.9687,-6.9726,-7.0273,-7.0976,-7.0976,-7.1445,-7.1992,-7.1992,-7.1992,-7.2344,-7.4062,-7.4609,-7.4961,-7.6719,-7.7187,-7.7187,-7.7187,-7.7187,-7.7575,-7.904,-7.9551,-8.0156,-8.1872,-8.2265,-8.2304,-8.2304,-8.2304,-8.2304,-8.2304,-8.2304,-8.2219,-8.1976,-8.16,-8.1349,-8.1349,-8.1224,-8.1093,-8.1093,-8.1093,-8.1093,-8.1093,-8.1093,-8.1093,-8.1093,-8.1093,-8.1093,-8.1093,-8.1093,-8.1093,-8.1093,-8.1093,-8.1093,-8.1093,-8.1747,-8.2054,-8.2054,-8.2901,-8.3324,-5.3441,-5.6539,-6.1434,-6.625,-6.9963,-7.2463,-7.2483,-7.0016,-6.8805,-7.2768,-7.3548,-7.3553,-7.3542,-7.3542,-7.2976,-7.1217,-7.2388,-7.2377,-6.8987,-6.6987,-6.5295,-6.3655,-6.3449,-6.2781,-6.0964,-6.1334,-6.168,-6.168,-6.195,-6.2329,-6.2909,-6.3265,-6.3524,-6.3677,-6.367,-6.3427,-6.295,-6.3435,-6.4101,-6.4961,-6.4531,-6.4531,-6.5039,-6.6797,-6.7812,-6.8242,-6.8203,-6.8203,-6.8203,-6.8203,-6.8203,-6.8242,-6.8203,-6.8711,-6.9453,-6.9492,-7.0273,-7.1328,-7.1328,-7.1601,-7.1992,-7.1992,-7.1992,-7.2344,-7.4062,-7.4609,-7.4961,-7.6719,-7.7187,-7.7187,-7.7187,-7.75,-7.8124,-7.9281,-7.9604,-8.0155,-8.1784,-8.2221,-8.2304,-8.2304,-8.2304,-8.2265,-8.2171,-8.1992,-8.1844,-8.1749,-8.1458,-8.1231,-8.1231,-8.1137,-8.1093,-8.1093,-8.1093,-8.1093,-8.1093,-8.1439,-8.167,-8.167,-8.2054,-8.2285,-8.2285,-8.2285,-8.2093,-8.167,-8.2093,-8.2285,-8.2285,-8.2708,-8.2901,-8.2939,-8.3824,-8.4439,-5.5601,-5.987,-6.4938,-7.0344,-7.2097,-7.2372,-7.1784,-6.9174,-6.7476,-6.9579,-7.0052,-7.02,-7.0777,-7.0441,-7.0249,-7.0815,-7.0392,-6.9075,-6.6281,-6.591,-6.4603,-6.1223,-6.081,-6.0796,-6.0796,-6.0819,-6.0781,-6.0781,-6.0827,-6.1208,-6.218,-6.2676,-6.3068,-6.3371,-6.3032,-6.2478,-6.1719,-6.2422,-6.3203,-6.4062,-6.4062,-6.4062,-6.4101,-6.4805,-6.5625,-6.6445,-6.6445,-6.6445,-6.6445,-6.6601,-6.668,-6.668,-6.6836,-6.7773,-6.9062,-6.9219,-7.0234,-7.1562,-7.1719,-7.1875,-7.1992,-7.1992,-7.2109,-7.2539,-7.4101,-7.4726,-7.5156,-7.6758,-7.7187,-7.7187,-7.7187,-7.7851,-7.8711,-7.9492,-7.9805,-8.0311,-8.1759,-8.2175,-8.2304,-8.2304,-8.2265,-8.2175,-8.1984,-8.1653,-8.1407,-8.1407,-8.1242,-8.1093,-8.1093,-8.1093,-8.1093,-8.1093,-8.1093,-8.117,-8.1285,-8.19,-8.2362,-8.2516,-8.3208,-8.3593,-8.3593,-8.3747,-8.3478,-8.2747,-8.3324,-8.3593,-8.3593,-8.3747,-8.3901,-8.4055,-8.4939,-8.5786,-4.9471,-5.8153,-6.7271,-6.8145,-7.0441,-7.1747,-6.9008,-6.5801,-6.4056,-6.6172,-6.6592,-6.7467,-7.0369,-6.8553,-6.7528,-7.0451,-6.847,-6.6391,-6.5961,-6.5884,-6.4614,-6.1219,-6.0796,-6.0819,-6.0819,-6.0781,-6.0781,-6.0781,-6.0789,-6.0884,-6.1036,-6.139,-6.1595,-6.1621,-6.1785,-6.1835,-6.1719,-6.1836,-6.2305,-6.3164,-6.3164,-6.3164,-6.3164,-6.3281,-6.3828,-6.4648,-6.4648,-6.4648,-6.4726,-6.5469,-6.5781,-6.5859,-6.6601,-6.7031,-6.7344,-6.8086,-6.8945,-6.9844,-7.0625,-7.1367,-7.1992,-7.1992,-7.25,-7.332,-7.4297,-7.5117,-7.5937,-7.6914,-7.7187,-7.7187,-7.7187,-7.7851,-7.8711,-7.9492,-8.0273,-8.1094,-8.2069,-8.2265,-8.2304,-8.2304,-8.2171,-8.1976,-8.1753,-8.1543,-8.1407,-8.1407,-8.1242,-8.1093,-8.1093,-8.1093,-8.1093,-8.1093,-8.1093,-8.1362,-8.2093,-8.2247,-8.2631,-8.3362,-8.3516,-8.3593,-8.3593,-8.4324,-8.467,-8.4555,-8.3939,-8.3593,-8.3593,-8.4362,-8.5093,-8.5786,-8.6671,-8.7517,-5.0538,-5.6528,-6.3146,-6.6806,-6.736,-6.668,-6.5296,-6.4586,-6.4196,-6.4177,-6.4633,-6.5689,-6.773,-6.7452,-6.6777,-6.6412,-6.6097,-6.5902,-6.591,-6.4268,-6.2474,-6.0988,-6.0819,-6.0781,-6.0781,-6.0804,-6.0795,-6.0789,-6.0788,-6.0802,-6.0795,-6.1261,-6.152,-6.1511,-6.1639,-6.1719,-6.1719,-6.1719,-6.1875,-6.2265,-6.2265,-6.2265,-6.2265,-6.2265,-6.3008,-6.4297,-6.4297,-6.4297,-6.4375,-6.5234,-6.5586,-6.5703,-6.6562,-6.7187,-6.7734,-6.8555,-6.9414,-7.0234,-7.1133,-7.168,-7.1992,-7.1992,-7.2578,-7.3476,-7.4336,-7.5195,-7.6094,-7.6953,-7.7187,-7.7305,-7.7812,-7.8555,-7.9375,-8.0234,-8.1094,-8.1836,-8.2226,-8.2304,-8.2265,-8.2168,-8.1976,-8.1792,-8.1563,-8.1359,-8.1242,-8.1242,-8.1176,-8.1093,-8.1093,-8.1093,-8.1093,-8.1093,-8.1516,-8.19,-8.2285,-8.3208,-8.3939,-8.4286,-8.5209,-8.5709,-8.5709,-8.6555,-8.7017,-8.7017,-8.567,-8.5247,-8.5709,-8.6094,-8.6748,-8.7555,-8.794,-8.8594,-5.0853,-5.4665,-5.8808,-6.2093,-6.2241,-6.1661,-6.1986,-6.3222,-6.4021,-6.3193,-6.3542,-6.4289,-6.5196,-6.6521,-6.6371,-6.3107,-6.4438,-6.5588,-6.4718,-6.2435,-6.0796,-6.0796,-6.0819,-6.0804,-6.0804,-6.0804,-6.0436,-5.9568,-6.0444,-6.1007,-6.103,-6.1442,-6.1704,-6.1719,-6.1719,-6.1719,-6.1719,-6.1719,-6.1719,-6.1719,-6.1719,-6.1719,-6.1719,-6.1719,-6.2422,-6.3633,-6.3633,-6.375,-6.4023,-6.4922,-6.539,-6.5703,-6.6562,-6.7305,-6.8008,-6.9023,-6.9844,-7.0547,-7.1601,-7.1992,-7.2031,-7.2265,-7.293,-7.3789,-7.4687,-7.5547,-7.6367,-7.7031,-7.7344,-7.7695,-7.832,-7.9258,-8.0195,-8.0859,-8.1679,-8.2304,-8.2304,-8.2304,-8.2221,-8.1976,-8.1819,-8.1636,-8.1359,-8.1224,-8.1093,-8.1093,-8.1285,-8.14,-8.14,-8.14,-8.14,-8.14,-8.1939,-8.2401,-8.2593,-8.4209,-8.5209,-8.5209,-8.6786,-8.7632,-8.7401,-8.8248,-8.8709,-8.8709,-8.7401,-8.7094,-8.7709,-8.7709,-8.8171,-8.8979,-8.8979,-8.944,-4.682,-5.2272,-5.6709,-5.1297,-5.4132,-5.8542,-5.9709,-6.0715,-6.1789,-6.323,-6.3178,-6.3099,-6.378,-6.5532,-6.5729,-6.241,-6.4158,-6.4747,-6.1516,-6.0911,-6.0796,-6.0819,-6.0804,-6.0827,-6.0827,-6.0789,-5.9472,-5.6205,-5.9477,-6.1637,-6.1654,-6.167,-6.1718,-6.1719,-6.1719,-6.1719,-6.1719,-6.1719,-6.1719,-6.1719,-6.1719,-6.1719,-6.1719,-6.1719,-6.1758,-6.1836,-6.1836,-6.2305,-6.3125,-6.4023,-6.4844,-6.5703,-6.6562,-6.6914,-6.7187,-6.8867,-6.9492,-6.9726,-7.1406,-7.1992,-7.2148,-7.2969,-7.3828,-7.4687,-7.5586,-7.6445,-7.7148,-7.7187,-7.7812,-7.8437,-7.8476,-7.9726,-8.0937,-8.0976,-8.1679,-8.2304,-8.2304,-8.2304,-8.2175,-8.1767,-8.1695,-8.1582,-8.1196,-8.1093,-8.1093,-8.1093,-8.1747,-8.2247,-8.2247,-8.2247,-8.2247,-8.2247,-8.2285,-8.2631,-8.3439,-8.5055,-8.6055,-8.6055,-8.7671,-8.8248,-8.744,-8.8248,-8.8709,-8.8709,-8.8594,-8.8594,-8.8632,-8.8632,-8.9056,-8.9863,-8.9863,-9.0325,-4.8871,-4.9887,-5.0535,-5.0641,-5.3845,-5.712,-5.7533,-5.9213,-6.086,-6.1439,-6.1371,-6.1456,-6.1974,-6.3019,-6.3603,-6.2899,-6.272,-6.2194,-6.0964,-6.0804,-6.0827,-6.0789,-6.0789,-5.9919,-5.7758,-5.7527,-5.7023,-5.5786,-5.7403,-5.8429,-5.8426,-6.0506,-6.1719,-6.1719,-6.0664,-6.0351,-6.0859,-6.1406,-6.1719,-6.1719,-6.1719,-6.1719,-6.1719,-6.1719,-6.1719,-6.1719,-6.1719,-6.2187,-6.3086,-6.3945,-6.4805,-6.5703,-6.6562,-6.6914,-6.7031,-6.8242,-6.8984,-6.957,-7.0742,-7.1914,-7.289,-7.3203,-7.4258,-7.5508,-7.582,-7.6523,-7.7305,-7.789,-7.8242,-7.875,-7.9844,-8.0547,-8.1133,-8.1719,-8.207,-8.2304,-8.2304,-8.2304,-8.2175,-8.1792,-8.168,-8.1737,-8.186,-8.1862,-8.1862,-8.1862,-8.2131,-8.2285,-8.2285,-8.2285,-8.2516,-8.3054,-8.3632,-8.4093,-8.4401,-8.5978,-8.694,-8.694,-8.8517,-8.9325,-8.9017,-8.9825,-9.0287,-9.0287,-9.0287,-9.0017,-8.9479,-8.9479,-8.9902,-9.0748,-9.0748,-9.0902,-4.9068,-4.815,-4.7251,-4.9919,-5.2671,-5.4844,-5.4991,-5.7193,-5.9197,-5.9262,-5.9871,-6.0461,-6.0673,-6.0957,-6.1426,-6.2067,-6.1393,-6.0609,-6.0027,-5.9457,-5.9111,-5.9111,-5.9072,-5.8204,-5.5907,-5.5698,-5.5711,-5.5691,-5.6269,-5.6613,-5.6601,-5.875,-6.0156,-6.0547,-5.9687,-5.9453,-6.0,-6.0586,-6.1015,-6.125,-6.125,-6.1406,-6.1719,-6.1719,-6.1719,-6.1719,-6.1719,-6.2344,-6.3476,-6.4062,-6.5,-6.6094,-6.668,-6.6914,-6.7031,-6.8164,-6.8945,-6.9648,-7.1094,-7.2344,-7.3398,-7.3984,-7.4961,-7.5937,-7.625,-7.6758,-7.7383,-7.8242,-7.8672,-7.9219,-8.0625,-8.1211,-8.1562,-8.2148,-8.2304,-8.2304,-8.2304,-8.2262,-8.2193,-8.2129,-8.2042,-8.2161,-8.264,-8.2747,-8.2747,-8.2747,-8.2978,-8.317,-8.317,-8.317,-8.3401,-8.3978,-8.4786,-8.5286,-8.5286,-8.7094,-8.8132,-8.7863,-8.9402,-9.021,-8.9902,-9.0748,-9.121,-9.121,-9.121,-9.0941,-9.0364,-9.0364,-9.0633,-9.121,-9.121,-9.121,0.0,0.0,0.0,-4.833,-5.0081,-5.1651,-5.2121,-5.4543,-5.6786,-5.6862,-5.87,-6.0194,-5.9929,-5.959,-5.9454,-5.99,-6.0406,-6.0127,-5.855,-5.6813,-5.5692,-5.5692,-5.5698,-5.572,-5.572,-5.5703,-5.5691,-5.5703,-5.6269,-5.6613,-5.6601,-5.664,-5.7148,-5.8203,-5.8867,-5.918,-5.914,-5.918,-5.9609,-6.039,-6.039,-6.0859,-6.1719,-6.1719,-6.1719,-6.1719,-6.1719,-6.2695,-6.4297,-6.4297,-6.5312,-6.6914,-6.6914,-6.6914,-6.7148,-6.875,-6.9453,-6.9922,-7.2383,-7.332,-7.3672,-7.5351,-7.5937,-7.6094,-7.6953,-7.7226,-7.7422,-7.8281,-7.9101,-7.9922,-8.082,-8.1679,-8.2304,-8.2304,-8.2304,-8.2304,-8.2343,-8.2164,-8.2221,-8.2878,-8.2805,-8.2857,-8.3503,-8.3632,-8.3632,-8.3632,-8.4362,-8.4901,-8.4901,-8.4939,-8.4939,-8.4978,-8.5709,-8.617,-8.617,-8.8479,-8.9556,-8.8786,-9.0287,-9.0825,-8.9979,-9.0748,-9.121,-9.121,-9.121,-9.121,-9.121,-9.121,-9.121,-9.121,-9.121,-9.121,-4.7259,0.0,0.0,0.0,0.0,0.0,-5.0458,-5.2543,-5.4553,-5.5158,-5.6645,-5.8202,-5.9327,-5.9434,-5.9436,-5.9613,-5.8927,-5.8341,-5.8303,-5.6802,-5.5703,-5.5682,-5.5703,-5.5724,-5.5703,-5.5703,-5.5691,0.0,-5.6269,-5.6613,-5.6601,-5.7383,-5.7617,-5.7109,-5.8476,-5.8906,-5.8281,-5.8867,-5.9609,-6.039,-6.039,-6.0859,-6.1719,-6.1719,-6.1719,-6.1719,-6.1719,-6.2695,-6.4297,-6.4297,-6.5312,-6.6914,-6.6914,-6.7305,-6.789,-6.8359,-6.9726,-7.1406,-7.2109,-7.3594,-7.5273,-7.5742,-7.6328,-7.6875,-7.7148,-7.7656,-7.832,-7.914,-7.9961,-8.0859,-8.1719,-8.2109,-8.2304,-8.2304,-8.2304,-8.242,-8.2935,-8.2874,-8.2791,-8.2964,-8.3289,-8.376,-8.4427,-8.4555,-8.4555,-8.4555,-8.4747,-8.4901,-8.4901,-8.5401,-8.6017,-8.6632,-8.7478,-8.7979,-8.7979,-8.9171,-8.9825,-8.9594,-9.0594,-9.1095,-9.0864,-9.1056,-9.121,-9.121,-9.121,-9.121,-9.121,-9.121,-9.121,-9.121,-9.121,-9.1556,-4.7371,-4.785,-4.832,-4.8302,0.0,0.0,-4.9267,-5.0966,-5.282,-5.3913,-5.5353,-5.694,-5.8762,-5.8683,-5.8451,-5.8681,-5.7905,-5.7071,-5.6549,-5.6032,-5.5186,-5.3797,-5.4857,-5.5707,-5.5707,-5.5686,-5.5709,-5.5703,-5.4907,-5.4858,-5.5859,-5.6953,-5.7305,-5.6601,-5.7578,-5.7851,-5.7344,-5.7851,-5.8711,-5.9883,-5.9883,-6.0547,-6.1719,-6.1719,-6.1719,-6.1719,-6.1719,-6.2695,-6.4297,-6.4297,-6.5312,-6.6953,-6.7305,-6.7734,-6.8281,-6.8984,-7.039,-7.2109,-7.2812,-7.4336,-7.5976,-7.6328,-7.6797,-7.7265,-7.7617,-7.8086,-7.875,-7.9922,-8.0859,-8.164,-8.2187,-8.2304,-8.2304,-8.2304,-8.2223,-8.2398,-8.3131,-8.3336,-8.3466,-8.3854,-8.4118,-8.4561,-8.528,-8.5401,-8.5401,-8.5401,-8.5709,-8.594,-8.594,-8.6671,-8.7363,-8.7902,-8.8709,-8.921,-8.921,-8.9979,-9.0441,-9.0441,-9.0941,-9.121,-9.121,-9.121,-9.121,-9.121,-9.1556,-9.1902,-9.2249,-9.1556,-9.1402,-9.1748,-9.1748,-9.2172,-4.7421,-4.7838,-4.8306,-4.8306,-4.7797,0.0,-4.8232,-4.9552,-5.107,-5.2662,-5.4132,-5.5813,-5.7884,-5.7375,-5.6765,-5.7177,-5.7019,-5.6242,-5.443,-5.4895,-5.4241,-5.1083,-5.3336,-5.5283,-5.5651,-5.5343,-5.5148,-5.513,-5.2826,-5.2415,-5.4765,-5.5898,-5.6484,-5.6601,-5.6601,-5.6601,-5.6601,-5.6601,-5.7461,-5.9219,-5.9219,-6.0078,-6.1719,-6.1719,-6.1719,-6.1719,-6.1719,-6.2695,-6.4297,-6.4297,-6.5312,-6.6992,-6.7851,-6.8242,-6.8555,-7.0234,-7.1445,-7.2539,-7.418,-7.5312,-7.6172,-7.6953,-7.7265,-7.75,-7.8281,-7.8633,-7.9101,-8.0703,-8.1719,-8.2304,-8.2304,-8.2304,-8.2304,-8.2304,-8.2207,-8.2374,-8.3215,-8.3732,-8.4287,-8.5127,-8.5188,-8.5286,-8.6094,-8.6247,-8.6286,-8.6363,-8.7055,-8.7555,-8.7555,-8.8286,-8.8825,-8.8825,-8.9556,-9.0056,-9.0056,-9.0748,-9.121,-9.121,-9.121,-9.121,-9.121,-9.121,-9.121,-9.121,-9.2056,-9.2903,-9.371,-9.221,-9.1864,-9.2633,-9.2633,-9.3056,-4.7746,-4.7838,-4.8306,-4.8306,-4.747,0.0,-4.6802,-4.7282,-4.8058,-4.9533,-5.0957,-5.2678,-5.4909,-5.5136,-5.4996,-5.5101,-5.5583,-5.5818,-5.5416,-5.4395,-5.2931,-5.0947,-5.1254,-5.2738,-5.5437,-5.3262,-5.1687,-5.1686,-5.1508,-5.2417,-5.4765,-5.5312,-5.5898,-5.6562,-5.6601,-5.6601,-5.6601,-5.6601,-5.7461,-5.9219,-5.9219,-6.0078,-6.1719,-6.1719,-6.1719,-6.1719,-6.1719,-6.2695,-6.4297,-6.4297,-6.5312,-6.6992,-6.7851,-6.8633,-6.9453,-7.1133,-7.2734,-7.4258,-7.5273,-7.6211,-7.6953,-7.7148,-7.7656,-7.8281,-7.8437,-7.9453,-8.0742,-8.1758,-8.2187,-8.2304,-8.2304,-8.2304,-8.2304,-8.2304,-8.2671,-8.3245,-8.3895,-8.4495,-8.514,-8.5822,-8.5889,-8.6132,-8.7017,-8.7132,-8.7363,-8.8094,-8.8325,-8.844,-8.844,-8.9171,-8.9671,-8.9671,-9.0441,-9.0941,-9.0941,-9.1095,-9.121,-9.121,-9.121,-9.121,-9.121,-9.121,-9.121,-9.121,-9.2056,-9.2903,-9.371,-9.3364,-9.3287,-9.348,-9.348,-9.3941,-4.8311,-4.7838,-4.7838,-4.7838,-4.691,0.0,0.0,-4.666,-4.7284,-4.9078,-5.0039,-5.1251,-5.3721,-5.3983,-5.3943,-5.4115,-5.5017,-5.5686,-5.571,-5.4262,-5.2585,-5.0909,-5.2179,-5.3857,-5.5535,-5.2661,-5.1153,-5.2255,-5.3383,-5.4336,-5.5078,-5.5625,-5.6133,-5.6601,-5.6601,-5.6601,-5.6601,-5.6601,-5.7461,-5.9219,-5.9219,-6.0078,-6.1719,-6.1719,-6.1719,-6.1719,-6.1719,-6.2695,-6.4297,-6.4297,-6.5586,-6.7617,-6.8476,-6.9336,-7.0312,-7.2031,-7.3476,-7.4726,-7.5586,-7.6484,-7.7265,-7.7695,-7.8125,-7.8672,-7.9492,-8.0625,-8.1758,-8.2187,-8.2304,-8.2304,-8.2304,-8.2617,-8.2929,-8.2835,-8.3272,-8.3909,-8.4573,-8.4906,-8.5419,-8.6511,-8.6748,-8.6901,-8.7325,-8.7748,-8.8209,-8.8632,-8.9056,-8.9286,-8.9286,-9.0017,-9.0556,-9.0556,-9.0941,-9.121,-9.121,-9.121,-9.121,-9.121,-9.121,-9.121,-9.121,-9.1633,-9.2249,-9.3095,-9.3518,-9.4172,-9.5018,-9.5018,-9.4749,-9.4326,-9.4326,-9.4826,-4.8857,-4.7919,-4.7548,-4.7428,-4.6542,-4.5787,0.0,0.0,0.0,-4.8886,-4.928,-4.9972,-5.2493,-5.2719,-5.2483,-5.245,-5.3913,-5.4975,-5.4747,-5.413,-5.2933,-5.0932,-5.3685,-5.5689,-5.5691,-5.2133,-5.0864,-5.3323,-5.48,-5.5508,-5.5234,-5.5937,-5.6445,-5.6601,-5.6601,-5.668,-5.6836,-5.668,-5.7539,-5.9414,-5.9258,-6.0078,-6.1719,-6.1719,-6.1719,-6.1719,-6.1719,-6.2695,-6.4297,-6.4492,-6.6094,-6.8515,-6.914,-7.0039,-7.1172,-7.289,-7.4101,-7.5,-7.6055,-7.6875,-7.7578,-7.8437,-7.8828,-7.9258,-8.0781,-8.1758,-8.2304,-8.2304,-8.2304,-8.2304,-8.2304,-8.2969,-8.3551,-8.3334,-8.387,-8.4647,-8.5289,-8.541,-8.5824,-8.7363,-8.7786,-8.7863,-8.7863,-8.8479,-8.8979,-8.9171,-8.9748,-9.0171,-9.0171,-9.0748,-9.121,-9.121,-9.121,-9.121,-9.121,-9.121,-9.121,-9.121,-9.121,-9.1287,-9.1441,-9.2287,-9.3441,-9.498,-9.498,-9.5441,-9.6288,-9.6288,-9.5942,-9.5249,-9.5249,-9.5634,-4.915,-4.8267,-4.8075,-4.7512,-4.6864,-4.6161,-4.5701,0.0,-4.5234,-4.6513,0.0,-4.7419,-4.9557,0.0,0.0,-4.7951,-5.0567,-5.2435,-5.1413,-5.3668,-5.4227,-5.1087,-5.3646,-5.5707,-5.5691,-5.0308,-4.814,-5.1443,-5.1875,-5.2851,-5.4844,-5.5273,-5.5781,-5.6562,-5.6601,-5.6953,-5.7734,-5.6992,-5.7812,-6.0273,-5.9531,-6.0078,-6.1719,-6.1719,-6.1719,-6.1719,-6.1719,-6.2695,-6.4375,-6.5117,-6.6992,-6.9375,-6.9375,-7.039,-7.207,-7.3828,-7.5,-7.5976,-7.7617,-7.8281,-7.8476,-7.9297,-8.0078,-8.0898,-8.1875,-8.2226,-8.2304,-8.2304,-8.2304,-8.2304,-8.2304,-8.2969,-8.3551,-8.3334,-8.4338,-8.5542,-8.6141,-8.6722,-8.7401,-8.8363,-8.9133,-8.9633,-8.9633,-8.971,-9.0017,-9.0787,-9.0979,-9.1056,-9.1056,-9.1133,-9.121,-9.121,-9.121,-9.121,-9.121,-9.121,-9.121,-9.121,-9.121,-9.1556,-9.2326,-9.3133,-9.4018,-9.498,-9.498,-9.5441,-9.6288,-9.6288,-9.6249,-9.6134,-9.6134,-9.6211,-4.893,-4.8084,-4.7743,-4.7017,0.0,0.0,-4.5138,0.0,-4.4961,-4.6161,0.0,0.0,0.0,0.0,0.0,0.0,-5.0971,-5.1991,-5.0855,-5.3572,-5.5171,-5.3764,-5.1355,-5.1393,-5.5318,-5.3632,-5.2016,-5.1445,-5.3281,-5.4844,-5.582,-5.5976,-5.6211,-5.6601,-5.6601,-5.7031,-5.789,-5.7539,-5.8398,-6.039,-6.0078,-6.0547,-6.1719,-6.1719,-6.1719,-6.1719,-6.2226,-6.3164,-6.4414,-6.5781,-6.7617,-6.9609,-7.0547,-7.164,-7.2969,-7.4726,-7.5586,-7.6133,-7.789,-7.8515,-7.8711,-8.0039,-8.1054,-8.1836,-8.2187,-8.2304,-8.2304,-8.2304,-8.2304,-8.2422,-8.2929,-8.3625,-8.4252,-8.4518,-8.5676,-8.6809,-8.6974,-8.761,-8.8402,-8.9248,-8.9671,-9.0056,-9.0556,-9.0671,-9.0787,-9.1133,-9.121,-9.121,-9.121,-9.121,-9.121,-9.121,-9.121,-9.121,-9.121,-9.121,-9.121,-9.121,-9.1672,-9.2556,-9.3903,-9.4249,-9.4864,-9.5749,-9.5749,-9.5942,-9.6288,-9.6288,-9.6288,-9.6288,-9.6288,-9.6288,-4.9187,0.0,0.0,0.0,0.0,0.0,0.0,0.0,0.0,0.0,-4.6611,0.0,0.0,0.0,0.0,0.0,0.0,-5.1337,-4.9547,-5.1395,-5.2916,-5.2916,-4.8723,-4.8463,-5.5282,-5.6358,-5.556,-5.3008,-5.4609,-5.6094,-5.7031,-5.6758,-5.6719,-5.6953,-5.6953,-5.7383,-5.8242,-5.8242,-5.9101,-6.0742,-6.0508,-6.0859,-6.1719,-6.1719,-6.1836,-6.2109,-6.2734,-6.3789,-6.5117,-6.664,-6.8281,-7.0039,-7.1953,-7.3086,-7.3828,-7.5351,-7.6211,-7.6836,-7.832,-7.914,-7.9726,-8.0976,-8.1797,-8.2304,-8.2304,-8.2304,-8.2304,-8.2304,-8.2461,-8.2812,-8.3437,-8.4277,-8.5039,-8.5424,-8.6609,-8.7654,-8.7462,-8.8248,-8.921,-8.9787,-9.0094,-9.0479,-9.1095,-9.121,-9.121,-9.121,-9.121,-9.121,-9.121,-9.1402,-9.1556,-9.1556,-9.1556,-9.1556,-9.1556,-9.1325,-9.1287,-9.1556,-9.2595,-9.371,-9.4941,-9.5211,-9.5634,-9.6288,-9.6288,-9.6288,-9.6288,-9.6288,-9.6288,-9.6288,-9.6288,-9.6288,0.0,0.0,0.0,-4.6766,0.0,0.0,0.0,0.0,-4.5648,0.0,0.0,0.0,0.0,0.0,0.0,0.0,0.0,0.0,0.0,-4.586,-4.5918,-4.5935,-4.6127,-4.898,-5.5906,-5.6587,-5.6532,-5.6445,-5.4492,-5.4765,-5.8086,-5.7187,-5.6992,-5.7812,-5.7851,-5.8281,-5.914,-5.914,-6.0,-6.164,-6.0781,-6.0859,-6.1719,-6.1719,-6.2148,-6.2969,-6.3008,-6.4453,-6.6875,-6.7773,-6.914,-7.0937,-7.3515,-7.4531,-7.4687,-7.5586,-7.6953,-7.8555,-7.9375,-8.0781,-8.2187,-8.2226,-8.2265,-8.2304,-8.2304,-8.2304,-8.2304,-8.2304,-8.289,-8.3554,-8.3594,-8.4667,-8.5702,-8.5541,-8.6609,-8.7654,-8.7462,-8.8709,-8.9863,-8.9902,-9.0594,-9.1171,-9.121,-9.121,-9.121,-9.121,-9.121,-9.121,-9.121,-9.1941,-9.2441,-9.2441,-9.2441,-9.2441,-9.2441,-9.1672,-9.1556,-9.2402,-9.4018,-9.4941,-9.498,-9.5826,-9.6288,-9.6288,-9.6288,-9.6288,-9.6288,-9.6288,-9.6288,-9.6288,-9.6288,-9.6288,0.0,0.0,-4.9101,-4.7642,0.0,0.0,0.0,0.0,0.0,0.0,0.0,0.0,0.0,0.0,0.0,0.0,0.0,0.0,0.0,-4.8998,-4.9103,-4.9394,-4.7573,-4.8119,-5.2724,-5.5267,-5.6598,-5.6601,-5.5898,-5.6211,-5.793,-5.7656,-5.7851,-5.8711,-5.875,-5.914,-6.0,-6.0,-6.0586,-6.1719,-6.1406,-6.1406,-6.1719,-6.2305,-6.2734,-6.3047,-6.4219,-6.5547,-6.6992,-6.8437,-7.0,-7.1758,-7.3789,-7.4961,-7.5625,-7.7109,-7.8008,-7.8711,-8.0078,-8.1328,-8.2304,-8.2304,-8.2304,-8.2304,-8.2304,-8.2304,-8.2422,-8.3008,-8.3359,-8.3867,-8.5039,-8.5449,-8.5726,-8.6249,-8.694,-8.7449,-8.7396,-8.8286,-8.9248,-8.9825,-9.0133,-9.0517,-9.1095,-9.121,-9.121,-9.121,-9.121,-9.1402,-9.1979,-9.2326,-9.2479,-9.2479,-9.2479,-9.2287,-9.171,-9.1902,-9.2672,-9.4057,-9.4672,-9.5249,-9.5826,-9.6134,-9.6288,-9.6288,-9.6288,-9.6288,-9.6288,-9.6288,-9.6288,-9.6288,-9.6288,-9.6288,-5.1316,-5.0597,0.0,-4.8409,-4.787,0.0,-4.6167,0.0,-4.7477,0.0,0.0,0.0,0.0,0.0,0.0,0.0,0.0,0.0,0.0,-5.0695,-5.0864,-5.1351,-4.9457,-4.8961,-5.1172,-5.3437,-5.5273,-5.6523,-5.6601,-5.7109,-5.8281,-5.8086,-5.8437,-5.9609,-5.9648,-5.9883,-6.039,-6.0703,-6.1133,-6.1719,-6.1719,-6.1875,-6.2187,-6.2734,-6.3359,-6.3984,-6.543,-6.6719,-6.793,-6.9297,-7.0898,-7.2617,-7.4023,-7.5117,-7.6094,-7.7851,-7.8867,-7.9609,-8.0976,-8.1836,-8.2304,-8.2304,-8.2304,-8.2304,-8.2304,-8.2304,-8.2422,-8.2969,-8.3594,-8.4336,-8.5469,-8.5856,-8.6116,-8.6661,-8.7113,-8.7325,-8.7017,-8.7863,-8.8863,-8.9363,-8.971,-9.0171,-9.1056,-9.1479,-9.1672,-9.1672,-9.1402,-9.1633,-9.2787,-9.2941,-9.2941,-9.2941,-9.321,-9.3018,-9.2172,-9.2903,-9.3826,-9.4903,-9.5288,-9.5711,-9.6288,-9.6288,-9.6749,-9.7634,-9.6749,-9.6749,-9.7634,-9.6749,-9.6288,-9.6288,-9.6288,-9.6288]},{"header":{"parameterUnit":"m.s-1","parameterCategory":1,"la1":30.6,"la2":29.2853,"lo1":-89.7004,"lo2":-87.6739,"dx":0.0162,"dy":0.0183,"nx":112,"ny":82,"refTime":"2023-02-08T18:00:00:Z","depth":0,"parameterNumber":3,"parameterNumberName":"V-component_of_WINDS"},"data":[0.0,0.0,0.0,0.0,0.0,0.0,0.0,0.0,0.0,0.0,0.0,0.0,0.0,0.0,0.0,0.0,0.0,0.0,0.0,0.0,0.0,0.0,0.0,0.0,0.0,0.0,0.0,0.0,0.0,0.0,0.0,0.0,0.0,0.0,0.0,0.0,0.0,0.0,0.0,0.0,0.0,0.0,0.0,0.0,0.0,0.0,0.0,0.0,0.0,0.0,0.0,0.0,0.0,0.0,0.0,0.0,0.0,0.0,0.0,0.0,0.0,0.0,0.0,0.0,0.0,0.0,0.0,0.0,0.0,0.0,0.0,0.0,0.0,0.0,0.0,0.0,0.0,0.0,0.0,0.0,0.0,0.0,0.0,0.0,0.0,0.0,0.0,0.0,0.0,0.0,0.739,0.8174,1.0643,1.2352,1.2603,1.2583,1.2474,1.2271,0.0,0.0,0.0,0.0,0.0,0.0,0.0,0.0,0.0,0.0,0.0,0.0,0.0,0.0,0.0,0.0,0.0,0.0,0.0,0.0,0.0,0.0,0.0,0.0,0.0,0.0,0.0,0.0,0.0,0.0,0.0,0.0,0.0,0.0,0.0,0.0,0.0,0.0,0.0,0.0,0.0,0.0,0.0,0.0,0.0,0.0,0.0,0.0,0.0,0.0,0.0,0.0,0.0,0.0,0.0,0.0,0.0,0.0,0.0,0.0,0.0,0.0,0.0,0.0,0.0,0.0,0.0,0.0,0.0,0.0,0.0,0.0,0.0,0.0,0.0,0.0,0.0,0.0,0.0,0.0,0.0,0.0,0.0,0.0,0.0,0.0,0.0,0.0,0.0,0.0,0.0,0.0,0.0,0.0,0.0,0.0,0.0,0.0,0.0,0.0,0.0,0.0,0.0,0.0,0.8542,1.0515,1.1549,1.2115,1.2162,1.1932,1.1877,1.2081,0.0,0.0,0.0,0.0,0.0,0.0,0.0,0.0,0.0,0.0,0.0,0.0,0.0,0.0,0.0,0.0,0.0,0.0,0.0,0.0,0.0,0.0,0.0,0.0,0.0,0.0,0.0,0.0,0.0,0.0,0.0,0.0,0.0,0.0,0.0,0.0,0.0,0.0,0.0,0.0,0.0,0.0,0.0,0.0,0.0,0.0,0.0,0.0,0.0,0.0,0.0,0.0,0.0,0.0,0.0,0.0,0.0,0.0,0.0,0.0,0.0,0.0,0.0,0.0,0.0,0.0,0.0,0.0,0.0,0.0,0.0,0.0,0.0,0.0,0.0,0.0,0.0,0.0,0.0,0.0,0.0,0.0,0.0,0.0,0.0,0.0,0.0,0.0,0.0,0.0,0.0,0.0,0.0,0.0,0.0,0.0,0.0,0.0,0.0,0.0,0.0,0.0,0.0,0.616,0.8312,0.959,1.098,1.185,1.1932,1.1667,1.1619,1.1918,1.1633,0.0,0.0,0.0,0.0,0.0,0.0,0.0,0.0,0.0,0.0,0.0,0.0,0.0,0.0,0.0,0.0,0.0,0.0,0.0,0.0,0.0,0.0,0.0,0.0,0.0,0.0,0.0,0.0,0.0,0.0,0.0,0.0,0.0,0.0,0.0,0.0,0.0,0.0,0.0,0.0,0.0,0.0,0.0,0.0,0.0,0.0,0.0,0.0,0.0,0.0,0.0,0.0,0.0,0.0,0.0,0.0,0.0,0.0,0.0,0.0,0.0,0.0,0.0,0.0,0.0,0.0,0.0,0.0,0.0,0.0,0.0,0.0,0.0,0.0,0.0,0.0,0.0,0.0,0.0,0.0,0.0,0.0,0.0,0.0,0.0,0.0,0.0,0.0,0.0,0.0,0.0,0.0,0.0,0.0,0.0,0.0,0.0,0.0,0.0,0.0,0.0,0.0,0.6949,0.8055,0.8988,1.0561,1.1633,1.1674,1.1463,1.1436,1.166,1.1219,0.0,0.0,0.0,0.0,0.0,0.0,0.0,0.0,0.0,0.0,0.0,0.0,0.0,0.0,0.0,0.0,0.0,0.0,0.0,0.0,0.0,0.0,0.0,0.0,0.0,0.0,0.0,0.0,0.0,0.0,0.0,0.0,0.0,0.0,0.0,0.0,0.0,0.0,0.0,0.0,0.0,0.0,0.0,0.0,0.0,0.0,0.0,0.0,0.0,0.0,0.0,0.0,0.0,0.0,0.0,0.0,0.0,0.0,0.0,0.0,0.0,0.0,0.0,0.0,0.0,0.0,0.0,0.0,0.0,0.0,0.0,0.0,0.0,0.0,0.0,0.0,0.0,0.0,0.0,0.0,0.0,0.0,0.0,0.0,0.0,0.0,0.0,0.0,0.0,0.0,0.0,0.0,0.0,0.0,0.0,0.0,0.0,0.0,0.0,0.0,0.0,0.0,0.8148,0.8873,1.0535,1.1214,1.1511,1.1233,1.1192,1.1185,1.1206,1.1043,0.0,0.0,0.0,0.0,0.0,0.0,0.0,0.0,0.0,0.0,0.0,0.0,0.0,0.0,0.0,0.0,0.0,0.0,0.0,0.0,0.0,0.0,0.0,0.0,0.0,0.0,0.0,0.0,0.0,0.0,0.0,0.0,0.0,0.0,0.0,0.0,0.0,0.0,0.0,0.0,0.0,0.0,0.0,0.0,0.0,0.0,0.0,0.0,0.0,0.0,0.0,0.0,0.0,0.0,0.0,0.0,0.0,0.0,0.0,0.0,0.0,0.0,0.0,0.0,0.0,0.0,0.0,0.0,0.0,0.0,0.0,0.0,0.0,0.0,0.0,0.0,0.0,0.0,0.0,0.0,0.0,0.0,0.0,0.0,0.0,0.0,0.0,0.0,0.0,0.0,0.0,0.0,0.0,0.0,0.0,0.0,0.0,0.0,0.0,0.0,0.0,0.0,0.5789,0.7176,0.8895,1.0346,1.1151,1.1036,1.0941,1.0968,1.1151,0.0,0.0,0.0,0.0,0.0,0.0,0.0,0.0,0.0,0.0,0.0,0.0,0.0,0.0,0.0,0.0,0.0,0.0,0.0,0.0,0.0,0.0,0.0,0.0,0.0,0.0,0.0,0.0,0.0,0.0,0.0,0.0,0.0,0.0,0.0,0.0,0.0,0.0,0.0,0.0,0.0,0.0,0.0,0.0,0.0,0.0,0.0,0.0,0.0,0.0,0.0,0.0,0.0,0.0,0.0,0.0,0.0,0.0,0.0,0.0,0.0,0.0,0.0,0.0,0.0,0.0,0.0,0.0,0.0,0.0,0.0,0.0,0.0,0.0,0.0,0.0,0.0,0.0,0.0,0.0,0.0,0.0,0.0,0.0,0.0,0.0,0.0,0.0,0.0,0.0,0.0,0.0,0.0,0.0,0.0,0.0,0.0,0.0,0.0,0.0,0.0,0.0,0.2466,0.4278,0.607,0.7754,0.9765,1.0928,1.088,1.0738,1.0738,1.0934,0.0,0.0,0.0,0.0,0.0,0.0,0.0,0.0,0.0,0.0,0.0,0.0,0.0,0.0,0.0,0.0,0.0,0.0,0.0,0.0,0.0,0.0,0.0,0.0,0.0,0.0,0.0,0.0,0.0,0.0,0.0,0.0,0.0,0.0,0.0,0.0,0.0,0.0,0.0,0.0,0.0,0.0,0.0,0.0,0.0,0.0,0.0,0.0,0.0,0.0,0.0,0.0,0.0,0.0,0.0,0.0,0.0,0.0,0.0,0.0,0.0,0.0,0.0,0.0,0.0,0.0,0.0,0.0,0.0,0.0,0.0,0.0,0.0,0.0,0.0,0.0,0.0,0.0,0.0,0.0,0.0,0.0,0.0,0.0,0.0,0.0,0.0,0.0,0.0,0.0,0.0,0.0,0.0,0.0,0.0,0.0,0.0,0.0,0.0,0.0,0.0,0.0,0.2458,0.4411,0.6201,0.7887,0.9765,1.088,1.0731,1.0575,1.0487,0.0,0.0,0.0,0.0,0.0,0.0,0.0,0.0,0.0,0.0,0.0,0.0,0.0,0.0,0.0,0.0,0.0,0.0,0.0,0.0,0.0,0.0,0.0,0.0,0.0,0.0,0.0,0.0,0.0,0.0,0.0,0.0,0.0,0.0,0.0,0.0,0.0,0.0,0.0,0.0,0.0,0.0,0.0,0.0,0.0,0.0,0.0,0.0,0.0,0.0,0.0,0.0,0.0,0.0,0.0,0.0,0.0,0.0,0.0,0.0,0.0,0.0,0.0,0.0,0.0,0.0,0.0,0.0,0.0,0.0,0.0,0.0,0.0,0.0,0.0,0.0,0.0,0.0,0.0,0.0,0.0,0.0,0.0,0.0,0.0,0.0,0.0,0.0,0.0,0.0,0.0,0.0,0.0,0.0,0.0,0.0,0.0,0.0,0.0,0.0,0.0,0.0,0.0,0.4174,0.5132,0.6653,0.9618,1.0352,1.0724,1.0575,1.0426,1.0297,1.0188,0.0,0.0,0.0,0.0,0.0,0.0,0.0,0.0,0.0,0.0,0.0,0.0,0.0,0.0,0.0,0.0,0.0,0.0,0.0,0.0,0.0,0.0,0.0,0.0,0.0,0.0,0.0,0.0,0.0,0.0,0.0,0.0,0.0,0.0,0.0,0.0,0.0,0.0,0.0,0.0,0.0,0.0,0.0,0.0,0.0,0.0,0.0,0.0,0.0,0.0,0.0,0.0,0.0,0.0,0.0,0.0,0.0,0.0,0.0,0.0,0.0,0.0,0.0,0.0,0.0,0.0,0.0,0.0,0.0,0.0,0.0,0.0,0.0,0.0,0.0,0.0,0.0,0.0,0.0,0.0,0.0,0.0,0.0,0.0,0.0,0.0,0.0,0.0,0.0,0.0,0.0,0.0,0.0,0.0,0.0,0.0,0.0,0.0,0.0,0.0,0.0,0.0,0.4014,0.4968,0.6489,0.9347,1.0313,1.0683,1.0588,1.0399,1.0215,1.0059,0.0,0.0,0.0,0.0,0.0,0.0,0.0,0.0,0.0,0.0,0.0,0.0,0.0,0.0,0.0,0.0,0.0,0.0,0.0,0.0,0.0,0.0,0.0,0.0,0.0,0.0,0.0,0.0,0.0,0.0,0.0,0.0,0.0,0.0,0.0,0.0,0.0,0.0,0.0,0.0,0.0,0.0,0.0,0.0,0.0,0.0,0.0,0.0,0.0,0.0,0.0,0.0,0.0,0.0,0.0,0.0,0.0,0.0,0.0,0.0,0.0,0.0,0.0,0.0,0.0,0.0,0.0,0.0,0.0,0.0,0.0,0.0,0.0,0.0,0.0,0.0,0.0,0.0,0.0,0.0,0.0,0.0,0.0,0.0,0.0,0.0,0.0,0.0,0.0,0.0,0.0,0.0,0.0,0.0,0.0,0.0,0.0,0.0,0.0,0.0,0.0,0.0,0.267,0.4574,0.636,0.801,0.9775,1.0717,1.0704,1.0439,1.0209,1.0039,0.0,0.0,0.0,0.0,0.0,0.0,0.0,0.0,0.0,0.0,0.0,0.0,0.0,0.0,0.0,0.0,0.0,0.0,0.0,0.0,0.0,0.0,0.0,0.0,0.0,0.0,0.0,0.0,0.0,0.0,0.0,0.0,0.0,0.0,0.0,0.0,0.0,0.0,0.0,0.0,0.0,0.0,0.0,0.0,0.0,0.0,0.0,0.0,0.0,0.0,0.0,0.0,0.0,0.0,0.0,0.0,0.0,0.0,0.0,0.0,-0.9173,-0.965,0.0,0.0,0.0,0.0,0.0,0.0,0.0,0.0,0.0,0.0,0.0,0.0,0.0,0.0,0.0,0.0,0.0,0.0,0.0,0.0,0.0,0.0,0.0,0.0,0.0,0.0,0.0,0.0,0.0,0.0,0.0,0.0,0.0,0.0,0.0,0.0,0.0,0.0,0.0,0.0,0.4607,0.6231,0.8049,0.9883,1.0452,1.067,1.0555,1.0378,1.0161,0.989,0.9591,0.0,0.0,0.0,0.0,0.0,0.0,0.0,0.0,0.0,0.0,0.0,0.0,0.0,0.0,0.0,0.0,0.0,0.0,0.0,0.0,0.0,0.0,0.0,0.0,0.0,0.0,0.0,0.0,0.0,0.0,0.0,0.0,0.0,0.0,0.0,0.0,0.0,0.0,0.0,0.0,0.0,0.0,0.0,0.0,0.0,0.0,0.0,0.0,0.0,0.0,0.0,0.0,0.0,0.0,0.0,0.0,0.0,0.0,0.0,-0.8833,-0.8071,0.0,0.0,0.0,0.0,0.0,0.0,0.0,0.0,0.0,0.0,0.0,0.0,0.0,0.0,0.0,0.0,0.0,0.0,0.0,0.0,0.0,0.0,0.0,0.0,0.0,0.0,0.0,0.0,0.0,0.0,0.0,0.0,0.0,0.0,0.0,0.0,0.0,0.0,0.0,0.0,0.6157,0.7255,0.8565,1.0551,1.0717,1.069,1.0609,1.0466,1.0256,0.9951,0.9652,0.0,0.0,0.0,0.0,0.0,0.0,0.0,0.0,0.0,0.0,0.0,0.0,0.0,0.0,0.0,0.0,0.0,0.0,0.0,0.0,0.0,0.0,0.0,0.0,0.0,0.0,0.0,0.0,0.0,0.0,0.0,0.0,0.0,0.0,0.0,0.0,0.0,0.0,0.0,0.0,0.0,0.0,0.0,0.0,0.0,0.0,0.0,0.0,0.0,0.0,0.0,0.0,0.0,-1.3315,-1.3383,-1.3452,-1.0915,-0.9438,-0.8973,-0.8304,-0.6101,-0.3077,-0.4591,0.0,0.0,0.0,0.0,0.0,0.0,0.0,0.0,0.0,0.0,0.0,0.0,0.0,0.0,0.0,0.0,0.0,0.0,0.0,0.0,0.0,0.0,0.0,0.0,0.0,0.0,0.0,0.0,0.0,0.0,0.0,0.0,0.0,0.0,0.0,0.0,0.0,0.0,0.7461,0.8033,0.8828,1.0551,1.0717,1.0717,1.0717,1.0555,1.0351,1.0107,0.9761,0.9456,0.0,0.0,0.0,0.0,0.0,0.0,0.0,0.0,0.0,0.0,0.0,0.0,0.0,0.0,0.0,0.0,0.0,0.0,0.0,0.0,0.0,0.0,0.0,0.0,0.0,0.0,0.0,0.0,0.0,0.0,0.0,0.0,-3.2754,-3.2461,0.0,0.0,0.0,0.0,0.0,0.0,0.0,0.0,0.0,0.0,0.0,0.0,0.0,-1.7636,-1.3823,-1.3617,-1.3539,-1.36,-1.358,-1.3593,-1.3452,-1.0826,-0.8658,-0.6933,-0.4679,0.0,-0.2612,-0.1356,0.0,0.0,0.0,0.0,0.0,0.0,0.0,0.0,0.0,0.0,0.0,0.0,0.0,0.0,0.0,0.0,0.0,0.0,0.0,0.0,0.0,0.0,0.0,0.0,0.0,0.0,0.0,0.0,0.0,0.0,0.0,0.0,0.0,0.0,0.0,0.0,0.0,0.0,0.7837,0.9196,1.0134,1.069,1.0717,1.0717,1.0717,1.0466,1.029,1.0249,0.972,0.9395,0.9354,0.9205,0.0,0.0,0.0,0.0,0.0,0.0,0.0,0.0,0.0,0.0,0.0,0.0,0.0,0.0,0.0,0.0,0.0,0.0,0.0,0.0,0.0,0.0,0.0,0.0,0.0,0.0,0.0,0.0,0.0,-3.332,-3.3184,-3.2285,-3.3086,-3.3809,0.0,0.0,0.0,0.0,0.0,0.0,0.0,0.0,0.0,-1.9985,-1.9975,-1.8085,-1.415,-1.4136,-1.417,-1.4251,-1.4163,-1.4122,-1.3941,-1.0071,-0.7803,-0.6651,-0.2966,-0.1196,-0.1151,-0.0313,-0.1216,-0.2838,0.0,0.0,0.0,0.0,-0.2641,-0.4546,-0.5628,-0.6507,-0.7194,-0.6272,0.0,0.0,0.0,0.0,0.0,0.0,0.0,0.0,0.0,0.0,0.0,0.0,0.0,0.0,0.0,0.0,0.0278,0.1265,0.156,0.184,0.2769,0.3411,0.0,0.0,0.0,0.7838,0.9178,0.9927,1.0392,1.069,1.0643,1.0629,1.0711,1.0446,1.0283,1.0283,0.9795,0.9469,0.9388,0.9232,0.9164,0.0,0.0,0.0,0.0,0.0,0.0,0.0,0.0,0.0,0.0,0.0,0.0,0.0,0.0,0.0,0.0,0.0,0.0,0.0,0.0,0.0,0.0,0.0,0.0,0.0,0.0,0.0,0.0,-3.3008,-3.291,-3.1504,-3.2383,-3.325,0.0,0.0,0.0,0.0,0.0,0.0,-3.0335,-2.6962,-2.3627,-2.0868,-2.0788,-1.9195,-1.5935,-1.5818,-1.5658,-1.5809,-1.5077,-1.4645,-1.449,-0.9392,-0.7177,-0.6998,-0.2153,0.0,0.0,0.0,-0.0784,-0.1985,-0.0585,-0.0866,-0.203,-0.1173,-0.2063,-0.414,-0.5719,-0.6499,-0.6769,-0.5793,-0.4024,-0.1948,-0.0441,0.0,0.0,0.0,0.0,0.0,0.0,0.0,0.0,0.0,0.0,0.0,0.0,0.0,0.0405,0.177,0.2338,0.3025,0.4308,0.5212,0.0,0.7434,0.7865,0.8643,1.0236,1.0358,1.0432,1.069,1.0582,1.0534,1.0649,1.0392,1.0222,1.0222,0.9802,0.9503,0.9388,0.9232,0.9205,0.932,0.0,0.0,0.0,0.0,0.0,0.0,0.0,0.0,0.0,0.0,0.0,0.0,0.0,0.0,0.0,0.0,0.0,0.0,0.0,0.0,0.0,0.0,0.0,0.0,0.0,0.0,0.0,0.0,0.0,-2.9297,-3.0937,0.0,0.0,0.0,0.0,-3.4931,-3.2558,-3.0718,-2.9792,-2.595,-2.2832,-2.1144,-2.154,-2.0791,-1.8845,-1.8837,-1.8922,-1.9099,-1.6368,-1.5018,-1.4946,-0.9739,-0.7436,-0.7071,-0.216,0.0,0.0,0.0,0.0,-0.0159,0.0,0.0,-0.0302,-0.2263,-0.425,-0.6097,-0.5897,-0.7096,-0.8122,-0.4164,-0.1634,-0.0149,0.0,0.0,0.0,0.0,0.0,0.0,0.0,0.0,0.0,0.0,0.0,0.0,0.0,0.0,0.0,0.0135,0.1481,0.269,0.2819,0.0,0.7777,0.799,0.9269,1.0243,1.0663,1.0568,1.0541,1.0704,1.0582,1.0493,1.05,1.0229,1.0059,1.0059,0.9639,0.9388,0.9381,0.9232,0.9157,0.9164,0.9462,0.0,0.0,0.0,0.0,0.0,0.0,0.0,0.0,0.0,0.0,0.0,0.0,0.0,0.0,0.0,0.0,0.0,0.0,0.0,0.0,0.0,0.0,0.0,0.0,0.0,0.0,0.0,0.0,-3.1426,-3.3397,0.0,-3.4579,-3.4575,-3.4471,-3.3963,-3.0956,-2.865,-2.7538,-2.5305,-2.2642,-1.9831,-2.0046,-1.9217,-1.7105,-1.7105,-1.7032,-1.6877,-1.5723,-1.5126,-1.4705,-0.9694,-0.7415,-0.7008,-0.2154,0.0,0.0,0.0,0.0,0.0,0.0,0.0,-0.0151,-0.0757,-0.2425,-0.4261,-0.4151,-0.4475,-0.4778,-0.183,-0.0452,0.0,0.0,0.0,0.0,0.0,0.0,0.0,0.0,0.0,0.0,0.0,0.0,0.0,0.0,0.0,0.0,0.0,0.2417,0.4815,0.5826,0.7893,0.9559,0.9522,0.9954,1.0351,1.0548,1.0527,1.0514,1.0568,1.0439,1.0358,1.0358,1.008,0.9944,1.0039,0.972,0.9483,0.9388,0.9327,0.9347,0.9442,0.9741,0.9822,0.0,0.0,0.0,0.0,0.0,0.0,0.0,0.0,0.0,0.0,0.0,0.0,0.0,0.0,0.0,0.0,0.0,0.0,0.0,0.0,0.0,0.0,0.0,0.0,0.0,-3.2207,-3.248,-3.2754,-3.477,-3.6024,-3.585,-3.5104,-3.4343,-3.3767,-2.9957,-2.7078,-2.5991,-2.4453,-2.2148,-1.9133,-1.9837,-1.9513,-1.7371,-1.7312,-1.7208,-1.7054,-1.5883,-1.5228,-1.4698,-0.9725,-0.7439,-0.7004,-0.2153,0.0,0.0,0.0,0.0,0.0,0.0,0.0,-0.0156,-0.0777,-0.2019,-0.3127,-0.32,-0.2714,-0.1889,-0.0467,0.0,0.0,0.0,0.0,0.0,0.0,0.0,0.0,0.0,0.0,0.0,0.0,0.0,0.0,0.0,0.0,0.0,0.0,0.2954,0.5748,0.6753,0.8984,1.0521,1.0371,1.0399,1.0446,1.0487,1.0534,1.0548,1.0493,1.0365,1.0256,1.0209,0.9924,0.9815,0.9964,0.9646,0.9456,0.9456,0.9313,0.9327,0.953,0.9876,0.9951,0.9761,0.0,0.0,0.0,0.0,0.0,0.0,0.0,0.0,0.0,0.0,0.0,0.0,0.0,0.0,0.0,0.0,0.0,0.0,0.0,0.0,0.0,0.0,0.0,-3.1543,-3.2988,-3.3769,-3.2988,-3.4785,-3.6395,-3.682,-3.5149,-3.4085,-3.411,-2.9544,-2.6424,-2.5407,-2.3168,-2.1134,-1.9133,-2.1395,-2.1792,-1.9699,-1.9522,-1.9513,-1.9691,-1.6678,-1.5323,-1.4966,-0.9843,-0.7509,-0.7074,-0.216,0.0,0.0,0.0,0.0,0.0,0.0,0.0,-0.0165,-0.228,-0.3103,-0.3134,-0.3134,-0.1791,0.0,0.0,0.0,0.0,0.0,0.0,0.0,0.0,0.0,0.0,0.0,0.0,0.0,0.0,0.0,0.0,0.0,0.0,0.0,0.0,0.2819,0.5362,0.5362,0.8307,1.067,1.0521,1.0622,0.0,1.0521,1.0629,1.0656,1.0493,1.0351,1.0209,1.0046,0.9774,0.9673,0.9815,0.9415,0.9306,0.9598,0.9191,0.9096,0.9388,0.9829,1.0053,1.0046,0.0,0.0,0.0,0.0,0.0,0.0,0.0,0.0,0.0,0.0,0.0,0.0,0.0,0.0,0.0,0.0,0.0,0.0,0.0,0.0,0.0,-3.2749,-3.2344,-3.2031,-3.293,-3.3984,-3.5019,-3.7657,-3.8708,-3.6807,-3.6249,-3.4196,-2.9647,-2.676,-2.4555,-2.2515,-2.0573,-1.9245,-1.876,-1.8097,-1.7328,-1.6845,-1.6609,-1.6743,-1.6671,-1.5709,-1.5113,-1.4671,-0.9712,-0.7432,-0.6994,-0.2136,0.0,0.0,0.0,0.0,0.0,0.0,0.0,0.0,-0.0639,-0.0803,-0.098,-0.098,-0.0491,0.0,0.0,0.0,0.0,0.0,0.0,0.0,0.0,0.0,0.0,0.0,0.0,0.0,0.0,0.0,0.0,0.0,0.0,0.0,0.0,0.1881,0.389,0.5228,0.8307,1.0704,1.0663,1.0697,1.0704,1.0663,1.0697,1.0582,1.0209,1.0134,1.0012,0.9754,0.9652,0.9673,0.9815,0.9707,0.9632,0.9612,0.949,0.951,0.9693,1.0039,1.0161,0.0,0.0,0.0,0.0,0.0,0.0,0.0,0.0,0.0,0.0,0.0,0.0,0.0,0.0,0.0,0.0,0.0,0.0,0.0,0.0,0.0,0.0,-3.3406,-3.3379,-3.3496,-3.4258,-3.5215,-3.6406,-3.8216,-3.8586,-3.7058,-3.4626,-3.1533,-2.7835,-2.4109,-2.1772,-2.1379,-1.9572,-1.8375,-1.8568,-1.7421,-1.6256,-1.5445,-1.5323,-1.5248,-1.5221,-1.5072,-1.4875,-1.4457,-0.964,-0.7221,-0.6786,-0.2126,0.0,0.0,0.0,0.0,0.0,0.0,0.0,0.0,0.0,0.0,0.0,0.0,0.0,0.0,0.0,0.0,0.0,0.0,0.0,0.0,0.0,0.0,0.0,0.0,0.0,0.0,0.0,0.0,0.0,0.0,0.0,0.0,0.0,0.1478,0.0,0.5095,0.7769,0.9757,1.0498,1.0677,1.0697,1.0629,1.0677,1.0595,1.027,1.0236,1.0141,0.991,0.9774,0.0,0.0,0.0,0.9693,0.9612,0.9666,0.0,0.0,0.0,1.0297,1.0331,1.0331,0.0,0.0,1.027,1.0236,0.0,0.0,0.0,0.0,0.0,0.0,0.0,0.0,0.0,0.0,0.0,0.0,0.0,0.0,0.0,0.0,-3.4705,-3.4609,-3.5488,-3.6249,-3.6809,-3.7177,-3.7277,-3.7005,-3.6237,-3.1257,-2.7601,-2.6761,-2.1353,-1.8893,-2.0823,-1.9071,0.0,0.0,0.0,-1.704,-1.5153,-1.4882,-1.4821,-1.497,-1.4794,-1.4631,-1.4309,-0.9586,-0.7194,-0.6764,-0.2119,0.0,0.0,0.0,0.0,0.0,0.0,0.0,0.0,-0.0325,-0.0162,0.0,-0.0325,0.0,0.0,0.0,0.0,0.0,0.0,0.0,0.0,0.0,0.0,0.0,0.0,0.0,0.0,0.0,0.0,0.0,0.0,0.0,0.0,0.0,0.1344,0.3088,0.5095,0.6831,0.853,1.0273,1.0629,1.067,1.0534,1.0636,1.0649,1.046,0.0,0.0,1.0215,0.9951,0.9869,1.0039,0.9822,0.9686,0.9686,0.9822,0.9951,1.0073,1.0243,1.0453,1.0697,1.0711,1.0717,1.0711,1.031,1.027,0.0,0.0,0.0,0.0,0.0,0.0,0.0,0.0,0.0,0.0,0.0,0.0,0.0,0.0,0.0,-3.4952,-3.5323,-3.5937,-3.6816,-3.6469,-3.6162,-3.6253,-3.6859,-3.5305,-3.0151,-2.8577,-2.5579,-2.0144,-1.8479,-1.7989,-1.8506,-1.641,-1.6167,-1.7973,-1.6295,-1.5371,-1.5011,-1.4828,-1.4821,-1.497,0.0,0.0,-1.4155,-0.941,-0.7037,-0.6612,-0.2073,0.0,0.0,0.0,0.0,0.0,0.0,0.0,-0.0158,-0.1914,-0.1442,-0.016,-0.1921,-0.1428,0.0,0.0,0.0,0.0,0.0,0.0,0.0,0.0,0.0,0.0,0.0,0.0,0.0,0.0,0.0,0.0,0.0,0.0,0.0,0.0,0.0269,0.1613,0.4827,0.6831,0.8562,1.0412,1.0704,1.0711,1.0677,1.0704,1.0568,1.0175,1.0134,1.0025,0.9761,0.9686,0.9761,1.0032,1.0114,1.0154,1.0154,1.029,1.0324,1.0236,1.05,1.0602,1.0534,1.0663,1.0717,1.0717,1.0629,1.0622,0.0,0.0,0.0,0.0,0.0,0.0,0.0,0.0,0.0,0.0,0.0,-3.419,-3.4044,0.0,-3.569,-3.5681,-3.6601,-3.7093,-3.6675,-3.6714,-3.6498,-3.63,-3.5224,-3.2608,-2.8271,-2.593,-2.2718,-1.8104,-1.6721,-1.6553,-1.7763,-1.5587,-1.5497,-1.7865,-1.5757,-1.459,-1.474,-1.4597,-1.4557,-1.4631,-1.4482,-1.4326,-1.4008,-0.9338,-0.6993,-0.6573,-0.206,0.0,0.0,0.0,0.0,-0.016,-0.1125,-0.0956,-0.0314,-0.2194,-0.1725,-0.0314,-0.2334,-0.1696,0.0,0.0,0.0,0.0,0.0,0.0,0.0,0.0,0.0,0.0,0.0,0.0,0.0,0.0,0.0,0.0,0.0,0.0,0.0,0.0,0.0,0.1209,0.4827,0.6164,0.7631,1.0319,1.0717,1.0717,1.0717,1.0717,1.0602,1.0304,1.027,1.0209,1.0066,1.0053,1.0114,1.0263,1.0276,1.031,1.0385,1.0453,1.046,1.0385,1.0609,1.0683,1.0609,1.0683,1.0717,1.0717,1.0717,1.0717,0.0,0.0,0.0,0.0,0.0,0.0,0.0,-3.6493,-3.3355,-3.3089,-3.2715,-3.2667,-3.3379,-3.4687,-3.5898,-3.666,-3.7565,-3.7629,-3.6352,-3.6075,-3.5957,-3.5557,-3.3161,-3.0368,-2.7472,-2.3585,-2.0183,-1.7929,-1.569,-1.5168,-1.7071,-1.5344,-1.5226,-1.7283,-1.541,-1.4367,-1.4509,-1.4373,-1.4312,-1.434,-1.4285,-1.4177,-1.3847,-0.9266,-0.6942,-0.6682,-0.204,0.0,0.0,0.0,-0.0161,-0.0796,-0.2384,-0.237,-0.141,-0.34,-0.2612,-0.092,-0.288,-0.195,0.0,0.0,0.0,0.0,0.0,0.0,0.0,0.0,0.0,0.0,0.0,0.0,0.0,0.0,0.0,0.0,0.0,0.0,0.0,0.0,0.0,0.1076,0.4292,0.5228,0.6569,1.018,1.0717,1.0717,1.0717,1.0717,1.0663,1.0507,1.0466,1.0439,1.0405,1.046,1.0493,1.0493,1.0412,1.0419,1.0534,1.0534,1.0534,1.0534,1.0656,1.0717,1.0717,1.0717,1.0717,1.0717,1.0717,1.0717,-5.2835,-5.1777,-4.9998,-4.7377,-4.3753,-4.0045,0.0,-3.5045,-3.3407,-3.2506,-3.2855,-3.3398,-3.3906,-3.5391,-3.668,-3.7148,-3.666,-3.637,-3.6444,-3.37,-3.1655,-3.1899,-3.1677,-2.9717,-2.5519,-2.2772,-2.0183,-1.7929,-1.569,-1.4476,-1.4646,-1.4476,-1.4483,-1.4673,-1.4483,-1.4367,-1.4509,-1.4373,-1.4367,-1.4482,-1.4224,-1.4014,-1.3686,-0.909,-0.6926,-0.6457,-0.197,0.0,0.0,0.0,-0.1113,-0.2823,-0.298,-0.4073,-0.578,-0.7706,-0.5945,-0.2875,-0.4979,-0.3145,0.0,0.0,0.0,0.0,0.0,0.0,0.0,0.0,0.0,0.0,0.0,0.0,0.0,0.0,0.0,0.0,0.0,0.0,0.0,0.0,0.0,0.0672,0.2685,0.4292,0.6569,1.018,1.0717,1.0717,1.0717,1.0717,1.0663,1.0507,1.0378,1.0249,1.0114,1.0337,1.0493,1.0493,1.0602,1.0677,1.0697,1.0697,1.0697,1.0697,1.0711,1.0717,1.0717,1.0717,1.0717,1.0717,1.0717,1.0717,-5.0795,-4.9242,-4.7102,-4.3216,-4.0615,-3.827,-3.5562,-3.4293,-3.3442,-3.3326,-3.4105,-3.5181,-3.5782,-3.5914,-3.6104,-3.6532,-3.5727,-3.4149,-3.1693,-3.1088,-2.9905,-2.7205,-2.8222,-2.7875,-2.4996,-2.2611,-2.0183,-1.7929,-1.569,-1.4299,-1.4299,-1.4299,-1.4299,-1.4299,-1.4299,-1.4326,-1.4387,-1.4333,-1.4333,-1.4387,-1.4265,-1.4075,-1.3666,-0.9121,-0.542,-0.2639,-0.0811,0.0,0.0,0.0,-0.1261,-0.3286,-0.4537,-0.6227,-0.803,-0.8692,-0.7264,-0.4815,-0.5635,-0.3974,-0.1467,-0.0437,0.0,0.0,0.0,0.0,0.0,0.0,0.0,0.0,0.0,0.0,0.0,0.0,0.0,0.0,0.0,0.0,0.0,0.0,0.0,0.0538,0.2417,0.4158,0.6297,0.8706,1.0047,1.0717,1.0717,1.0717,1.0663,1.0507,1.0439,1.0378,1.031,1.05,1.0622,1.0622,1.0683,1.0717,1.0717,1.0717,1.0717,1.0717,1.0717,1.0717,1.0717,1.0717,1.0717,1.0717,1.0717,1.0717,-4.8518,-4.6587,-4.4049,-4.0685,-3.8506,-3.6764,-3.5229,-3.4486,-3.4145,-3.4519,-3.5576,-3.654,-3.7008,-3.608,-3.515,-3.491,-3.3265,-3.0716,-2.702,-2.7921,-2.7703,-2.4163,-2.5677,-2.6268,-2.4388,-2.2395,-2.0125,-1.7929,-1.569,-1.4299,-1.4299,-1.4299,-1.4299,-1.4299,-1.4299,-1.4299,-1.4299,-1.4299,-1.4299,-1.4299,-1.4211,-1.4055,-1.3666,-0.9081,-0.4387,0.0,0.0,0.0,0.0,0.0,-0.1568,-0.4068,-0.563,-0.7929,-1.0162,-0.9888,-0.8615,-0.6907,-0.6763,-0.4965,-0.2773,-0.1298,-0.0434,0.0,0.0,0.0,0.0,0.0,0.0,0.0,0.0,0.0,0.0,0.0,0.0,0.0,0.0,0.0,0.0,0.0,0.0,0.0408,0.1758,0.3912,0.5789,0.7102,0.9238,1.0717,1.0717,1.0717,1.0663,1.0507,1.0527,1.0534,1.0493,1.0629,1.0717,1.0717,1.0717,1.0717,1.0717,1.0717,1.0717,1.0717,1.0717,1.0717,1.0717,1.0717,1.0717,1.0717,1.0717,1.0717,-4.7244,-4.4273,-4.1271,-4.1539,-3.8605,-3.5591,-3.6014,-3.6024,-3.5897,-3.5902,-3.6712,-3.7168,-3.6758,-3.5567,-3.3854,-3.1993,-2.885,-2.5918,-2.4044,-2.3845,-2.3833,-2.3423,-2.5053,-2.5309,-2.3324,-2.1691,-1.9961,-1.7921,-1.569,-1.4299,-1.4299,-1.4299,-1.4299,-1.4299,-1.4299,-1.4299,-1.4299,-1.4299,-1.4299,-1.4299,-1.4,-1.3851,-1.3653,-0.8869,-0.4292,0.0,0.0,0.0,0.0,0.0,-0.2507,-0.6257,-0.6254,-0.875,-1.232,-1.2179,-1.0812,-0.902,-0.8907,-0.636,-0.3104,-0.2919,-0.1601,0.0,0.0,0.0,0.0,0.0,0.0,0.0,0.0,0.0,0.0,0.0,0.0,0.0,0.0,0.0,0.0,0.0,0.0,0.0,0.0138,0.3014,0.5447,0.551,0.844,1.0717,1.0717,1.0717,1.0663,1.0507,1.0622,1.0656,1.0507,1.0629,1.0717,1.0717,1.0717,1.0717,1.0717,1.0717,1.0717,1.0717,1.0717,1.0717,1.0717,1.0717,1.0717,1.0717,1.0717,1.0717,-4.3433,-4.2009,-4.0597,-3.8553,-3.7672,-3.7226,-3.7005,-3.6952,-3.6855,-3.6867,-3.6152,-3.5162,-3.3784,-3.188,-2.9609,-2.6938,-2.5111,-2.2959,-1.96,-2.0742,-2.0983,-1.8721,-2.0642,-2.1147,-1.8688,-1.9568,-1.9437,-1.7733,-1.563,-1.4299,-1.4299,-1.4299,-1.4299,-1.4299,-1.4299,-1.4299,-1.4299,-1.4299,-1.4251,-1.4143,-1.2282,-1.0651,-0.933,-0.6022,-0.2807,0.0,0.0,0.0,0.0,0.0,-0.2525,-0.6254,-0.6254,-0.8905,-1.2494,-1.2447,-1.1932,-1.1219,-0.9409,-0.7206,-0.467,-0.3313,-0.1591,0.0,0.0,0.0,0.0,0.0,0.0,0.0,0.0,0.0,0.0,0.0,0.0,0.0,0.0,0.0,0.0,0.0,0.0,0.0,0.0,0.3034,0.6266,0.859,0.9915,1.0717,1.0717,1.0717,1.0704,1.0649,1.069,1.0697,1.0649,1.069,1.0717,1.0717,1.0717,1.0717,1.0717,1.0717,1.0717,1.0717,1.0717,1.0717,1.0717,1.0717,1.0717,1.0724,1.0826,1.0819,-4.1511,-4.0955,-4.0185,-3.7738,-3.7096,-3.6979,-3.6478,-3.585,-3.5115,-3.4845,-3.3527,-3.2134,-3.0534,-2.7914,-2.5248,-2.2671,-2.099,-1.8846,-1.5918,-1.7545,-1.8128,-1.6343,-1.8201,-1.8683,-1.6216,-1.7548,-1.8014,-1.6434,-1.5082,-1.4299,-1.4299,-1.5168,-1.5513,-1.5513,-1.5513,-1.5513,-1.5513,-1.4646,-1.4224,-1.4068,-1.1572,-0.9261,-0.6874,-0.4533,-0.2161,0.0,0.0,0.0,0.0,0.0,-0.2525,-0.6254,-0.6254,-0.8905,-1.2501,-1.2501,-1.2467,-1.2219,-1.053,-0.8293,-0.573,-0.4353,-0.2184,0.0,0.0,0.0,0.0,0.0,0.0,0.0,0.0,0.0,0.0,0.0,0.0,0.0,0.0,0.0,0.0,0.0,0.0,0.0,0.0,0.3064,0.6731,1.0348,1.0833,1.0778,1.0724,1.0717,1.0717,1.0717,1.0717,1.0717,1.0717,1.0717,1.0717,1.0717,1.0717,1.0717,1.0717,1.0717,1.0717,1.0717,1.0717,1.0717,1.0717,1.0717,1.0751,1.0806,1.09,1.0894,-4.1361,-4.1046,-3.9889,-3.9116,-3.6793,-3.472,-3.4707,-3.31,-3.1181,-3.0176,-2.9312,-2.8314,-2.7058,-2.41,-2.1096,-1.9304,-1.653,-1.431,-1.3186,-1.4469,-1.559,-1.6082,-1.7472,-1.7751,-1.6046,-1.5926,-1.5591,-1.4208,-1.4204,-1.4292,-1.4299,-1.6553,-1.7763,-1.7763,-1.7763,-1.7763,-1.7763,-1.5506,-1.4217,-1.3901,-1.1468,-0.9108,-0.6639,-0.4216,-0.2184,-0.0168,0.0,0.0,-0.0162,-0.0159,-0.2508,-0.6257,-0.6414,-0.8905,-1.2501,-1.2501,-1.2413,-1.2126,-1.1971,-0.9495,-0.6169,-0.5796,-0.3116,0.0,0.0,0.0,0.0,0.0,0.0,0.0,0.0,0.0,0.0,0.0,0.0,0.0,0.0,0.0,0.0,0.0,0.0,0.0,0.0287,0.3245,0.6839,1.0606,1.1043,1.0894,1.0751,1.0724,1.0717,1.0717,1.0717,1.0717,1.0717,1.0717,1.0724,1.0731,1.0731,1.0738,1.0744,1.0738,1.0731,1.0731,1.0724,1.0717,1.0717,1.0724,1.0806,1.0948,1.0962,1.0968,-4.2093,-4.1473,-3.9898,-3.7018,-3.4951,-3.3238,-3.2591,-3.1571,-3.041,-2.8893,-2.7236,-2.539,-2.3403,-2.136,-1.9275,-1.6819,-1.5885,-1.4987,-1.3707,-1.4182,-1.4401,-1.4088,-1.4754,-1.4952,-1.4181,-1.4344,-1.4456,-1.4061,-1.4109,-1.4177,-1.4292,-1.6553,-1.7763,-1.7763,-1.7763,-1.7763,-1.7763,-1.5388,-1.328,-1.1561,-0.9003,-0.6686,-0.431,-0.2034,-0.1513,-0.2518,-0.0663,-0.0983,-0.2432,-0.2396,-0.3944,-0.6414,-0.7972,-1.0153,-1.2501,-1.2501,-1.1541,-1.0092,-0.9971,-0.8195,-0.5866,-0.4164,-0.1941,0.0,0.0,0.0,0.0,0.0,0.0,0.0,0.0,0.0,0.0,0.0,0.0,0.0,0.0,0.0,0.0,0.0,0.0,0.0871,0.3714,0.497,0.6915,1.0618,1.1043,1.0934,1.0894,1.0792,1.0717,1.0717,1.0717,1.0717,1.0717,1.0717,1.0772,1.088,1.0894,1.0941,1.1043,1.0948,1.0894,1.0894,1.0778,1.0717,1.0717,1.0833,1.0907,1.0955,1.1172,1.1219,-4.218,-4.146,-3.9623,-3.664,-3.3842,-3.1292,-3.0203,-2.8567,-2.6832,-2.4976,-2.3457,-2.1888,-2.0288,-1.8363,-1.6583,-1.5209,-1.4246,-1.3543,-1.3288,-1.3451,-1.3634,-1.3688,-1.3858,-1.3899,-1.3715,-1.3926,-1.4102,-1.4163,-1.417,-1.4211,-1.4292,-1.7422,-1.8802,-1.7755,-1.8802,-1.8279,-1.6202,-1.4906,-1.2966,-1.0712,-0.8165,-0.5851,-0.3637,-0.2207,-0.2184,-0.3355,-0.2971,-0.3589,-0.4693,-0.4616,-0.5821,-0.7816,-0.8905,-1.0624,-1.2347,-1.1405,-1.0469,-0.9201,-0.7245,-0.5676,-0.4588,-0.3328,-0.1516,0.0,0.0,0.0,0.0,0.0,0.0,0.0,0.0,0.0,0.0,0.0,0.0,0.0,0.0,0.0,0.0,0.0,0.0729,0.2182,0.5216,0.6482,0.8031,1.1025,1.0569,0.9859,0.9805,1.0309,1.0717,1.0717,1.0717,1.0717,1.0717,1.0717,1.0785,1.0941,1.0948,1.1016,1.1158,1.1023,1.0948,1.0948,1.0799,1.0717,1.0717,1.0873,1.0982,1.105,1.128,1.1307,-4.2102,-4.1065,-3.9039,-3.6109,-3.2395,-2.895,-2.7085,-2.4904,-2.2565,-2.0494,-1.9426,-1.8691,-1.809,-1.58,-1.4099,-1.4524,-1.2759,-1.1619,-1.2684,-1.2868,-1.3173,-1.3973,-1.3973,-1.3953,-1.4089,-1.4102,-1.4156,-1.4292,-1.4299,-1.4299,-1.4299,-1.8462,-1.9836,-1.7929,-1.9662,-1.8627,-1.4299,-1.4299,-1.3046,-1.0712,-0.8217,-0.5885,-0.3637,-0.3391,-0.3523,-0.3846,-0.5721,-0.663,-0.693,-0.6784,-0.7816,-0.9376,-0.9687,-1.0779,-1.1876,-0.9998,-0.9061,-0.8114,-0.4331,-0.2949,-0.2656,-0.2626,-0.1388,0.0,0.0,0.0,0.0,0.0,0.0,0.0,0.0,0.0,0.0,0.0,0.0,0.0,0.0,0.0,0.0147,0.0293,0.1756,0.3663,0.6054,0.7619,0.9479,1.1491,0.9965,0.8494,0.8526,0.9555,1.0339,1.0319,1.0585,1.0731,1.0751,1.0751,1.0826,1.0995,1.1009,1.107,1.1219,1.1063,1.0975,1.0975,1.0826,1.0744,1.0717,1.0914,1.1063,1.1165,1.1341,1.1341,-4.243,-4.0382,-3.7007,-3.0656,-2.8015,-2.6066,-2.2484,-2.1874,-2.163,-1.9573,-1.8838,-1.8384,-1.7769,-1.6612,-1.5612,-1.541,-1.4267,-1.3424,-1.3466,-1.3573,-1.3749,-1.4041,-1.4156,-1.4231,-1.4258,-1.4258,-1.4272,-1.4299,-1.4299,-1.4299,-1.4299,-1.6896,-1.8279,-1.7763,-1.8104,-1.7071,-1.4299,-1.4299,-1.3046,-1.0712,-0.8217,-0.5885,-0.3637,-0.3391,-0.4338,-0.5943,-0.635,0.0,-0.9085,-0.8959,-0.9061,-0.9532,-1.125,-1.1095,-0.9842,-0.9532,-0.7189,-0.4066,-0.3279,-0.2034,-0.047,-0.0464,-0.0311,0.0,0.0,0.0,0.0,0.0,0.0,0.0,0.0,0.0,0.0,0.0,0.0,0.0,0.0,0.0,0.0451,0.2253,0.2852,0.4188,0.7851,0.871,0.9557,1.1378,0.9912,0.8494,0.8526,0.8528,0.8407,0.8446,0.9775,1.0772,1.09,1.0907,1.1023,1.1294,1.1314,1.1382,1.1531,1.1274,1.1124,1.1124,1.0982,1.0846,1.0724,1.1118,1.126,1.1172,1.145,1.1497,-4.0916,-3.8116,-3.4534,-3.073,-2.8125,-2.5373,-2.1426,-2.0894,-2.046,-1.7616,-1.7559,-1.7889,-1.7435,-1.6513,-1.5736,-1.5711,-1.4241,-1.3302,-1.4102,-1.3647,-1.3492,-1.4116,-1.4258,-1.4299,-1.4299,-1.4299,-1.4299,-1.4299,-1.4299,-1.4299,-1.4299,-1.5344,-1.6553,-1.7763,-1.6553,-1.5513,-1.4299,-1.4299,-1.3046,-1.0712,-0.949,-0.7653,-0.5364,-0.6469,-0.7364,-0.8225,-0.943,-1.0451,-1.1124,-1.1149,-1.0934,-1.0934,-1.0934,-1.0314,-0.9061,-0.6874,-0.4847,-0.2974,-0.188,-0.0784,0.0,0.0,0.0,0.0,0.0,0.0,0.0,0.0,0.0,0.0,0.0,0.0,0.0,0.0,0.0,0.0,0.0,0.0,0.0605,0.2721,0.3924,0.5578,0.8595,0.9899,1.0583,1.0369,0.8489,0.7204,0.7068,0.6869,0.7065,0.8003,0.9808,1.0982,1.1056,1.1056,1.1151,1.1375,1.1389,1.1457,1.1613,1.1328,1.1165,1.1165,1.1023,1.0873,1.0724,1.1172,1.1314,1.1172,1.1477,1.1538,-3.8387,-3.551,-3.2481,-3.0694,-2.826,-2.5058,-2.091,-2.0291,-1.9561,-1.6102,-1.6605,-1.7515,-1.7288,-1.6524,-1.5928,-1.5977,-1.4048,-1.3021,-1.4364,-1.3457,-1.3051,-1.4041,-1.4245,-1.4299,-1.4299,-1.4299,-1.4299,-1.4299,-1.4299,-1.4299,-1.4299,-1.4299,-1.5168,-1.7071,-1.5344,-1.4299,-1.4299,-1.4299,-1.3401,-1.1427,-1.093,-0.959,-0.778,-0.9389,-1.0055,-0.9835,-1.2031,-1.2854,-1.2671,-1.2076,-1.1876,-1.156,-0.9532,-0.8439,-0.7656,-0.4393,-0.2825,-0.2194,-0.063,0.0,0.0,0.0,0.0,0.0,0.0,0.0,0.0,0.0,0.0,0.0,0.0,0.0,0.0,0.0,0.0,0.0,0.0,0.0,0.0763,0.3349,0.5018,0.685,0.9503,1.0812,1.1021,0.9308,0.6993,0.5424,0.5716,0.5709,0.6375,0.8158,1.0135,1.1179,1.1206,1.1212,1.1274,1.143,1.1443,1.1497,1.1613,1.1355,1.1212,1.1212,1.1104,1.0968,1.0819,1.1233,1.1362,1.1219,1.1491,1.1538,-3.4725,-3.3102,-3.141,-2.6933,-2.5549,-2.3877,-1.8659,-1.87,-1.9076,-1.603,-1.6605,-1.7569,-1.7542,-1.7477,-1.7105,-1.617,-1.4966,-1.3987,-1.3842,-1.3151,-1.2813,-1.36,-1.4048,-1.4299,-1.4299,-1.4299,-1.4299,-1.4299,-1.4299,-1.4299,-1.4299,-1.4299,-1.4476,-1.4646,-1.4476,-1.4299,-1.4299,-1.4299,-1.4122,-1.3938,-1.1547,-1.0386,-1.0194,-1.0157,-0.9937,-0.9728,-1.1993,-1.2793,0.0,-1.0474,-0.9687,-0.9532,-0.7345,-0.5318,-0.3603,-0.3169,-0.1899,-0.0315,0.0,0.0,0.0,0.0,0.0,0.0,0.0,0.0,0.0,0.0,0.0,0.0,0.0,0.0,0.0,0.0,0.0,0.0,0.0,0.0,0.1251,0.53,0.6078,0.7456,1.1384,1.058,0.9273,0.8918,0.5628,0.3816,0.5574,0.5757,0.6486,0.8515,1.0246,1.1219,1.1355,1.1369,1.1436,1.1592,1.1599,1.1606,1.1619,1.1457,1.1369,1.1369,1.1355,1.1274,1.1124,1.1443,1.1518,1.1375,1.1545,1.1538,-3.3427,-3.1911,-3.0198,-2.8074,-2.5948,-2.3653,-2.0134,-1.9197,-1.8281,-1.5923,-1.6605,-1.7528,-1.7355,-1.7328,-1.7252,-1.6838,-1.4812,-1.3626,-1.425,-1.2567,-1.1877,-1.3085,-1.3539,-1.3899,-1.4265,-1.4299,-1.4265,-1.417,-1.4163,-1.4122,-1.4027,-1.4197,-1.4299,-1.4299,-1.4299,-1.4299,-1.4299,-1.4299,-1.4299,-1.4299,-1.3197,-1.2533,-1.2448,-1.2264,-1.2032,-1.1769,-1.2675,-1.2192,0.0,-0.9713,-0.8594,-0.7345,-0.5162,-0.3929,-0.3009,-0.1753,-0.064,0.0,0.0,0.0,0.0,0.0,0.0,0.0,0.0,0.0,0.0,0.0,0.0,0.0,0.0,0.0,0.0,0.0,0.0,0.0,0.0,0.0,0.1255,0.5477,0.5318,0.6088,1.1491,0.9619,0.7407,0.728,0.5902,0.5115,0.591,0.7101,0.8563,1.0354,1.109,1.1463,1.1525,1.1531,1.1552,1.1613,1.1619,1.1619,1.1619,1.147,1.1389,1.1389,1.1389,1.1314,1.1165,1.147,1.1586,1.1531,1.1681,1.1714,-3.1217,-3.0097,-2.9165,-2.8843,-2.6477,-2.3405,-2.1106,-1.9521,-1.7864,-1.5851,-1.6605,-1.7515,-1.7315,-1.7275,-1.7248,-1.7168,-1.5198,-1.3696,-1.4299,-1.2512,-1.1582,-1.2436,-1.2691,-1.3146,-1.3838,-1.4102,-1.417,-1.4014,-1.4007,-1.3973,-1.3912,-1.4116,-1.4231,-1.4231,-1.4278,-1.4299,-1.4299,-1.4299,-1.4278,-1.4231,-1.4075,-1.3926,-1.3777,-1.3627,-1.3417,-1.3166,-1.2366,-1.1095,0.0,-0.8163,-0.6733,-0.519,-0.2991,-0.2221,-0.2086,-0.0484,0.0,0.0,0.0,0.0,0.0,0.0,0.0,0.0,0.0,0.0,0.0,0.0,0.0,0.0,0.0,0.0,0.0,0.0,0.0,0.0,0.0,0.0,0.1108,0.4701,0.4079,0.4711,0.9848,0.8283,0.6075,0.5388,0.5835,0.6267,0.6036,0.7831,0.9904,1.1757,1.1809,1.1714,1.1626,1.1619,1.1619,1.1619,1.1619,1.1619,1.1619,1.1518,1.1457,1.1457,1.1457,1.1402,1.1301,1.1558,1.1681,1.1687,1.183,1.1898,-2.7206,-2.7511,-2.8512,-2.8283,-2.5945,-2.3245,-2.0823,-1.9381,-1.7864,-1.5851,-1.6605,-1.7582,-1.7582,-1.7582,-1.7488,-1.7194,-1.6206,-1.5029,-1.3838,-1.2908,-1.2032,-1.1241,-1.145,-1.1993,-1.2888,-1.3641,-1.4007,-1.3858,-1.3844,-1.3912,-1.4061,-1.4075,-1.4075,-1.4075,-1.4224,-1.4299,-1.4299,-1.4299,-1.4224,-1.4075,-1.3919,-1.377,-1.3627,-1.3471,-1.3315,-1.2996,-1.0728,-0.9801,0.0,-0.487,-0.3152,-0.2868,-0.0799,0.0,0.0,0.0,0.0,0.0,0.0,0.0,0.0,0.0,0.0,0.0,0.0,0.0,0.0,0.0,0.0,0.0,0.0,0.0,0.0,0.0,0.0,0.0,0.0,0.0,0.0646,0.2674,0.3161,0.3809,0.5955,0.6257,0.5609,0.3392,0.4918,0.6267,0.6036,0.7831,0.9938,1.1904,1.206,1.1938,1.1647,1.1619,1.1619,1.1619,1.1619,1.1619,1.1619,1.1619,1.1619,1.1619,1.1619,1.1613,1.1613,1.1755,1.183,1.183,1.1986,1.206,-2.5285,-2.5299,-2.5519,-2.553,-2.3756,-2.1701,-2.1002,-1.9624,-1.8326,-1.7676,-1.7869,-1.7803,-1.6705,-1.6451,-1.6427,-1.634,-1.519,-1.4109,-1.378,-1.3313,-1.2641,-1.155,-1.2644,-1.3526,-1.3702,-1.3933,-1.4007,-1.3851,-1.3838,-1.3865,-1.3912,-1.4014,-1.4122,-1.4224,-1.4278,-1.4299,-1.4299,-1.4299,-1.4224,-1.4068,-1.3912,-1.377,-1.362,-1.3363,-1.3275,-1.315,-1.0773,-0.8922,-0.7321,-0.431,-0.2225,-0.0958,-0.032,0.0,0.0,0.0,0.0,0.0,0.0,0.0,0.0,0.0,0.0,0.0,0.0,0.0,0.0,0.0,0.0,0.0,0.0,0.0,0.0,0.0,0.0,0.0,0.0,0.0,0.0649,0.2732,0.192,0.2071,0.5704,0.3935,0.2817,0.4981,0.591,0.6829,0.8193,1.019,1.1702,1.223,1.2216,1.2135,1.1938,1.1925,1.1877,1.1769,1.1762,1.1721,1.1619,1.1619,1.1619,1.1619,1.1619,1.1619,1.1619,1.1762,1.1938,1.2149,1.2196,1.2216,-2.3184,-2.3664,-2.4149,-2.3974,-2.2583,-2.121,-2.0956,-1.9637,-1.826,-1.826,-1.825,-1.7642,-1.6018,-1.5658,-1.5658,-1.5658,-1.4886,-1.4439,-1.482,-1.4279,-1.3278,-1.1747,-1.282,-1.3627,-1.3417,-1.3709,-1.3865,-1.377,-1.3763,-1.381,-1.3926,-1.4021,-1.4143,-1.4292,-1.4299,-1.4299,-1.4299,-1.4245,-1.4136,-1.398,-1.3831,-1.3654,-1.3451,-1.3261,-1.286,-1.1891,-0.9562,-0.7267,0.0,-0.2888,-0.1121,0.0,0.0,0.0,0.0,0.0,0.0,0.0,0.0,0.0,0.0,0.0,0.0,0.0,0.0,0.0,0.0,0.0,0.0,0.0,0.0,0.0,0.0,0.0,0.0,0.0,0.0,0.0,0.0328,0.1617,0.0806,0.0802,0.349,0.2362,0.1725,0.3601,0.5942,0.7661,0.8128,1.0779,1.2467,1.2379,1.2372,1.2332,1.2237,1.2128,1.202,1.1925,1.1918,1.185,1.1708,1.1701,1.1674,1.1619,1.1674,1.1701,1.1701,1.1959,1.221,1.2454,1.2454,1.2454,0.0,-2.2589,-2.3721,-2.324,-2.2222,-2.1278,-2.0749,-1.9132,0.0,-1.7856,-1.7554,-1.6855,-1.5446,-1.5114,-1.5125,-1.5232,-1.5232,-1.5608,-1.6606,-1.5571,-1.3926,-1.1973,-1.2436,-1.2691,-1.2352,-1.3112,-1.3634,-1.3641,-1.3648,-1.3777,-1.4075,-1.4089,-1.415,-1.4292,-1.4292,-1.4285,-1.4285,-1.4129,-1.398,-1.3824,-1.3695,-1.3471,-1.3173,-1.2996,-1.1769,-0.9698,-0.7358,-0.5098,-0.3191,-0.0961,0.0,0.0,0.0,0.0,0.0,0.0,0.0,0.0,0.0,0.0,0.0,0.0,0.0,0.0,0.0,0.0,0.0,0.0,0.0,0.0,0.0,0.0,0.0,0.0,0.0,0.0,0.0,0.0,0.0,0.0,0.0,0.0,0.0,0.1571,0.2353,0.0629,0.5483,0.8604,0.6889,1.0169,1.2515,1.2501,1.2501,1.2501,1.2501,1.225,1.2088,1.2081,1.2081,1.2006,1.1857,1.1843,1.1782,1.1653,1.1789,1.187,1.1877,1.2311,1.2596,1.2745,1.2745,1.2745,-2.0164,0.0,-2.0779,-2.0617,-2.0411,-2.0077,0.0,-1.8164,-1.6923,-1.6747,-1.5748,-1.4406,-1.2745,-1.2413,-1.2745,-1.3957,-1.4067,-1.4755,-1.6774,-1.586,-1.5061,-1.5113,-1.4252,-1.3458,-1.2698,-1.3234,-1.3675,-1.3783,-1.379,-1.3926,-1.4231,-1.4245,-1.4265,-1.4299,-1.4183,-1.4129,-1.4129,-1.3973,-1.3824,-1.3682,-1.3648,-1.3471,-1.3166,-1.1415,-1.0378,-0.9542,-0.565,-0.3713,-0.3072,-0.0981,0.0,0.0,0.0,0.0,0.0,0.0,0.0,0.0,0.0,0.0,0.0,0.0,0.0,0.0,0.0,0.0,0.0,0.0,0.0,0.0,0.0,0.0,0.0,0.0,0.0,0.0,0.0,0.0,0.0,0.0,0.0,0.0,0.0,0.0483,0.1754,0.4493,0.6214,0.8076,1.0931,1.2043,1.263,1.2515,1.2501,1.2501,1.2501,1.244,1.2352,1.2244,1.2237,1.2169,1.2013,1.2006,1.1993,1.1959,1.2108,1.2237,1.2345,1.2569,1.2752,1.2908,1.2908,1.2908,-2.016,-2.0174,-2.0172,-1.9827,-1.9945,-1.9761,-1.91,-1.7667,-1.666,-1.6981,-1.5319,-1.3387,-1.2505,-1.1775,-1.1904,-1.3237,-1.3811,-1.4824,-1.7322,-1.6536,-1.5798,-1.5722,-1.4334,-1.3349,-1.3064,-1.3336,-1.3614,-1.3824,-1.3838,-1.3973,-1.4285,-1.4299,-1.4272,-1.4197,-1.4048,-1.3966,-1.3966,-1.3749,-1.3566,-1.3417,-1.3417,-1.3261,-1.2969,-1.0844,-0.9196,-0.8029,-0.466,-0.2575,-0.1614,-0.0493,0.0,0.0,0.0,0.0,0.0,0.0,0.0,0.0,0.0,0.0,0.0,0.0,0.0,0.0,0.0,0.0,0.0,0.0,0.0,0.0,0.0,0.0,0.0,0.0,0.0,0.0,0.0,0.0,0.0,0.0,0.0,0.0,0.0,0.0,0.0807,0.3241,0.5155,0.7373,0.9616,1.1543,1.2779,1.2623,1.2671,1.2684,1.261,1.2671,1.2651,1.2501,1.2556,1.2494,1.2271,1.2264,1.2264,1.2264,1.2413,1.2596,1.2807,1.2895,1.2976,1.3057,1.3057,1.3057,-2.0565,-2.0816,-2.069,-1.9979,-1.9958,-1.9891,-1.91,-1.7325,-1.6205,-1.7102,-1.4855,-1.2644,-1.2631,-1.1943,-1.1731,-1.3168,-1.4614,-1.6376,-1.8754,-1.7824,-1.6701,-1.5872,-1.4057,-1.2969,-1.3241,-1.3349,-1.3512,-1.379,-1.381,-1.3939,-1.4251,-1.4245,-1.4183,-1.4075,-1.3878,-1.3763,-1.3736,-1.3492,-1.3288,-1.3139,-1.3139,-1.2836,-1.2095,-1.0121,-0.8016,-0.5719,-0.3503,0.0,0.0,0.0,0.0,0.0,0.0,0.0,0.0,0.0,0.0,0.0,0.0,0.0,0.0,0.0,0.0,0.0,0.0,0.0,0.0,0.0,0.0,0.0,0.0,0.0,0.0,0.0,0.0,0.0,0.0,0.0,0.0,0.0,0.0,0.0,0.0,0.0,0.0163,0.0491,0.3905,0.6654,0.6978,1.0545,1.2935,1.2779,1.2881,1.2908,1.2779,1.2929,1.2963,1.2807,1.2901,1.2847,1.2583,1.2569,1.2569,1.2569,1.2718,1.2922,1.3173,1.3193,1.322,1.3241,1.3241,1.3254,-2.0358,-2.0969,-2.1543,-2.0397,-1.9958,-1.9631,-1.91,-1.6587,-1.4445,-1.4329,-1.1783,-0.9578,-0.9792,-1.0485,-1.1762,-1.3546,-1.7588,-2.1097,-2.2962,-2.062,-1.8777,-1.8762,-1.5586,-1.3268,-1.2698,-1.3098,-1.3471,-1.3648,-1.3661,-1.379,-1.4089,-1.398,-1.396,-1.4068,-1.3682,-1.3403,-1.3275,-1.3227,-1.3132,-1.299,-1.299,-1.193,-1.0024,-0.7965,-0.5707,-0.3454,0.0,-0.0318,0.0,0.0,0.0,0.0,0.0,0.0,0.0,0.0,0.0,0.0,0.0,0.0,0.0,0.0,0.0,0.0,0.0,0.0,0.0,0.0,0.0,0.0,0.0,0.0,0.0,0.0,0.0,0.0,0.0,0.0,0.0,0.0,0.0,0.0,0.0,0.0,0.0662,0.2669,0.4964,0.7226,0.9029,1.1492,1.3085,1.2942,1.2949,1.2949,1.2929,1.3173,1.3268,1.3112,1.3017,1.2942,1.2895,1.2888,1.2888,1.2888,1.303,1.3125,1.3173,1.3302,1.3431,1.3559,1.3559,1.3627,-2.0537,-2.0779,-2.0916,-2.0564,-2.0602,-2.0554,-1.9618,-1.6786,-1.4589,-1.4911,-1.1738,-0.9463,-1.1339,-1.1868,-1.3292,-1.6926,-2.0048,-2.2002,-2.1957,-1.9867,-1.7937,-1.7023,-1.4654,-1.3105,-1.2996,-1.3241,-1.3464,-1.3614,-1.3627,-1.3722,-1.3933,-1.3878,-1.3804,-1.3709,-1.3505,-1.3254,-1.2935,-1.2935,-1.2861,-1.2712,-1.1671,-1.0521,-0.9453,-0.6188,-0.4128,-0.3004,0.0,0.0,0.0,0.0,0.0,0.0,0.0,0.0,0.0,0.0,0.0,0.0,0.0,0.0,0.0,0.0,0.0,0.0,0.0,0.0,0.0,0.0,0.0,0.0,0.0,0.0,0.0,0.0,0.0,0.0,0.0,0.0,0.0,0.0,0.0,0.0,0.0,0.0,0.0335,0.1344,0.451,0.6981,0.7974,1.1129,1.3241,1.3091,1.322,1.3254,1.3091,1.3424,1.3573,1.3431,1.32,1.3078,1.3078,1.3078,1.3112,1.32,1.3342,1.3417,1.3417,1.3492,1.3559,1.3627,1.3627,1.3702,-2.0676,-2.0537,-2.0561,-2.044,-2.0838,-2.0977,-2.0315,-1.7778,-1.5697,-1.608,-1.3156,-1.1098,-1.3079,-1.3839,-1.5319,-1.9329,-2.1171,-2.1533,-2.0241,-1.8412,-1.6833,-1.5507,-1.3929,-1.301,-1.3315,-1.3349,-1.3383,-1.3464,-1.3471,-1.3532,-1.3675,-1.3654,-1.3546,-1.3356,-1.3281,-1.3078,-1.2732,-1.2181,-1.1953,-1.1721,-1.0252,-0.8988,-0.7812,-0.4737,-0.3016,-0.2224,-0.0636,0.0,0.0,0.0,0.0,0.0,0.0,0.0,0.0,0.0,0.0,0.0,0.0,0.0,0.0,0.0,0.0,0.0,0.0,0.0,0.0,0.0,0.0,0.0,0.0,0.0,0.0,0.0,0.0,0.0,0.0,0.0,0.0,0.0,0.0,0.0,0.0,0.0,0.0169,0.0674,0.4195,0.6874,0.7398,1.0926,1.3424,1.3336,1.3539,1.36,1.3397,1.3668,1.381,1.3736,1.3478,1.3329,1.3329,1.3329,1.3383,1.3498,1.362,1.3682,1.3682,1.3682,1.3695,1.3736,1.3736,1.381,-2.0397,-2.0807,-2.1278,-2.0087,-1.9685,-1.9852,-2.1128,-1.9575,-1.7497,-1.6354,-1.5724,-1.4767,-1.2565,-1.513,-1.7766,-1.8335,-1.9866,-2.0751,-2.0061,-1.7962,-1.6751,-1.6965,-1.4901,-1.3308,-1.32,-1.3186,-1.3139,-1.3017,-1.301,-1.3071,-1.3214,-1.3098,-1.3078,-1.3186,-1.2922,-1.2766,-1.2732,-1.0732,-0.9587,-0.9687,-0.9537,-0.7349,-0.3599,-0.329,-0.2039,-0.0157,0.0,0.0,0.0,0.0,0.0,0.0,0.0,0.0,0.0,0.0,0.0,0.0,0.0,0.0,0.0,0.0,0.0,0.0,0.0,0.0,0.0,0.0,0.0,0.0,0.0,0.0,0.0,0.0,0.0,0.0,0.0,0.0,0.0,0.0,0.0,0.0,0.0,0.0,0.0681,0.2691,0.5198,0.7566,0.968,1.2077,1.3661,1.3777,1.381,1.3871,1.3994,1.3905,1.3899,1.4034,1.3885,1.379,1.379,1.379,1.3797,1.381,1.3817,1.3824,1.3824,1.3824,1.3899,1.4041,1.4041,1.4122,-2.0537,-2.1078,-2.1365,-2.0554,-2.0101,-2.0294,-2.1541,-2.0266,-1.8315,-1.652,-1.5517,-1.4719,-1.4334,-1.6198,-1.8046,-1.9277,-1.9736,-1.9442,-1.8017,-1.7225,-1.6319,-1.4961,-1.3922,-1.3342,-1.3186,-1.3091,-1.2976,-1.2827,-1.282,-1.28,-1.2759,-1.2793,-1.28,-1.2759,-1.2644,-1.2549,-1.2461,-1.0404,-0.8663,-0.7333,-0.6008,-0.466,-0.313,-0.1724,-0.0785,0.0,0.0,0.0,0.0,0.0,0.0,0.0,0.0,0.0,0.0,0.0,0.0,0.0,0.0,0.0,0.0,0.0,0.0,0.0,0.0,0.0,0.0,0.0,0.0,0.0,0.0,0.0,0.0,0.0,0.0,0.0,0.0,0.0,0.0,0.0,0.0,0.0,0.0,0.0,0.0862,0.3086,0.5474,0.7704,1.0139,1.238,1.3783,1.3838,1.3838,1.3939,1.419,1.4075,1.4048,1.4204,1.398,1.3838,1.3838,1.3838,1.3885,1.398,1.3987,1.3987,1.3987,1.3987,1.4014,1.4075,1.4075,1.4156,-2.069,-2.0944,-2.106,-2.0704,-2.0456,-2.0715,-2.2153,-2.063,-1.8874,-1.8391,-1.6554,-1.5411,-1.6437,-1.6867,-1.7565,-1.8958,-1.8643,-1.7584,-1.5771,-1.5538,-1.5058,-1.3501,-1.3288,-1.318,-1.2983,-1.2874,-1.2732,-1.2535,-1.2522,-1.2474,-1.2366,-1.2461,-1.2474,-1.2366,-1.2366,-1.2007,-1.1296,-0.919,-0.7203,-0.5127,-0.3047,-0.2157,-0.2026,-0.0627,0.0,0.0,0.0,0.0,0.0,0.0,0.0,0.0,0.0,0.0,0.0,0.0,0.0,0.0,0.0,0.0,0.0,0.0,0.0,0.0,0.0,0.0,0.0,0.0,0.0,0.0,0.0,0.0,0.0,0.0,0.0,0.0,0.0,0.0,0.0,0.0,0.0,0.0,0.0,0.0,0.1046,0.416,0.5885,0.7964,1.1296,1.3038,1.3933,1.398,1.3987,1.4068,1.4285,1.4204,1.419,1.4292,1.4102,1.3987,1.3987,1.3987,1.4034,1.4143,1.4143,1.4143,1.4143,1.4143,1.4143,1.4143,1.4143,1.4197,-2.0816,-2.0397,-2.0215,-2.0169,-2.0479,-2.1174,-2.2947,-2.0984,-1.9432,-2.2168,-1.9542,-1.7321,-1.8237,-1.7291,-1.6478,-1.6675,-1.6339,-1.5333,-1.3659,-1.3234,-1.3125,-1.3166,-1.3044,-1.284,-1.2528,-1.2501,-1.2372,-1.2081,-1.206,-1.206,-1.206,-1.206,-1.206,-1.206,-1.206,-1.1145,-0.9185,-0.6989,-0.5063,-0.3021,-0.1059,0.0,0.0,0.0,0.0,0.0,0.0,0.0,0.0,0.0,0.0,0.0,0.0,0.0,0.0,0.0,0.0,0.0,0.0,0.0,0.0,0.0,0.0,0.0,0.0,0.0,0.0,0.0,0.0,0.0,0.0,0.0,0.0,0.0,0.0,0.0,0.0,0.0,0.0,0.0,0.0,0.0,0.0,0.0,0.1582,0.6243,0.6921,0.8684,1.3526,1.4075,1.4129,1.4285,1.4299,1.4299,1.4299,1.4299,1.4299,1.4299,1.4299,1.4299,1.4299,1.4299,1.4299,1.4299,1.4299,1.4299,1.4299,1.4299,1.4299,1.4299,1.4299,1.4299,-2.0711,-2.1109,-2.1362,-2.0949,-2.1327,-2.223,-2.3623,-2.289,-2.1497,-2.021,-1.6401,-1.3845,-1.519,-1.4428,-1.3787,-1.4762,-1.4307,-1.3533,-1.3204,-1.3012,-1.307,-1.2883,-1.2793,-1.2603,-1.2353,-1.2311,-1.2108,-1.1911,-1.1898,-1.1857,-1.1755,-1.1843,-1.1898,-1.1898,-1.0558,-0.9519,-0.8923,-0.5583,-0.3514,-0.2943,-0.0893,0.0,0.0,0.0,0.0,0.0,0.0,0.0,0.0,0.0,0.0,0.0,0.0,0.0,0.0,0.0,0.0,0.0,0.0,0.0,0.0,0.0,0.0,0.0,0.0,0.0,0.0,0.0,0.0,0.0,0.0,0.0,0.0,0.0,0.0,0.0,0.0,0.0,0.0,0.0,0.0,0.0,0.0,0.0,0.107,0.4079,0.4606,0.6381,1.1015,1.3161,1.4251,1.4292,1.4299,1.4299,1.4299,1.4299,1.4299,1.4299,1.4299,1.4299,1.4299,1.4299,1.4299,1.4299,1.4299,1.4299,1.4299,1.4299,1.4299,1.4299,1.4299,1.4299,-2.0737,-2.1051,-2.1324,-2.1506,-2.2171,-2.3006,-2.4065,-2.3807,-2.2307,-1.8688,-1.5544,-1.3774,-1.4523,-1.3428,-1.2813,-1.4561,-1.3669,-1.2808,-1.2916,-1.2876,-1.2695,-1.2635,-1.242,-1.2126,-1.2012,-1.1837,-1.1796,-1.1579,-1.1619,-1.1619,-1.1531,-1.1667,-1.1424,-1.063,-0.9463,-0.801,-0.6555,-0.4052,-0.2459,-0.1748,-0.0591,0.0,0.0,0.0,0.0,0.0,0.0,0.0,0.0,0.0,0.0,0.0,0.0,0.0,0.0,0.0,0.0,0.0,0.0,0.0,0.0,0.0,0.0,0.0,0.0,0.0,0.0,0.0,0.0,0.0,0.0,0.0,0.0169,0.12,0.0692,0.0349,0.124,0.0714,0.0,0.0,0.0,0.0,0.0,0.0,0.1076,0.4472,0.6611,0.893,1.1788,1.3401,1.4299,1.4299,1.4299,1.4299,1.4299,1.4299,1.4299,1.4299,1.4299,1.4299,1.4299,1.4299,1.4299,1.4299,1.4299,1.4299,1.4299,1.4299,1.4299,1.4299,1.436,1.4387,-2.0842,-2.0725,-2.0753,-2.2118,-2.3046,-2.3731,-2.4553,-2.3966,-2.1976,-1.7485,-1.6328,-1.598,-1.5293,-1.3742,-1.3045,-1.5208,-1.388,-1.269,-1.2908,-1.2615,-1.2367,-1.2311,-1.2033,-1.1744,-1.1572,-1.1409,-1.1302,-1.1172,-1.1287,-1.1369,-1.1369,-1.1355,-1.05,-0.8807,-0.8379,-0.6532,-0.2989,-0.2705,-0.1722,0.0,0.0,0.0,0.0,0.0,0.0,0.0,0.0,0.0,0.0,0.0,0.0,0.0,0.0,0.0,0.0,0.0,0.0,0.0,0.0,0.0,0.0,0.0,0.0,0.0,0.0,0.0,0.0,0.0,0.0,0.0,0.0,0.0,0.0677,0.3106,0.1736,0.0524,0.2852,0.1614,0.0,0.0,0.0,0.0,0.0,0.0,0.1614,0.6079,1.0895,1.3938,1.3938,1.4122,1.4299,1.4299,1.4299,1.4299,1.4299,1.4299,1.4299,1.4299,1.4299,1.4299,1.4299,1.4299,1.4299,1.4299,1.4299,1.4299,1.4299,1.4312,1.4319,1.4326,1.4468,1.4529,-2.0656,-2.1379,-2.216,-2.2937,-2.4262,-2.5544,-2.5622,-2.3064,-2.0098,-1.8281,-1.564,-1.3742,-1.3569,-1.3231,-1.3077,-1.3584,-1.3091,-1.252,-1.2589,-1.2258,-1.1837,-1.175,-1.1643,-1.1362,-1.1247,-1.12,-1.1262,-1.12,-1.1289,-1.1212,-1.1212,-0.998,-0.8997,-0.8547,-0.5751,-0.3792,-0.295,-0.1407,-0.0425,0.0,0.0,0.0,0.0,0.0,0.0,0.0,0.0,0.0,0.0,0.0,0.0,0.0,0.0,0.0,0.0,0.0,0.0,0.0,0.0,0.0,0.0,0.0,0.0,0.0,0.0,0.0,0.0,0.0,0.0,0.0,0.0,0.0,0.0677,0.3106,0.1736,0.0175,0.0714,0.0359,0.0,0.0,0.0,0.0,0.0,0.0,0.1076,0.3938,0.8397,1.1433,1.1433,1.3046,1.4299,1.4299,1.4299,1.4299,1.4299,1.4299,1.4299,1.4299,1.4299,1.4299,1.4299,1.4299,1.4299,1.4299,1.4299,1.4299,1.4299,1.4414,1.4468,1.4468,1.4618,1.4692,-2.0247,-2.0999,-2.2057,-2.3786,-2.5119,-2.6017,-2.5846,-2.2412,-1.9243,-1.8481,-1.5465,-1.2969,-1.2802,-1.2802,-1.2868,-1.2718,-1.2601,-1.2437,-1.2319,-1.1962,-1.166,-1.1511,-1.1331,-1.107,-1.1024,-1.0953,-1.1015,-1.1015,-1.1063,-1.071,-0.9823,-0.9032,-0.7659,-0.5851,-0.3894,-0.2492,-0.1511,-0.0554,0.0,0.0,0.0,0.0,0.0,0.0,0.0,0.0,0.0,0.0,0.0,0.0,0.0,0.0,0.0,0.0,0.0,0.0,0.0,0.0,0.0,0.0,0.0,0.0,0.0,0.0,0.0,0.0,0.0,0.0,0.0,0.0,0.0,0.0,0.0341,0.1557,0.0868,0.035,0.1428,0.0897,0.0,0.0,0.0,0.0359,0.1614,0.358,0.5544,0.6793,1.0002,1.2503,1.2503,1.3578,1.4299,1.4299,1.4299,1.4299,1.4299,1.436,1.4401,1.4401,1.4468,1.4509,1.4509,1.4509,1.4475,1.4401,1.4475,1.4509,1.4509,1.4584,1.4618,1.4624,1.478,1.4889,-1.9689,-2.0615,-2.1728,-2.4393,-2.5531,-2.5806,-2.5596,-2.2476,-1.9348,-1.8481,-1.537,-1.2852,-1.2958,-1.3055,-1.302,-1.2965,-1.2888,-1.2491,-1.2135,-1.177,-1.1537,-1.1347,-1.0996,-1.0857,-1.0857,-1.0724,-1.0717,-1.0717,-1.0452,-0.9831,-0.8324,-0.7835,-0.6073,-0.2905,-0.2614,-0.1636,0.0,0.0,0.0,0.0,0.0,0.0,0.0,0.0,0.0,0.0,0.0,0.0,0.0,0.0,0.0,0.0,0.0,0.0,0.0,0.0,0.0,0.0,0.0,0.0,0.0,0.0,0.0,0.0,0.0,0.0,0.0,0.0,0.0,0.0,0.0,0.0,0.0,0.0,0.0,0.0526,0.2498,0.1434,0.0,0.0,0.0359,0.1434,0.3759,0.7862,1.0717,1.0717,1.2686,1.4299,1.4299,1.4299,1.4299,1.4299,1.4299,1.4312,1.4333,1.4441,1.4523,1.455,1.4672,1.474,1.474,1.4767,1.4719,1.459,1.4692,1.474,1.474,1.4767,1.4794,1.4821,1.4977,1.5126,-1.9362,-2.1022,-2.2999,-2.4634,-2.5291,-2.5583,-2.5458,-2.3301,-2.0659,-1.8507,-1.4916,-1.2809,-1.4637,-1.4728,-1.4662,-1.4814,-1.4554,-1.3809,-1.1928,-1.1469,-1.1248,-1.0932,-1.0857,-1.0724,-1.0724,-1.0717,-1.0717,-1.0717,-0.9221,-0.8286,-0.8035,-0.5101,-0.3228,-0.269,-0.1213,-0.027,0.0,0.0,0.0,0.0,0.0,0.0,0.0,0.0,0.0,0.0,0.0,0.0,0.0,0.0,0.0,0.0,0.0,0.0,0.0,0.0,0.0,0.0,0.0,0.0,0.0,0.0,0.0,0.0,0.0,0.0,0.0,0.0,0.0,0.0,0.0,0.0,0.0,0.0,0.0,0.0,0.0358,0.0179,0.0,0.0,0.1614,0.3938,0.6255,0.893,1.0717,1.0717,1.2686,1.4299,1.4299,1.4299,1.4299,1.4299,1.4299,1.4346,1.4475,1.4502,1.457,1.4699,1.4726,1.474,1.474,1.4869,1.493,1.4909,1.4801,1.474,1.474,1.4875,1.5004,1.5126,1.5282,1.5432,-1.9527,-2.2124,-2.4398,-2.4315,-2.5185,-2.5763,-2.4901,-2.2871,-2.0859,-1.9621,-1.7017,-1.5015,-1.5015,-1.5883,-1.6186,-1.518,-1.4805,-1.3858,-1.177,-1.1188,-1.1016,-1.0891,-1.0724,-1.0717,-1.0717,-1.0585,-1.0174,-0.9221,-0.8408,-0.7062,-0.5185,-0.3613,-0.2283,-0.1208,-0.0403,0.0,0.0,0.0,0.0,0.0,0.0,0.0,0.0,0.0,0.0,0.0,0.0,0.0,0.0,0.0,0.0,0.0,0.0,0.0,0.0,0.0,0.0,0.0,0.0,0.0,0.0,0.0,0.0,0.0,0.0,0.0,0.0,0.0,0.0,0.0,0.0,0.0,0.0,0.0,0.0,0.0,0.0,0.0,0.0359,0.1793,0.3938,0.6258,0.8753,1.1072,1.2686,1.2686,1.3584,1.4299,1.4299,1.4299,1.4299,1.4299,1.4373,1.4441,1.4509,1.4672,1.4801,1.4862,1.5025,1.5113,1.5113,1.5262,1.5343,1.5343,1.5106,1.5031,1.5113,1.5181,1.5296,1.5438,1.5506,1.5622,-1.9903,-2.2364,-2.4509,-2.4303,-2.4674,-2.5069,-2.4573,-2.2855,-2.1266,-2.0533,-1.9427,-1.8131,-1.6558,-1.6894,-1.7165,-1.5734,-1.4877,-1.3642,-1.1557,-1.1009,-1.0857,-1.0857,-1.0724,-1.0585,-1.0585,-1.0585,-0.9707,-0.8107,-0.7422,-0.5874,-0.2798,-0.228,-0.1346,0.0,0.0,0.0,0.0,0.0,0.0,0.0,0.0,0.0,0.0,0.0,0.0,0.0,0.0,0.0,0.0,0.0,0.0,0.0,0.0,0.0,0.0,0.0,0.0,0.0,0.0,0.0,0.0,0.0,0.0,0.0,0.0,0.0,0.0,0.0,0.0,0.0,0.0,0.0,0.0,0.0,0.0,0.0,0.0,0.0,0.0897,0.3938,0.5901,0.804,1.1072,1.3046,1.4299,1.4299,1.4333,1.4353,1.4353,1.4353,1.4353,1.4353,1.4448,1.4529,1.4563,1.4848,1.5025,1.5025,1.5303,1.5452,1.5411,1.556,1.5642,1.5642,1.5411,1.5357,1.5466,1.5466,1.5547,1.5689,1.5689,1.5771,-2.0358,-2.0987,-2.2196,-2.4743,-2.3819,-2.2766,-2.4885,-2.407,-2.2337,-2.0545,-2.1446,-2.2035,-2.011,-1.8328,-1.7305,-1.7308,-1.5551,-1.3467,-1.1263,-1.0877,-1.0857,-1.0724,-1.0585,-1.0452,-1.0452,-1.0445,-0.9552,-0.7899,-0.6251,-0.4445,-0.2827,-0.1076,-0.0135,0.0,0.0,0.0,0.0,0.0,0.0,0.0,0.0,0.0,0.0,0.0,0.0,0.0,0.0,0.0,0.0,0.0,0.0,0.0,0.0,0.0,0.0,0.0,0.0,0.0,0.0,0.0,0.0,0.0,0.0,0.0,0.0,0.0,0.0,0.0,0.0,0.0,0.0,0.0,0.0,0.0,0.0,0.0,0.0,0.0,0.1434,0.6076,0.6968,0.8575,1.3224,1.4299,1.4299,1.4299,1.4414,1.4502,1.4502,1.4502,1.4502,1.4502,1.4509,1.457,1.4713,1.4997,1.5174,1.5174,1.5459,1.556,1.5418,1.556,1.5642,1.5642,1.5622,1.5622,1.5628,1.5628,1.5703,1.5845,1.5845,1.5927,-1.9498,-2.1433,-2.3431,-2.2151,-2.2303,-2.2644,-2.2663,-2.2434,-2.2151,-2.1456,-2.1883,-2.1763,-1.9987,-1.9267,-1.8539,-1.7591,-1.5347,-1.3078,-1.1024,-1.0585,-1.0452,-1.0445,-1.0445,-1.0431,-1.0314,-1.0273,-0.9032,-0.6233,-0.5401,-0.383,-0.1147,-0.0396,0.0,0.0,0.0,0.0,0.0,0.0,0.0,0.0,0.0,0.0,0.0,0.0,0.0,0.0,0.0,0.0,0.0,0.0,0.0,0.0,0.0,0.0,0.0,0.0,0.0,0.0,0.0,0.0,0.0,0.0,0.0,0.0,0.0,0.0,0.0,0.0,0.0,0.0,0.0,0.0,0.0,0.0,0.0,0.0,0.0,0.0,0.1434,0.6258,0.7146,0.8591,1.3515,1.4434,1.4434,1.4434,1.4482,1.4509,1.4509,1.4509,1.455,1.4645,1.4746,1.4828,1.4882,1.516,1.533,1.533,1.5608,1.575,1.5696,1.5839,1.592,1.592,1.592,1.5872,1.5778,1.5778,1.5852,1.6001,1.6001,1.6029,-1.9949,-2.1312,-2.2791,-2.1061,-2.1147,-2.1603,-2.2078,-2.1811,-2.1692,-2.2305,-2.2236,-2.1411,-1.9567,-1.8928,-1.805,-1.6486,-1.4174,-1.2056,-1.0719,-1.035,-1.029,-1.029,-1.0283,-1.0263,-1.0236,-1.0072,-0.8575,-0.524,-0.4923,-0.3463,-0.0123,0.0,0.0,0.0,0.0,0.0,0.0,0.0,0.0,0.0,0.0,0.0,0.0,0.0,0.0,0.0,0.0,0.0,0.0,0.0,0.0,0.0,0.0,0.0,0.0,0.0,0.0,0.0,0.0,0.0,0.0,0.0,0.0,0.0,0.0,0.0,0.0,0.0,0.0,0.0,0.0,0.0,0.0,0.0,0.0,0.0,0.0,0.0718,0.2332,0.6464,0.79,0.9724,1.3829,1.459,1.459,1.459,1.4631,1.4665,1.4665,1.4665,1.4706,1.4808,1.495,1.5038,1.5038,1.5357,1.554,1.5493,1.5764,1.5906,1.5852,1.6001,1.6083,1.6083,1.6083,1.6035,1.5934,1.5934,1.5981,1.6083,1.6083,1.6083,0.0,0.0,0.0,-2.1771,-2.0361,-1.9569,-2.3342,-2.2453,-2.1231,-2.2974,-2.268,-2.1464,-1.9328,-1.7369,-1.5514,-1.3692,-1.1878,-1.0602,-1.0324,-1.0273,-1.0322,-1.0322,-1.0072,-0.995,-0.995,-0.9822,-0.8447,-0.5118,-0.4923,-0.3463,-0.0123,0.0,0.0,0.0,0.0,0.0,0.0,0.0,0.0,0.0,0.0,0.0,0.0,0.0,0.0,0.0,0.0,0.0,0.0,0.0,0.0,0.0,0.0,0.0,0.0,0.0,0.0,0.0,0.0,0.0,0.0,0.0,0.0,0.0,0.0,0.0,0.0,0.0,0.0,0.0,0.0,0.0,0.0,0.0,0.0,0.0,0.018,0.1972,0.4489,0.6887,0.9251,1.1645,1.4348,1.4746,1.4746,1.4746,1.4875,1.497,1.497,1.4977,1.4977,1.4984,1.5113,1.5194,1.5194,1.5601,1.5791,1.5655,1.592,1.6015,1.5866,1.6001,1.6083,1.6083,1.6083,1.6083,1.6083,1.6083,1.6083,1.6083,1.6083,1.6083,-2.0426,0.0,0.0,0.0,0.0,0.0,-2.1289,-2.2574,-2.3438,-2.2706,-2.2886,-2.1905,-1.7573,-1.6343,-1.4957,-1.1858,-1.0656,-1.0156,-1.0149,-0.9888,-0.9822,-0.9943,-0.9822,-0.97,-0.9822,-0.9822,-0.8447,0.0,-0.4923,-0.3463,-0.0123,0.0,0.0,0.0,0.0,0.0,0.0,0.0,0.0,0.0,0.0,0.0,0.0,0.0,0.0,0.0,0.0,0.0,0.0,0.0,0.0,0.0,0.0,0.0,0.0,0.0,0.0,0.0,0.0,0.0,0.0,0.0,0.0,0.0,0.0,0.0,0.0,0.0,0.0,0.0,0.0,0.0,0.0,0.0,0.0,0.0539,0.2353,0.4706,0.6516,0.7258,0.949,1.1958,1.4507,1.4909,1.4909,1.4909,1.4943,1.497,1.497,1.5059,1.5167,1.5276,1.5425,1.5513,1.5513,1.5723,1.5839,1.5798,1.5974,1.6062,1.6022,1.6056,1.6083,1.6083,1.6083,1.6083,1.6083,1.6083,1.6083,1.6083,1.6083,1.6144,-1.9864,-1.9211,-1.8548,-1.782,0.0,0.0,-2.1294,-2.2958,-2.4072,-2.3442,-2.3354,-2.2143,-1.7825,-1.6274,-1.4709,-1.1939,-1.0601,-0.9935,-0.9971,-0.9754,-0.9607,-0.9607,-0.9673,-0.9572,-0.9572,-0.9694,-0.8326,-0.5118,-0.4804,-0.3355,-0.0122,0.0,0.0,0.0,0.0,0.0,0.0,0.0,0.0,0.0,0.0,0.0,0.0,0.0,0.0,0.0,0.0,0.0,0.0,0.0,0.0,0.0,0.0,0.0,0.0,0.0,0.0,0.0,0.0,0.0,0.0,0.0,0.0,0.0,0.0,0.0,0.0,0.0,0.0,0.0,0.0,0.0,0.0,0.0,0.0718,0.1978,0.3448,0.6559,0.8957,0.8998,1.1074,1.3204,1.4845,1.5059,1.5059,1.5059,1.5113,1.5153,1.5153,1.5282,1.5404,1.5499,1.5642,1.573,1.573,1.5866,1.5947,1.5947,1.6035,1.6083,1.6083,1.6083,1.6083,1.6083,1.6144,1.6205,1.6266,1.6144,1.6117,1.6178,1.6178,1.6252,-1.9642,-1.8603,-1.7582,-1.7582,-1.8708,0.0,-2.2363,-2.3503,-2.4223,-2.4417,-2.3819,-2.2126,-1.8668,-1.6452,-1.468,-1.2807,-1.1083,-0.9917,-0.9842,-0.968,-0.9564,-0.9468,-0.9525,-0.9499,-0.9438,-0.9385,-0.8119,-0.4944,-0.4389,-0.2976,-0.0119,0.0,0.0,0.0,0.0,0.0,0.0,0.0,0.0,0.0,0.0,0.0,0.0,0.0,0.0,0.0,0.0,0.0,0.0,0.0,0.0,0.0,0.0,0.0,0.0,0.0,0.0,0.0,0.0,0.0,0.0,0.0,0.0,0.0,0.0,0.0,0.0,0.0,0.0,0.0,0.0,0.0,0.0,0.0,0.1794,0.3777,0.4179,0.7878,1.1284,1.1774,1.3492,1.5038,1.5181,1.5208,1.5215,1.5228,1.535,1.5438,1.5438,1.5567,1.5662,1.5662,1.5791,1.5879,1.5879,1.6001,1.6083,1.6083,1.6083,1.6083,1.6083,1.6083,1.6083,1.6083,1.6232,1.6381,1.6524,1.6259,1.6198,1.6334,1.6334,1.6408,-1.9777,-1.8603,-1.7582,-1.7582,-1.942,0.0,-2.1824,-2.4221,-2.5687,-2.3361,-2.3357,-2.1955,-1.6395,-1.5032,-1.3712,-1.0711,-1.0051,-0.9842,-0.9647,-0.9591,-0.9571,-0.9557,-0.9615,-0.9537,-0.9526,-0.8555,-0.692,-0.4863,-0.2361,-0.0686,0.0,0.0,0.0,0.0,0.0,0.0,0.0,0.0,0.0,0.0,0.0,0.0,0.0,0.0,0.0,0.0,0.0,0.0,0.0,0.0,0.0,0.0,0.0,0.0,0.0,0.0,0.0,0.0,0.0,0.0,0.0,0.0,0.0,0.0,0.0,0.0,0.0,0.0,0.0,0.0,0.0,0.0,0.0,0.0,0.1984,0.4363,0.6419,0.9254,1.1966,1.3977,1.4759,1.5187,1.5343,1.5364,1.5404,1.5533,1.5574,1.5594,1.5594,1.5723,1.5811,1.5811,1.5947,1.6035,1.6035,1.6062,1.6083,1.6083,1.6083,1.6083,1.6083,1.6083,1.6083,1.6083,1.6232,1.6381,1.6524,1.6463,1.6449,1.6483,1.6483,1.6564,-1.8787,-1.8603,-1.8603,-1.8603,-2.0641,0.0,0.0,-2.5071,-2.621,-2.3409,-2.3201,-2.2019,-1.6809,-1.5098,-1.3575,-1.1256,-1.0321,-0.9694,-0.9323,-0.9446,-0.9509,-0.955,-0.9553,-0.9496,-0.9418,-0.8105,-0.6168,-0.3654,-0.1281,0.0,0.0,0.0,0.0,0.0,0.0,0.0,0.0,0.0,0.0,0.0,0.0,0.0,0.0,0.0,0.0,0.0,0.0,0.0,0.0,0.0,0.0,0.0,0.0,0.0,0.0,0.0,0.0,0.0,0.0,0.0,0.0,0.0,0.0,0.0,0.0,0.0,0.0,0.0,0.0,0.0,0.0,0.0,0.0362,0.1627,0.3818,0.6236,0.8889,1.1367,1.3529,1.506,1.5296,1.5323,1.5398,1.5472,1.5554,1.5628,1.5703,1.5744,1.5744,1.5872,1.5967,1.5967,1.6035,1.6083,1.6083,1.6083,1.6083,1.6083,1.6083,1.6083,1.6083,1.6157,1.6266,1.6415,1.649,1.6605,1.6754,1.6754,1.6707,1.6632,1.6632,1.672,-1.7782,-1.8394,-1.9332,-1.9524,-2.1456,-2.3456,0.0,0.0,0.0,-2.3448,-2.298,-2.1729,-1.731,-1.5117,-1.3451,-1.1748,-1.048,-0.9447,-0.8916,-0.9058,-0.9334,-0.921,-0.9345,-0.9444,-0.9195,-0.7675,-0.5234,-0.1979,-0.0717,0.0,0.0,0.0,0.0,0.0,0.0,0.0,0.0,0.0,0.0,0.0,0.0,0.0,0.0,0.0,0.0,0.0,0.0,0.0,0.0,0.0,0.0,0.0,0.0,0.0,0.0,0.0,0.0,0.0,0.0,0.0,0.0,0.0,0.0,0.0,0.0,0.0,0.0,0.0,0.0,0.0,0.0,0.0,0.0729,0.3274,0.5681,0.8151,1.085,1.3337,1.5133,1.5404,1.5479,1.5493,1.5493,1.5601,1.5689,1.5723,1.5825,1.59,1.59,1.6001,1.6083,1.6083,1.6083,1.6083,1.6083,1.6083,1.6083,1.6083,1.6083,1.6096,1.6123,1.6273,1.6476,1.6748,1.6748,1.6829,1.6978,1.6978,1.6917,1.6795,1.6795,1.6863,-1.7889,-1.7687,-1.8094,-1.9317,-2.0743,-2.2265,-2.3538,0.0,-2.5074,-2.2435,0.0,-2.0251,-1.4797,0.0,0.0,-0.9212,-0.903,-0.901,-0.8488,-0.874,-0.8953,-0.8778,-0.9339,-0.9572,-0.9195,-0.6623,-0.3683,-0.0449,-0.0113,0.0,0.0,0.0,0.0,0.0,0.0,0.0,0.0,0.0,0.0,0.0,0.0,0.0,0.0,0.0,0.0,0.0,0.0,0.0,0.0,0.0,0.0,0.0,0.0,0.0,0.0,0.0,0.0,0.0,0.0,0.0,0.0,0.0,0.0,0.0,0.0,0.0,0.0,0.0,0.0,0.0,0.0,0.0,0.0729,0.3274,0.5713,0.8237,1.0959,1.3542,1.5411,1.5581,1.5716,1.5805,1.5805,1.5818,1.5872,1.6008,1.6042,1.6056,1.6056,1.6069,1.6083,1.6083,1.6083,1.6083,1.6083,1.6083,1.6083,1.6083,1.6083,1.6144,1.6279,1.6422,1.6578,1.6748,1.6748,1.6829,1.6978,1.6978,1.6971,1.6951,1.6951,1.6965,-1.7809,-1.8941,-2.0389,-2.0688,0.0,0.0,-2.4763,0.0,-2.4922,-2.2265,0.0,0.0,0.0,0.0,0.0,0.0,-0.8988,-0.9051,-0.851,-0.8845,-0.8985,-0.8877,-0.8364,-0.7337,-0.5448,-0.4103,-0.2385,-0.0112,0.0,0.0,0.0,0.0,0.0,0.0,0.0,0.0,0.0,0.0,0.0,0.0,0.0,0.0,0.0,0.0,0.0,0.0,0.0,0.0,0.0,0.0,0.0,0.0,0.0,0.0,0.0,0.0,0.0,0.0,0.0,0.0,0.0,0.0,0.0,0.0,0.0,0.0,0.0,0.0,0.0,0.0,0.0,0.1095,0.2758,0.5354,0.8061,1.0659,1.3192,1.4661,1.5588,1.5737,1.5811,1.5879,1.5967,1.5988,1.6008,1.6069,1.6083,1.6083,1.6083,1.6083,1.6083,1.6083,1.6083,1.6083,1.6083,1.6083,1.6083,1.6083,1.6164,1.632,1.6558,1.6619,1.6727,1.6883,1.6883,1.6917,1.6978,1.6978,1.6978,1.6978,1.6978,1.6978,-1.7903,0.0,0.0,0.0,0.0,0.0,0.0,0.0,0.0,0.0,-2.1119,0.0,0.0,0.0,0.0,0.0,0.0,-0.8937,-0.8514,-0.8831,-0.8974,-0.8737,-0.7499,-0.5629,-0.2776,-0.2337,-0.1698,-0.0116,0.0,0.0,0.0,0.0,0.0,0.0,0.0,0.0,0.0,0.0,0.0,0.0,0.0,0.0,0.0,0.0,0.0,0.0,0.0,0.0,0.0,0.0,0.0,0.0,0.0,0.0,0.0,0.0,0.0,0.0,0.0,0.0,0.0,0.0,0.0,0.0,0.0,0.0,0.0,0.0,0.0,0.0,0.0,0.1839,0.4457,0.6911,0.9677,1.2319,1.4832,1.556,1.573,1.5832,1.5886,1.5954,1.6062,1.6083,1.6083,1.6083,1.6083,1.6083,1.6083,1.6117,1.6144,1.6144,1.6144,1.6144,1.6144,1.6103,1.6096,1.6144,1.6327,1.6524,1.6741,1.6788,1.6863,1.6978,1.6978,1.6978,1.6978,1.6978,1.6978,1.6978,1.6978,1.6978,0.0,0.0,0.0,-2.1436,0.0,0.0,0.0,0.0,-2.3384,0.0,0.0,0.0,0.0,0.0,0.0,0.0,0.0,0.0,0.0,-0.85,-0.8614,-0.8306,-0.7409,-0.5581,-0.2808,-0.2471,-0.1851,-0.0123,0.0,0.0,0.0,0.0,0.0,0.0,0.0,0.0,0.0,0.0,0.0,0.0,0.0,0.0,0.0,0.0,0.0,0.0,0.0,0.0,0.0,0.0,0.0,0.0,0.0,0.0,0.0,0.0,0.0,0.0,0.0,0.0,0.0,0.0,0.0,0.0,0.0,0.0,0.0,0.0,0.0,0.0,0.0,0.1847,0.4491,0.692,0.9677,1.2319,1.4832,1.5642,1.5845,1.5852,1.5974,1.6076,1.6083,1.6083,1.6083,1.6083,1.6083,1.6083,1.6083,1.6212,1.63,1.63,1.63,1.63,1.63,1.6164,1.6144,1.6293,1.6578,1.6741,1.6748,1.6897,1.6978,1.6978,1.6978,1.6978,1.6978,1.6978,1.6978,1.6978,1.6978,1.6978,0.0,0.0,-2.2247,-2.1963,0.0,0.0,0.0,0.0,0.0,0.0,0.0,0.0,0.0,0.0,0.0,0.0,0.0,0.0,0.0,-0.7761,-0.6792,-0.5737,-0.4371,-0.2838,-0.1035,-0.0844,-0.0617,0.0,0.0,0.0,0.0,0.0,0.0,0.0,0.0,0.0,0.0,0.0,0.0,0.0,0.0,0.0,0.0,0.0,0.0,0.0,0.0,0.0,0.0,0.0,0.0,0.0,0.0,0.0,0.0,0.0,0.0,0.0,0.0,0.0,0.0,0.0,0.0,0.0,0.0,0.0,0.0,0.0,0.0,0.0,0.0,0.3171,0.6559,0.7356,1.0868,1.4438,1.5214,1.5567,1.5737,1.5839,1.5893,1.5961,1.6062,1.6083,1.6083,1.6083,1.6083,1.6117,1.6218,1.6279,1.6307,1.6307,1.6307,1.6273,1.6171,1.6205,1.6341,1.6585,1.6693,1.6795,1.6897,1.6951,1.6978,1.6978,1.6978,1.6978,1.6978,1.6978,1.6978,1.6978,1.6978,1.6978,-1.8677,-2.0958,0.0,-2.2445,-2.4787,0.0,-2.4418,0.0,-2.2773,0.0,0.0,0.0,0.0,0.0,0.0,0.0,0.0,0.0,0.0,-0.6674,-0.5234,-0.3703,-0.27,-0.1496,-0.0112,0.0,0.0,0.0,0.0,0.0,0.0,0.0,0.0,0.0,0.0,0.0,0.0,0.0,0.0,0.0,0.0,0.0,0.0,0.0,0.0,0.0,0.0,0.0,0.0,0.0,0.0,0.0,0.0,0.0,0.0,0.0,0.0,0.0,0.0,0.0,0.0,0.0,0.0,0.0,0.0,0.0,0.0,0.0,0.0,0.0,0.0,0.3749,0.7534,0.7582,1.1662,1.5398,1.5343,1.5493,1.5669,1.5757,1.5818,1.59,1.6056,1.613,1.6164,1.6164,1.6117,1.6157,1.6361,1.6388,1.6388,1.6388,1.6435,1.6402,1.6252,1.6381,1.6544,1.6734,1.6802,1.6876,1.6978,1.6978,1.706,1.7216,1.706,1.706,1.7216,1.706,1.6978,1.6978,1.6978,1.6978]}]]